<?xml version="1.0" encoding="UTF-8" standalone="no" ?>
<gpx xmlns="http://www.topografix.com/GPX/1/1" xmlns:xsi="http://www.w3.org/2001/XMLSchema-instance" xsi:schemaLocation="http://www.topografix.com/GPX/1/1 http://www.topografix.com/GPX/1/1/gpx.xsd" version="1.1" creator="VisuGPX - https://www.visugpx.com">
  <metadata>
    <name>Canal du Midi - Toulouse, Montesquieu Lauragais</name>
    <desc><![CDATA[Canal du Midi - Toulouse, Montesquieu Lauragais]]></desc>
  </metadata>
  <trk>
    <name><![CDATA[Canal du Midi - Toulouse, Montesquieu Lauragais_1]]></name>
    <trkseg>
      <trkpt lat="43.59556" lon="1.45528">
        <ele>128.7</ele>
        <time>2017-03-02T10:11:07Z</time>
      </trkpt>
      <trkpt lat="43.59545" lon="1.45521">
        <ele>133.9</ele>
        <time>2017-03-02T10:11:28Z</time>
      </trkpt>
      <trkpt lat="43.59536" lon="1.4552">
        <ele>138.1</ele>
        <time>2017-03-02T10:11:32Z</time>
      </trkpt>
      <trkpt lat="43.59525" lon="1.45518">
        <ele>140.9</ele>
        <time>2017-03-02T10:11:39Z</time>
      </trkpt>
      <trkpt lat="43.59519" lon="1.45525">
        <ele>142</ele>
        <time>2017-03-02T10:11:43Z</time>
      </trkpt>
      <trkpt lat="43.59512" lon="1.45534">
        <ele>143</ele>
        <time>2017-03-02T10:11:48Z</time>
      </trkpt>
      <trkpt lat="43.59505" lon="1.45546">
        <ele>141.2</ele>
        <time>2017-03-02T10:11:51Z</time>
      </trkpt>
      <trkpt lat="43.59501" lon="1.45556">
        <ele>140.3</ele>
        <time>2017-03-02T10:11:53Z</time>
      </trkpt>
      <trkpt lat="43.59496" lon="1.45564">
        <ele>139.8</ele>
        <time>2017-03-02T10:11:55Z</time>
      </trkpt>
      <trkpt lat="43.59491" lon="1.45574">
        <ele>139.9</ele>
        <time>2017-03-02T10:11:58Z</time>
      </trkpt>
      <trkpt lat="43.5948" lon="1.4558">
        <ele>140.5</ele>
        <time>2017-03-02T10:12:02Z</time>
      </trkpt>
      <trkpt lat="43.59471" lon="1.45581">
        <ele>140.6</ele>
        <time>2017-03-02T10:12:04Z</time>
      </trkpt>
      <trkpt lat="43.59463" lon="1.45576">
        <ele>141.5</ele>
        <time>2017-03-02T10:12:07Z</time>
      </trkpt>
      <trkpt lat="43.59456" lon="1.45572">
        <ele>143</ele>
        <time>2017-03-02T10:12:10Z</time>
      </trkpt>
      <trkpt lat="43.5945" lon="1.45579">
        <ele>144.1</ele>
        <time>2017-03-02T10:12:14Z</time>
      </trkpt>
      <trkpt lat="43.59446" lon="1.45588">
        <ele>144</ele>
        <time>2017-03-02T10:12:17Z</time>
      </trkpt>
      <trkpt lat="43.59442" lon="1.45597">
        <ele>143.6</ele>
        <time>2017-03-02T10:12:20Z</time>
      </trkpt>
      <trkpt lat="43.59437" lon="1.45608">
        <ele>142.7</ele>
        <time>2017-03-02T10:12:23Z</time>
      </trkpt>
      <trkpt lat="43.59433" lon="1.45617">
        <ele>141.3</ele>
        <time>2017-03-02T10:12:26Z</time>
      </trkpt>
      <trkpt lat="43.5943" lon="1.45626">
        <ele>140.1</ele>
        <time>2017-03-02T10:12:29Z</time>
      </trkpt>
      <trkpt lat="43.59427" lon="1.45636">
        <ele>139.1</ele>
        <time>2017-03-02T10:12:32Z</time>
      </trkpt>
      <trkpt lat="43.59422" lon="1.45645">
        <ele>136.7</ele>
        <time>2017-03-02T10:12:36Z</time>
      </trkpt>
      <trkpt lat="43.59416" lon="1.45654">
        <ele>134.6</ele>
        <time>2017-03-02T10:12:39Z</time>
      </trkpt>
      <trkpt lat="43.59411" lon="1.4566">
        <ele>133.4</ele>
        <time>2017-03-02T10:12:41Z</time>
      </trkpt>
      <trkpt lat="43.59407" lon="1.45672">
        <ele>132.8</ele>
        <time>2017-03-02T10:12:44Z</time>
      </trkpt>
      <trkpt lat="43.59401" lon="1.45683">
        <ele>133.3</ele>
        <time>2017-03-02T10:12:46Z</time>
      </trkpt>
      <trkpt lat="43.59396" lon="1.45689">
        <ele>133</ele>
        <time>2017-03-02T10:12:48Z</time>
      </trkpt>
      <trkpt lat="43.59389" lon="1.45696">
        <ele>131.9</ele>
        <time>2017-03-02T10:12:50Z</time>
      </trkpt>
      <trkpt lat="43.59381" lon="1.45702">
        <ele>130.8</ele>
        <time>2017-03-02T10:12:52Z</time>
      </trkpt>
      <trkpt lat="43.59374" lon="1.45708">
        <ele>131</ele>
        <time>2017-03-02T10:12:54Z</time>
      </trkpt>
      <trkpt lat="43.59367" lon="1.45714">
        <ele>130.4</ele>
        <time>2017-03-02T10:12:56Z</time>
      </trkpt>
      <trkpt lat="43.59359" lon="1.45724">
        <ele>129.4</ele>
        <time>2017-03-02T10:12:59Z</time>
      </trkpt>
      <trkpt lat="43.59353" lon="1.45729">
        <ele>128.9</ele>
        <time>2017-03-02T10:13:01Z</time>
      </trkpt>
      <trkpt lat="43.59347" lon="1.4574">
        <ele>128.7</ele>
        <time>2017-03-02T10:13:04Z</time>
      </trkpt>
      <trkpt lat="43.59339" lon="1.45746">
        <ele>128.5</ele>
        <time>2017-03-02T10:13:06Z</time>
      </trkpt>
      <trkpt lat="43.59329" lon="1.45752">
        <ele>128.5</ele>
        <time>2017-03-02T10:13:08Z</time>
      </trkpt>
      <trkpt lat="43.5932" lon="1.45761">
        <ele>130.6</ele>
        <time>2017-03-02T10:13:10Z</time>
      </trkpt>
      <trkpt lat="43.59311" lon="1.45767">
        <ele>131.2</ele>
        <time>2017-03-02T10:13:12Z</time>
      </trkpt>
      <trkpt lat="43.59303" lon="1.45773">
        <ele>131</ele>
        <time>2017-03-02T10:13:14Z</time>
      </trkpt>
      <trkpt lat="43.59297" lon="1.45779">
        <ele>130.7</ele>
        <time>2017-03-02T10:13:16Z</time>
      </trkpt>
      <trkpt lat="43.5929" lon="1.45785">
        <ele>131.4</ele>
        <time>2017-03-02T10:13:18Z</time>
      </trkpt>
      <trkpt lat="43.59284" lon="1.45792">
        <ele>131.7</ele>
        <time>2017-03-02T10:13:20Z</time>
      </trkpt>
      <trkpt lat="43.59276" lon="1.45802">
        <ele>132.6</ele>
        <time>2017-03-02T10:13:23Z</time>
      </trkpt>
      <trkpt lat="43.59271" lon="1.4581">
        <ele>133.6</ele>
        <time>2017-03-02T10:13:25Z</time>
      </trkpt>
      <trkpt lat="43.59263" lon="1.45819">
        <ele>133.6</ele>
        <time>2017-03-02T10:13:28Z</time>
      </trkpt>
      <trkpt lat="43.59256" lon="1.45825">
        <ele>133.5</ele>
        <time>2017-03-02T10:13:30Z</time>
      </trkpt>
      <trkpt lat="43.59248" lon="1.45831">
        <ele>133.4</ele>
        <time>2017-03-02T10:13:32Z</time>
      </trkpt>
      <trkpt lat="43.5924" lon="1.45838">
        <ele>133.3</ele>
        <time>2017-03-02T10:13:34Z</time>
      </trkpt>
      <trkpt lat="43.59234" lon="1.45845">
        <ele>133.4</ele>
        <time>2017-03-02T10:13:36Z</time>
      </trkpt>
      <trkpt lat="43.59226" lon="1.45852">
        <ele>133.6</ele>
        <time>2017-03-02T10:13:38Z</time>
      </trkpt>
      <trkpt lat="43.5922" lon="1.45858">
        <ele>133.4</ele>
        <time>2017-03-02T10:13:40Z</time>
      </trkpt>
      <trkpt lat="43.59214" lon="1.45864">
        <ele>133.7</ele>
        <time>2017-03-02T10:13:42Z</time>
      </trkpt>
      <trkpt lat="43.59207" lon="1.45872">
        <ele>134.2</ele>
        <time>2017-03-02T10:13:44Z</time>
      </trkpt>
      <trkpt lat="43.59201" lon="1.45879">
        <ele>134.7</ele>
        <time>2017-03-02T10:13:46Z</time>
      </trkpt>
      <trkpt lat="43.59194" lon="1.45887">
        <ele>135.3</ele>
        <time>2017-03-02T10:13:48Z</time>
      </trkpt>
      <trkpt lat="43.59187" lon="1.45894">
        <ele>135.9</ele>
        <time>2017-03-02T10:13:50Z</time>
      </trkpt>
      <trkpt lat="43.5918" lon="1.45901">
        <ele>136.2</ele>
        <time>2017-03-02T10:13:52Z</time>
      </trkpt>
      <trkpt lat="43.59173" lon="1.45909">
        <ele>136.9</ele>
        <time>2017-03-02T10:13:54Z</time>
      </trkpt>
      <trkpt lat="43.59166" lon="1.45917">
        <ele>137.6</ele>
        <time>2017-03-02T10:13:56Z</time>
      </trkpt>
      <trkpt lat="43.59159" lon="1.45925">
        <ele>138</ele>
        <time>2017-03-02T10:13:58Z</time>
      </trkpt>
      <trkpt lat="43.59151" lon="1.45933">
        <ele>138.4</ele>
        <time>2017-03-02T10:14:00Z</time>
      </trkpt>
      <trkpt lat="43.59144" lon="1.4594">
        <ele>138.9</ele>
        <time>2017-03-02T10:14:02Z</time>
      </trkpt>
      <trkpt lat="43.59134" lon="1.45949">
        <ele>139.7</ele>
        <time>2017-03-02T10:14:05Z</time>
      </trkpt>
      <trkpt lat="43.59126" lon="1.45953">
        <ele>139.7</ele>
        <time>2017-03-02T10:14:07Z</time>
      </trkpt>
      <trkpt lat="43.59117" lon="1.45957">
        <ele>139.9</ele>
        <time>2017-03-02T10:14:09Z</time>
      </trkpt>
      <trkpt lat="43.59107" lon="1.45961">
        <ele>140.1</ele>
        <time>2017-03-02T10:14:11Z</time>
      </trkpt>
      <trkpt lat="43.59099" lon="1.45962">
        <ele>140.4</ele>
        <time>2017-03-02T10:14:13Z</time>
      </trkpt>
      <trkpt lat="43.5909" lon="1.45964">
        <ele>140.6</ele>
        <time>2017-03-02T10:14:15Z</time>
      </trkpt>
      <trkpt lat="43.5908" lon="1.45969">
        <ele>140.7</ele>
        <time>2017-03-02T10:14:18Z</time>
      </trkpt>
      <trkpt lat="43.59069" lon="1.45972">
        <ele>140.6</ele>
        <time>2017-03-02T10:14:21Z</time>
      </trkpt>
      <trkpt lat="43.5906" lon="1.45974">
        <ele>140.3</ele>
        <time>2017-03-02T10:14:24Z</time>
      </trkpt>
      <trkpt lat="43.59049" lon="1.45978">
        <ele>140.5</ele>
        <time>2017-03-02T10:14:27Z</time>
      </trkpt>
      <trkpt lat="43.59041" lon="1.4598">
        <ele>141</ele>
        <time>2017-03-02T10:14:29Z</time>
      </trkpt>
      <trkpt lat="43.5903" lon="1.45985">
        <ele>141.8</ele>
        <time>2017-03-02T10:14:32Z</time>
      </trkpt>
      <trkpt lat="43.59021" lon="1.45988">
        <ele>142.5</ele>
        <time>2017-03-02T10:14:35Z</time>
      </trkpt>
      <trkpt lat="43.59012" lon="1.45991">
        <ele>143.1</ele>
        <time>2017-03-02T10:14:38Z</time>
      </trkpt>
      <trkpt lat="43.59002" lon="1.45991">
        <ele>143.7</ele>
        <time>2017-03-02T10:14:41Z</time>
      </trkpt>
      <trkpt lat="43.58992" lon="1.45993">
        <ele>143.7</ele>
        <time>2017-03-02T10:14:44Z</time>
      </trkpt>
      <trkpt lat="43.58983" lon="1.45994">
        <ele>143.7</ele>
        <time>2017-03-02T10:14:47Z</time>
      </trkpt>
      <trkpt lat="43.58973" lon="1.45994">
        <ele>143.7</ele>
        <time>2017-03-02T10:14:50Z</time>
      </trkpt>
      <trkpt lat="43.58965" lon="1.45996">
        <ele>143.7</ele>
        <time>2017-03-02T10:14:52Z</time>
      </trkpt>
      <trkpt lat="43.58956" lon="1.45998">
        <ele>143.6</ele>
        <time>2017-03-02T10:14:54Z</time>
      </trkpt>
      <trkpt lat="43.58947" lon="1.45999">
        <ele>143.6</ele>
        <time>2017-03-02T10:14:56Z</time>
      </trkpt>
      <trkpt lat="43.58936" lon="1.46">
        <ele>143.7</ele>
        <time>2017-03-02T10:14:59Z</time>
      </trkpt>
      <trkpt lat="43.58928" lon="1.46">
        <ele>143.7</ele>
        <time>2017-03-02T10:15:01Z</time>
      </trkpt>
      <trkpt lat="43.58919" lon="1.46001">
        <ele>143.9</ele>
        <time>2017-03-02T10:15:03Z</time>
      </trkpt>
      <trkpt lat="43.5891" lon="1.46002">
        <ele>143.5</ele>
        <time>2017-03-02T10:15:05Z</time>
      </trkpt>
      <trkpt lat="43.58902" lon="1.46004">
        <ele>143.4</ele>
        <time>2017-03-02T10:15:07Z</time>
      </trkpt>
      <trkpt lat="43.58894" lon="1.46005">
        <ele>143.1</ele>
        <time>2017-03-02T10:15:09Z</time>
      </trkpt>
      <trkpt lat="43.58886" lon="1.46006">
        <ele>142.8</ele>
        <time>2017-03-02T10:15:11Z</time>
      </trkpt>
      <trkpt lat="43.58875" lon="1.46008">
        <ele>142.3</ele>
        <time>2017-03-02T10:15:13Z</time>
      </trkpt>
      <trkpt lat="43.58866" lon="1.46011">
        <ele>142</ele>
        <time>2017-03-02T10:15:15Z</time>
      </trkpt>
      <trkpt lat="43.58858" lon="1.46012">
        <ele>141.8</ele>
        <time>2017-03-02T10:15:17Z</time>
      </trkpt>
      <trkpt lat="43.58845" lon="1.46015">
        <ele>141.7</ele>
        <time>2017-03-02T10:15:20Z</time>
      </trkpt>
      <trkpt lat="43.58838" lon="1.46016">
        <ele>141.7</ele>
        <time>2017-03-02T10:15:22Z</time>
      </trkpt>
      <trkpt lat="43.5883" lon="1.46021">
        <ele>142.5</ele>
        <time>2017-03-02T10:15:25Z</time>
      </trkpt>
      <trkpt lat="43.58821" lon="1.46025">
        <ele>142.9</ele>
        <time>2017-03-02T10:15:28Z</time>
      </trkpt>
      <trkpt lat="43.58811" lon="1.46029">
        <ele>143</ele>
        <time>2017-03-02T10:15:31Z</time>
      </trkpt>
      <trkpt lat="43.58801" lon="1.46031">
        <ele>143</ele>
        <time>2017-03-02T10:15:33Z</time>
      </trkpt>
      <trkpt lat="43.5879" lon="1.46034">
        <ele>143.1</ele>
        <time>2017-03-02T10:15:35Z</time>
      </trkpt>
      <trkpt lat="43.5878" lon="1.46038">
        <ele>143.1</ele>
        <time>2017-03-02T10:15:37Z</time>
      </trkpt>
      <trkpt lat="43.58772" lon="1.46038">
        <ele>142.5</ele>
        <time>2017-03-02T10:15:39Z</time>
      </trkpt>
      <trkpt lat="43.5876" lon="1.46042">
        <ele>143</ele>
        <time>2017-03-02T10:15:41Z</time>
      </trkpt>
      <trkpt lat="43.58753" lon="1.46043">
        <ele>143.6</ele>
        <time>2017-03-02T10:15:43Z</time>
      </trkpt>
      <trkpt lat="43.58745" lon="1.46044">
        <ele>144.2</ele>
        <time>2017-03-02T10:15:45Z</time>
      </trkpt>
      <trkpt lat="43.58731" lon="1.46047">
        <ele>145.2</ele>
        <time>2017-03-02T10:15:48Z</time>
      </trkpt>
      <trkpt lat="43.58723" lon="1.46051">
        <ele>145.6</ele>
        <time>2017-03-02T10:15:49Z</time>
      </trkpt>
      <trkpt lat="43.58713" lon="1.46054">
        <ele>146.4</ele>
        <time>2017-03-02T10:15:51Z</time>
      </trkpt>
      <trkpt lat="43.58701" lon="1.46059">
        <ele>147.4</ele>
        <time>2017-03-02T10:15:53Z</time>
      </trkpt>
      <trkpt lat="43.58691" lon="1.46062">
        <ele>148.2</ele>
        <time>2017-03-02T10:15:55Z</time>
      </trkpt>
      <trkpt lat="43.58682" lon="1.46068">
        <ele>150.1</ele>
        <time>2017-03-02T10:15:57Z</time>
      </trkpt>
      <trkpt lat="43.58672" lon="1.46072">
        <ele>151.3</ele>
        <time>2017-03-02T10:15:59Z</time>
      </trkpt>
      <trkpt lat="43.58664" lon="1.46076">
        <ele>152.5</ele>
        <time>2017-03-02T10:16:01Z</time>
      </trkpt>
      <trkpt lat="43.58655" lon="1.46079">
        <ele>153</ele>
        <time>2017-03-02T10:16:03Z</time>
      </trkpt>
      <trkpt lat="43.58648" lon="1.46079">
        <ele>153.2</ele>
        <time>2017-03-02T10:16:05Z</time>
      </trkpt>
      <trkpt lat="43.58639" lon="1.46082">
        <ele>153.4</ele>
        <time>2017-03-02T10:16:07Z</time>
      </trkpt>
      <trkpt lat="43.58632" lon="1.46084">
        <ele>153.3</ele>
        <time>2017-03-02T10:16:09Z</time>
      </trkpt>
      <trkpt lat="43.58623" lon="1.46088">
        <ele>153.2</ele>
        <time>2017-03-02T10:16:11Z</time>
      </trkpt>
      <trkpt lat="43.58615" lon="1.46091">
        <ele>153.4</ele>
        <time>2017-03-02T10:16:13Z</time>
      </trkpt>
      <trkpt lat="43.58607" lon="1.46093">
        <ele>153.8</ele>
        <time>2017-03-02T10:16:15Z</time>
      </trkpt>
      <trkpt lat="43.58598" lon="1.46096">
        <ele>153.9</ele>
        <time>2017-03-02T10:16:17Z</time>
      </trkpt>
      <trkpt lat="43.5859" lon="1.46098">
        <ele>153.9</ele>
        <time>2017-03-02T10:16:19Z</time>
      </trkpt>
      <trkpt lat="43.58581" lon="1.46101">
        <ele>153.6</ele>
        <time>2017-03-02T10:16:21Z</time>
      </trkpt>
      <trkpt lat="43.58572" lon="1.46104">
        <ele>153.1</ele>
        <time>2017-03-02T10:16:23Z</time>
      </trkpt>
      <trkpt lat="43.58564" lon="1.46106">
        <ele>152.9</ele>
        <time>2017-03-02T10:16:25Z</time>
      </trkpt>
      <trkpt lat="43.58556" lon="1.4611">
        <ele>152.8</ele>
        <time>2017-03-02T10:16:27Z</time>
      </trkpt>
      <trkpt lat="43.58548" lon="1.46112">
        <ele>152.2</ele>
        <time>2017-03-02T10:16:29Z</time>
      </trkpt>
      <trkpt lat="43.58539" lon="1.46115">
        <ele>152</ele>
        <time>2017-03-02T10:16:31Z</time>
      </trkpt>
      <trkpt lat="43.58531" lon="1.46118">
        <ele>151.3</ele>
        <time>2017-03-02T10:16:33Z</time>
      </trkpt>
      <trkpt lat="43.58521" lon="1.46121">
        <ele>151.2</ele>
        <time>2017-03-02T10:16:35Z</time>
      </trkpt>
      <trkpt lat="43.58512" lon="1.46126">
        <ele>151</ele>
        <time>2017-03-02T10:16:37Z</time>
      </trkpt>
      <trkpt lat="43.58503" lon="1.46129">
        <ele>150.8</ele>
        <time>2017-03-02T10:16:39Z</time>
      </trkpt>
      <trkpt lat="43.58495" lon="1.46132">
        <ele>150.3</ele>
        <time>2017-03-02T10:16:41Z</time>
      </trkpt>
      <trkpt lat="43.58486" lon="1.46135">
        <ele>149.8</ele>
        <time>2017-03-02T10:16:43Z</time>
      </trkpt>
      <trkpt lat="43.58477" lon="1.46137">
        <ele>149.6</ele>
        <time>2017-03-02T10:16:45Z</time>
      </trkpt>
      <trkpt lat="43.58469" lon="1.4614">
        <ele>149.4</ele>
        <time>2017-03-02T10:16:47Z</time>
      </trkpt>
      <trkpt lat="43.58461" lon="1.46143">
        <ele>148.7</ele>
        <time>2017-03-02T10:16:49Z</time>
      </trkpt>
      <trkpt lat="43.58453" lon="1.46147">
        <ele>147.8</ele>
        <time>2017-03-02T10:16:51Z</time>
      </trkpt>
      <trkpt lat="43.58445" lon="1.4615">
        <ele>147.3</ele>
        <time>2017-03-02T10:16:53Z</time>
      </trkpt>
      <trkpt lat="43.58438" lon="1.46154">
        <ele>146.7</ele>
        <time>2017-03-02T10:16:55Z</time>
      </trkpt>
      <trkpt lat="43.5843" lon="1.46158">
        <ele>145.5</ele>
        <time>2017-03-02T10:16:57Z</time>
      </trkpt>
      <trkpt lat="43.58422" lon="1.4616">
        <ele>144.6</ele>
        <time>2017-03-02T10:16:59Z</time>
      </trkpt>
      <trkpt lat="43.58413" lon="1.46164">
        <ele>144.3</ele>
        <time>2017-03-02T10:17:01Z</time>
      </trkpt>
      <trkpt lat="43.58406" lon="1.46169">
        <ele>143.7</ele>
        <time>2017-03-02T10:17:03Z</time>
      </trkpt>
      <trkpt lat="43.58396" lon="1.46174">
        <ele>143.3</ele>
        <time>2017-03-02T10:17:06Z</time>
      </trkpt>
      <trkpt lat="43.58388" lon="1.46178">
        <ele>142.8</ele>
        <time>2017-03-02T10:17:08Z</time>
      </trkpt>
      <trkpt lat="43.58381" lon="1.46182">
        <ele>142.3</ele>
        <time>2017-03-02T10:17:10Z</time>
      </trkpt>
      <trkpt lat="43.58374" lon="1.46185">
        <ele>141.9</ele>
        <time>2017-03-02T10:17:12Z</time>
      </trkpt>
      <trkpt lat="43.58366" lon="1.46188">
        <ele>141.5</ele>
        <time>2017-03-02T10:17:14Z</time>
      </trkpt>
      <trkpt lat="43.58356" lon="1.46194">
        <ele>141.2</ele>
        <time>2017-03-02T10:17:17Z</time>
      </trkpt>
      <trkpt lat="43.58348" lon="1.46199">
        <ele>141.1</ele>
        <time>2017-03-02T10:17:19Z</time>
      </trkpt>
      <trkpt lat="43.5834" lon="1.46203">
        <ele>141</ele>
        <time>2017-03-02T10:17:21Z</time>
      </trkpt>
      <trkpt lat="43.58332" lon="1.46207">
        <ele>140.9</ele>
        <time>2017-03-02T10:17:23Z</time>
      </trkpt>
      <trkpt lat="43.58324" lon="1.4621">
        <ele>140.9</ele>
        <time>2017-03-02T10:17:25Z</time>
      </trkpt>
      <trkpt lat="43.58315" lon="1.46214">
        <ele>141.1</ele>
        <time>2017-03-02T10:17:27Z</time>
      </trkpt>
      <trkpt lat="43.58306" lon="1.46218">
        <ele>140.8</ele>
        <time>2017-03-02T10:17:29Z</time>
      </trkpt>
      <trkpt lat="43.58297" lon="1.46222">
        <ele>140.8</ele>
        <time>2017-03-02T10:17:31Z</time>
      </trkpt>
      <trkpt lat="43.58289" lon="1.46227">
        <ele>140</ele>
        <time>2017-03-02T10:17:33Z</time>
      </trkpt>
      <trkpt lat="43.5828" lon="1.46232">
        <ele>139.8</ele>
        <time>2017-03-02T10:17:35Z</time>
      </trkpt>
      <trkpt lat="43.58271" lon="1.46238">
        <ele>139.5</ele>
        <time>2017-03-02T10:17:37Z</time>
      </trkpt>
      <trkpt lat="43.58263" lon="1.46242">
        <ele>139</ele>
        <time>2017-03-02T10:17:39Z</time>
      </trkpt>
      <trkpt lat="43.58255" lon="1.46246">
        <ele>138.6</ele>
        <time>2017-03-02T10:17:41Z</time>
      </trkpt>
      <trkpt lat="43.58247" lon="1.46249">
        <ele>138.3</ele>
        <time>2017-03-02T10:17:43Z</time>
      </trkpt>
      <trkpt lat="43.58239" lon="1.46254">
        <ele>138</ele>
        <time>2017-03-02T10:17:45Z</time>
      </trkpt>
      <trkpt lat="43.58231" lon="1.46257">
        <ele>137.7</ele>
        <time>2017-03-02T10:17:47Z</time>
      </trkpt>
      <trkpt lat="43.58223" lon="1.46263">
        <ele>137.6</ele>
        <time>2017-03-02T10:17:49Z</time>
      </trkpt>
      <trkpt lat="43.58214" lon="1.46269">
        <ele>137.8</ele>
        <time>2017-03-02T10:17:51Z</time>
      </trkpt>
      <trkpt lat="43.58206" lon="1.46275">
        <ele>137.5</ele>
        <time>2017-03-02T10:17:53Z</time>
      </trkpt>
      <trkpt lat="43.58197" lon="1.46281">
        <ele>137.1</ele>
        <time>2017-03-02T10:17:55Z</time>
      </trkpt>
      <trkpt lat="43.58188" lon="1.46287">
        <ele>137.1</ele>
        <time>2017-03-02T10:17:57Z</time>
      </trkpt>
      <trkpt lat="43.5818" lon="1.46293">
        <ele>137</ele>
        <time>2017-03-02T10:17:59Z</time>
      </trkpt>
      <trkpt lat="43.58171" lon="1.46298">
        <ele>137.2</ele>
        <time>2017-03-02T10:18:01Z</time>
      </trkpt>
      <trkpt lat="43.58164" lon="1.46303">
        <ele>137.6</ele>
        <time>2017-03-02T10:18:03Z</time>
      </trkpt>
      <trkpt lat="43.58154" lon="1.46307">
        <ele>137.7</ele>
        <time>2017-03-02T10:18:06Z</time>
      </trkpt>
      <trkpt lat="43.58146" lon="1.46311">
        <ele>137.6</ele>
        <time>2017-03-02T10:18:09Z</time>
      </trkpt>
      <trkpt lat="43.5814" lon="1.46319">
        <ele>137.5</ele>
        <time>2017-03-02T10:18:12Z</time>
      </trkpt>
      <trkpt lat="43.58135" lon="1.46327">
        <ele>137.3</ele>
        <time>2017-03-02T10:18:15Z</time>
      </trkpt>
      <trkpt lat="43.58128" lon="1.46337">
        <ele>137.1</ele>
        <time>2017-03-02T10:18:18Z</time>
      </trkpt>
      <trkpt lat="43.58121" lon="1.46346">
        <ele>136.9</ele>
        <time>2017-03-02T10:18:21Z</time>
      </trkpt>
      <trkpt lat="43.58115" lon="1.46354">
        <ele>136.9</ele>
        <time>2017-03-02T10:18:24Z</time>
      </trkpt>
      <trkpt lat="43.58106" lon="1.46364">
        <ele>136.7</ele>
        <time>2017-03-02T10:18:27Z</time>
      </trkpt>
      <trkpt lat="43.58098" lon="1.46371">
        <ele>136.2</ele>
        <time>2017-03-02T10:18:29Z</time>
      </trkpt>
      <trkpt lat="43.58091" lon="1.46377">
        <ele>135.3</ele>
        <time>2017-03-02T10:18:31Z</time>
      </trkpt>
      <trkpt lat="43.58084" lon="1.46383">
        <ele>134.8</ele>
        <time>2017-03-02T10:18:33Z</time>
      </trkpt>
      <trkpt lat="43.58077" lon="1.46389">
        <ele>134.3</ele>
        <time>2017-03-02T10:18:35Z</time>
      </trkpt>
      <trkpt lat="43.58071" lon="1.46395">
        <ele>133.8</ele>
        <time>2017-03-02T10:18:37Z</time>
      </trkpt>
      <trkpt lat="43.58062" lon="1.46401">
        <ele>133.5</ele>
        <time>2017-03-02T10:18:39Z</time>
      </trkpt>
      <trkpt lat="43.58054" lon="1.46408">
        <ele>132.9</ele>
        <time>2017-03-02T10:18:41Z</time>
      </trkpt>
      <trkpt lat="43.58047" lon="1.46415">
        <ele>132.2</ele>
        <time>2017-03-02T10:18:43Z</time>
      </trkpt>
      <trkpt lat="43.58039" lon="1.46425">
        <ele>131.5</ele>
        <time>2017-03-02T10:18:46Z</time>
      </trkpt>
      <trkpt lat="43.58032" lon="1.46432">
        <ele>131.1</ele>
        <time>2017-03-02T10:18:48Z</time>
      </trkpt>
      <trkpt lat="43.58024" lon="1.46439">
        <ele>130.8</ele>
        <time>2017-03-02T10:18:50Z</time>
      </trkpt>
      <trkpt lat="43.58019" lon="1.46447">
        <ele>130.6</ele>
        <time>2017-03-02T10:18:52Z</time>
      </trkpt>
      <trkpt lat="43.58012" lon="1.46456">
        <ele>130.4</ele>
        <time>2017-03-02T10:18:54Z</time>
      </trkpt>
      <trkpt lat="43.58007" lon="1.46464">
        <ele>130.5</ele>
        <time>2017-03-02T10:18:56Z</time>
      </trkpt>
      <trkpt lat="43.58001" lon="1.4647">
        <ele>130.2</ele>
        <time>2017-03-02T10:18:58Z</time>
      </trkpt>
      <trkpt lat="43.57993" lon="1.46479">
        <ele>130.3</ele>
        <time>2017-03-02T10:19:00Z</time>
      </trkpt>
      <trkpt lat="43.57985" lon="1.46487">
        <ele>130.2</ele>
        <time>2017-03-02T10:19:02Z</time>
      </trkpt>
      <trkpt lat="43.5798" lon="1.46493">
        <ele>129.9</ele>
        <time>2017-03-02T10:19:04Z</time>
      </trkpt>
      <trkpt lat="43.57971" lon="1.46501">
        <ele>129.3</ele>
        <time>2017-03-02T10:19:07Z</time>
      </trkpt>
      <trkpt lat="43.57962" lon="1.46509">
        <ele>129</ele>
        <time>2017-03-02T10:19:10Z</time>
      </trkpt>
      <trkpt lat="43.57951" lon="1.46516">
        <ele>129.1</ele>
        <time>2017-03-02T10:19:12Z</time>
      </trkpt>
      <trkpt lat="43.57939" lon="1.46521">
        <ele>129.2</ele>
        <time>2017-03-02T10:19:14Z</time>
      </trkpt>
      <trkpt lat="43.57929" lon="1.46526">
        <ele>129</ele>
        <time>2017-03-02T10:19:17Z</time>
      </trkpt>
      <trkpt lat="43.57918" lon="1.46531">
        <ele>129</ele>
        <time>2017-03-02T10:19:18Z</time>
      </trkpt>
      <trkpt lat="43.5791" lon="1.46536">
        <ele>128.9</ele>
        <time>2017-03-02T10:19:20Z</time>
      </trkpt>
      <trkpt lat="43.579" lon="1.46543">
        <ele>129.3</ele>
        <time>2017-03-02T10:19:22Z</time>
      </trkpt>
      <trkpt lat="43.57889" lon="1.46547">
        <ele>129.1</ele>
        <time>2017-03-02T10:19:24Z</time>
      </trkpt>
      <trkpt lat="43.5788" lon="1.46552">
        <ele>129.2</ele>
        <time>2017-03-02T10:19:26Z</time>
      </trkpt>
      <trkpt lat="43.57871" lon="1.46555">
        <ele>129.2</ele>
        <time>2017-03-02T10:19:28Z</time>
      </trkpt>
      <trkpt lat="43.57862" lon="1.46558">
        <ele>129.3</ele>
        <time>2017-03-02T10:19:30Z</time>
      </trkpt>
      <trkpt lat="43.57851" lon="1.4656">
        <ele>129.1</ele>
        <time>2017-03-02T10:19:32Z</time>
      </trkpt>
      <trkpt lat="43.57841" lon="1.46563">
        <ele>129</ele>
        <time>2017-03-02T10:19:34Z</time>
      </trkpt>
      <trkpt lat="43.57831" lon="1.46567">
        <ele>129.1</ele>
        <time>2017-03-02T10:19:37Z</time>
      </trkpt>
      <trkpt lat="43.57822" lon="1.46571">
        <ele>129.1</ele>
        <time>2017-03-02T10:19:38Z</time>
      </trkpt>
      <trkpt lat="43.57812" lon="1.46574">
        <ele>129.2</ele>
        <time>2017-03-02T10:19:40Z</time>
      </trkpt>
      <trkpt lat="43.57802" lon="1.46577">
        <ele>129.4</ele>
        <time>2017-03-02T10:19:42Z</time>
      </trkpt>
      <trkpt lat="43.57793" lon="1.46579">
        <ele>129.4</ele>
        <time>2017-03-02T10:19:44Z</time>
      </trkpt>
      <trkpt lat="43.57783" lon="1.4658">
        <ele>129.8</ele>
        <time>2017-03-02T10:19:46Z</time>
      </trkpt>
      <trkpt lat="43.57773" lon="1.46581">
        <ele>130.1</ele>
        <time>2017-03-02T10:19:48Z</time>
      </trkpt>
      <trkpt lat="43.57764" lon="1.46581">
        <ele>130.2</ele>
        <time>2017-03-02T10:19:50Z</time>
      </trkpt>
      <trkpt lat="43.57754" lon="1.46582">
        <ele>130.6</ele>
        <time>2017-03-02T10:19:52Z</time>
      </trkpt>
      <trkpt lat="43.57745" lon="1.46583">
        <ele>131.1</ele>
        <time>2017-03-02T10:19:54Z</time>
      </trkpt>
      <trkpt lat="43.57736" lon="1.46584">
        <ele>131.4</ele>
        <time>2017-03-02T10:19:56Z</time>
      </trkpt>
      <trkpt lat="43.57727" lon="1.46584">
        <ele>131.6</ele>
        <time>2017-03-02T10:19:58Z</time>
      </trkpt>
      <trkpt lat="43.57718" lon="1.46584">
        <ele>131.9</ele>
        <time>2017-03-02T10:20:00Z</time>
      </trkpt>
      <trkpt lat="43.57708" lon="1.46584">
        <ele>132.2</ele>
        <time>2017-03-02T10:20:02Z</time>
      </trkpt>
      <trkpt lat="43.57699" lon="1.46585">
        <ele>132.7</ele>
        <time>2017-03-02T10:20:04Z</time>
      </trkpt>
      <trkpt lat="43.5769" lon="1.46586">
        <ele>133.2</ele>
        <time>2017-03-02T10:20:06Z</time>
      </trkpt>
      <trkpt lat="43.5768" lon="1.46586">
        <ele>133.4</ele>
        <time>2017-03-02T10:20:08Z</time>
      </trkpt>
      <trkpt lat="43.5767" lon="1.46589">
        <ele>133.4</ele>
        <time>2017-03-02T10:20:10Z</time>
      </trkpt>
      <trkpt lat="43.5766" lon="1.46593">
        <ele>133.6</ele>
        <time>2017-03-02T10:20:12Z</time>
      </trkpt>
      <trkpt lat="43.57651" lon="1.46596">
        <ele>133.7</ele>
        <time>2017-03-02T10:20:14Z</time>
      </trkpt>
      <trkpt lat="43.57642" lon="1.46601">
        <ele>134</ele>
        <time>2017-03-02T10:20:16Z</time>
      </trkpt>
      <trkpt lat="43.57634" lon="1.46606">
        <ele>134.1</ele>
        <time>2017-03-02T10:20:18Z</time>
      </trkpt>
      <trkpt lat="43.57627" lon="1.46612">
        <ele>133.9</ele>
        <time>2017-03-02T10:20:20Z</time>
      </trkpt>
      <trkpt lat="43.5762" lon="1.46618">
        <ele>134</ele>
        <time>2017-03-02T10:20:22Z</time>
      </trkpt>
      <trkpt lat="43.57613" lon="1.46626">
        <ele>134.1</ele>
        <time>2017-03-02T10:20:24Z</time>
      </trkpt>
      <trkpt lat="43.57605" lon="1.46634">
        <ele>133.9</ele>
        <time>2017-03-02T10:20:26Z</time>
      </trkpt>
      <trkpt lat="43.57597" lon="1.46641">
        <ele>133.6</ele>
        <time>2017-03-02T10:20:28Z</time>
      </trkpt>
      <trkpt lat="43.57589" lon="1.46649">
        <ele>133.7</ele>
        <time>2017-03-02T10:20:30Z</time>
      </trkpt>
      <trkpt lat="43.57583" lon="1.46658">
        <ele>133.9</ele>
        <time>2017-03-02T10:20:32Z</time>
      </trkpt>
      <trkpt lat="43.57575" lon="1.46666">
        <ele>134.1</ele>
        <time>2017-03-02T10:20:34Z</time>
      </trkpt>
      <trkpt lat="43.57568" lon="1.46676">
        <ele>134.3</ele>
        <time>2017-03-02T10:20:36Z</time>
      </trkpt>
      <trkpt lat="43.57561" lon="1.46686">
        <ele>134.4</ele>
        <time>2017-03-02T10:20:38Z</time>
      </trkpt>
      <trkpt lat="43.57554" lon="1.46695">
        <ele>134.2</ele>
        <time>2017-03-02T10:20:40Z</time>
      </trkpt>
      <trkpt lat="43.57548" lon="1.46703">
        <ele>134.1</ele>
        <time>2017-03-02T10:20:42Z</time>
      </trkpt>
      <trkpt lat="43.57543" lon="1.46713">
        <ele>133.8</ele>
        <time>2017-03-02T10:20:44Z</time>
      </trkpt>
      <trkpt lat="43.57538" lon="1.46723">
        <ele>133.8</ele>
        <time>2017-03-02T10:20:46Z</time>
      </trkpt>
      <trkpt lat="43.57533" lon="1.46733">
        <ele>133.8</ele>
        <time>2017-03-02T10:20:48Z</time>
      </trkpt>
      <trkpt lat="43.5753" lon="1.46743">
        <ele>134</ele>
        <time>2017-03-02T10:20:50Z</time>
      </trkpt>
      <trkpt lat="43.57529" lon="1.46753">
        <ele>133.8</ele>
        <time>2017-03-02T10:20:52Z</time>
      </trkpt>
      <trkpt lat="43.57523" lon="1.46764">
        <ele>133.9</ele>
        <time>2017-03-02T10:20:54Z</time>
      </trkpt>
      <trkpt lat="43.57518" lon="1.46775">
        <ele>134.1</ele>
        <time>2017-03-02T10:20:56Z</time>
      </trkpt>
      <trkpt lat="43.57512" lon="1.46784">
        <ele>133.9</ele>
        <time>2017-03-02T10:20:58Z</time>
      </trkpt>
      <trkpt lat="43.57506" lon="1.46793">
        <ele>133.9</ele>
        <time>2017-03-02T10:21:00Z</time>
      </trkpt>
      <trkpt lat="43.57501" lon="1.46803">
        <ele>134</ele>
        <time>2017-03-02T10:21:02Z</time>
      </trkpt>
      <trkpt lat="43.57495" lon="1.46811">
        <ele>134</ele>
        <time>2017-03-02T10:21:04Z</time>
      </trkpt>
      <trkpt lat="43.57489" lon="1.46821">
        <ele>134</ele>
        <time>2017-03-02T10:21:06Z</time>
      </trkpt>
      <trkpt lat="43.57483" lon="1.46833">
        <ele>133.7</ele>
        <time>2017-03-02T10:21:08Z</time>
      </trkpt>
      <trkpt lat="43.57476" lon="1.46845">
        <ele>133.4</ele>
        <time>2017-03-02T10:21:10Z</time>
      </trkpt>
      <trkpt lat="43.5747" lon="1.46855">
        <ele>132.8</ele>
        <time>2017-03-02T10:21:12Z</time>
      </trkpt>
      <trkpt lat="43.57465" lon="1.46866">
        <ele>132.4</ele>
        <time>2017-03-02T10:21:14Z</time>
      </trkpt>
      <trkpt lat="43.5746" lon="1.46881">
        <ele>131.4</ele>
        <time>2017-03-02T10:21:16Z</time>
      </trkpt>
      <trkpt lat="43.57449" lon="1.46895">
        <ele>131.1</ele>
        <time>2017-03-02T10:21:18Z</time>
      </trkpt>
      <trkpt lat="43.57443" lon="1.469">
        <ele>131.2</ele>
        <time>2017-03-02T10:21:19Z</time>
      </trkpt>
      <trkpt lat="43.57432" lon="1.4691">
        <ele>131.5</ele>
        <time>2017-03-02T10:21:21Z</time>
      </trkpt>
      <trkpt lat="43.57421" lon="1.46918">
        <ele>131.6</ele>
        <time>2017-03-02T10:21:23Z</time>
      </trkpt>
      <trkpt lat="43.57412" lon="1.46925">
        <ele>131.5</ele>
        <time>2017-03-02T10:21:25Z</time>
      </trkpt>
      <trkpt lat="43.57401" lon="1.46929">
        <ele>131.5</ele>
        <time>2017-03-02T10:21:27Z</time>
      </trkpt>
      <trkpt lat="43.57392" lon="1.46929">
        <ele>131.6</ele>
        <time>2017-03-02T10:21:29Z</time>
      </trkpt>
      <trkpt lat="43.57383" lon="1.46933">
        <ele>131.8</ele>
        <time>2017-03-02T10:21:32Z</time>
      </trkpt>
      <trkpt lat="43.57376" lon="1.46937">
        <ele>131.9</ele>
        <time>2017-03-02T10:21:34Z</time>
      </trkpt>
      <trkpt lat="43.57369" lon="1.4694">
        <ele>132.1</ele>
        <time>2017-03-02T10:21:36Z</time>
      </trkpt>
      <trkpt lat="43.57361" lon="1.46945">
        <ele>132.1</ele>
        <time>2017-03-02T10:21:38Z</time>
      </trkpt>
      <trkpt lat="43.57353" lon="1.4695">
        <ele>132</ele>
        <time>2017-03-02T10:21:40Z</time>
      </trkpt>
      <trkpt lat="43.57344" lon="1.46954">
        <ele>131.6</ele>
        <time>2017-03-02T10:21:42Z</time>
      </trkpt>
      <trkpt lat="43.57335" lon="1.46956">
        <ele>131.5</ele>
        <time>2017-03-02T10:21:44Z</time>
      </trkpt>
      <trkpt lat="43.57325" lon="1.46959">
        <ele>131.8</ele>
        <time>2017-03-02T10:21:46Z</time>
      </trkpt>
      <trkpt lat="43.57317" lon="1.46962">
        <ele>132.1</ele>
        <time>2017-03-02T10:21:48Z</time>
      </trkpt>
      <trkpt lat="43.57309" lon="1.46965">
        <ele>132.2</ele>
        <time>2017-03-02T10:21:50Z</time>
      </trkpt>
      <trkpt lat="43.57301" lon="1.46969">
        <ele>132.5</ele>
        <time>2017-03-02T10:21:52Z</time>
      </trkpt>
      <trkpt lat="43.57293" lon="1.46973">
        <ele>132.4</ele>
        <time>2017-03-02T10:21:54Z</time>
      </trkpt>
      <trkpt lat="43.57284" lon="1.46976">
        <ele>132.4</ele>
        <time>2017-03-02T10:21:56Z</time>
      </trkpt>
      <trkpt lat="43.57275" lon="1.46979">
        <ele>132.3</ele>
        <time>2017-03-02T10:21:58Z</time>
      </trkpt>
      <trkpt lat="43.57265" lon="1.46981">
        <ele>132.4</ele>
        <time>2017-03-02T10:22:00Z</time>
      </trkpt>
      <trkpt lat="43.57257" lon="1.46983">
        <ele>132.3</ele>
        <time>2017-03-02T10:22:02Z</time>
      </trkpt>
      <trkpt lat="43.57249" lon="1.46985">
        <ele>132.4</ele>
        <time>2017-03-02T10:22:04Z</time>
      </trkpt>
      <trkpt lat="43.57238" lon="1.46987">
        <ele>132.3</ele>
        <time>2017-03-02T10:22:06Z</time>
      </trkpt>
      <trkpt lat="43.57229" lon="1.46987">
        <ele>132.3</ele>
        <time>2017-03-02T10:22:08Z</time>
      </trkpt>
      <trkpt lat="43.5722" lon="1.46988">
        <ele>132.2</ele>
        <time>2017-03-02T10:22:10Z</time>
      </trkpt>
      <trkpt lat="43.5721" lon="1.46989">
        <ele>132.5</ele>
        <time>2017-03-02T10:22:12Z</time>
      </trkpt>
      <trkpt lat="43.572" lon="1.46989">
        <ele>132.9</ele>
        <time>2017-03-02T10:22:14Z</time>
      </trkpt>
      <trkpt lat="43.5719" lon="1.46989">
        <ele>133.2</ele>
        <time>2017-03-02T10:22:16Z</time>
      </trkpt>
      <trkpt lat="43.5718" lon="1.46989">
        <ele>133.2</ele>
        <time>2017-03-02T10:22:18Z</time>
      </trkpt>
      <trkpt lat="43.57171" lon="1.46989">
        <ele>133.1</ele>
        <time>2017-03-02T10:22:20Z</time>
      </trkpt>
      <trkpt lat="43.57161" lon="1.46989">
        <ele>133.2</ele>
        <time>2017-03-02T10:22:22Z</time>
      </trkpt>
      <trkpt lat="43.57151" lon="1.46989">
        <ele>133.5</ele>
        <time>2017-03-02T10:22:24Z</time>
      </trkpt>
      <trkpt lat="43.57143" lon="1.46989">
        <ele>133.5</ele>
        <time>2017-03-02T10:22:26Z</time>
      </trkpt>
      <trkpt lat="43.57132" lon="1.46989">
        <ele>133.5</ele>
        <time>2017-03-02T10:22:28Z</time>
      </trkpt>
      <trkpt lat="43.57122" lon="1.46988">
        <ele>133.3</ele>
        <time>2017-03-02T10:22:30Z</time>
      </trkpt>
      <trkpt lat="43.57112" lon="1.46989">
        <ele>133.5</ele>
        <time>2017-03-02T10:22:32Z</time>
      </trkpt>
      <trkpt lat="43.57102" lon="1.4699">
        <ele>133.4</ele>
        <time>2017-03-02T10:22:34Z</time>
      </trkpt>
      <trkpt lat="43.57094" lon="1.46991">
        <ele>133.3</ele>
        <time>2017-03-02T10:22:36Z</time>
      </trkpt>
      <trkpt lat="43.57084" lon="1.4699">
        <ele>133.4</ele>
        <time>2017-03-02T10:22:38Z</time>
      </trkpt>
      <trkpt lat="43.57075" lon="1.46993">
        <ele>133.2</ele>
        <time>2017-03-02T10:22:40Z</time>
      </trkpt>
      <trkpt lat="43.57064" lon="1.46996">
        <ele>133.5</ele>
        <time>2017-03-02T10:22:42Z</time>
      </trkpt>
      <trkpt lat="43.57053" lon="1.46999">
        <ele>134.1</ele>
        <time>2017-03-02T10:22:44Z</time>
      </trkpt>
      <trkpt lat="43.57043" lon="1.47001">
        <ele>134.3</ele>
        <time>2017-03-02T10:22:46Z</time>
      </trkpt>
      <trkpt lat="43.57036" lon="1.47003">
        <ele>134.1</ele>
        <time>2017-03-02T10:22:48Z</time>
      </trkpt>
      <trkpt lat="43.57028" lon="1.47003">
        <ele>134.4</ele>
        <time>2017-03-02T10:22:50Z</time>
      </trkpt>
      <trkpt lat="43.57021" lon="1.47008">
        <ele>134</ele>
        <time>2017-03-02T10:22:54Z</time>
      </trkpt>
      <trkpt lat="43.57022" lon="1.47021">
        <ele>133.2</ele>
        <time>2017-03-02T10:22:58Z</time>
      </trkpt>
      <trkpt lat="43.57027" lon="1.47033">
        <ele>132.6</ele>
        <time>2017-03-02T10:23:01Z</time>
      </trkpt>
      <trkpt lat="43.57021" lon="1.47045">
        <ele>131.4</ele>
        <time>2017-03-02T10:23:05Z</time>
      </trkpt>
      <trkpt lat="43.57011" lon="1.4705">
        <ele>131.1</ele>
        <time>2017-03-02T10:23:07Z</time>
      </trkpt>
      <trkpt lat="43.57002" lon="1.47054">
        <ele>130.8</ele>
        <time>2017-03-02T10:23:09Z</time>
      </trkpt>
      <trkpt lat="43.56993" lon="1.47059">
        <ele>130.5</ele>
        <time>2017-03-02T10:23:11Z</time>
      </trkpt>
      <trkpt lat="43.56983" lon="1.47064">
        <ele>130.2</ele>
        <time>2017-03-02T10:23:13Z</time>
      </trkpt>
      <trkpt lat="43.56977" lon="1.47069">
        <ele>130.4</ele>
        <time>2017-03-02T10:23:14Z</time>
      </trkpt>
      <trkpt lat="43.56967" lon="1.47078">
        <ele>130.6</ele>
        <time>2017-03-02T10:23:16Z</time>
      </trkpt>
      <trkpt lat="43.56958" lon="1.47084">
        <ele>130.4</ele>
        <time>2017-03-02T10:23:18Z</time>
      </trkpt>
      <trkpt lat="43.56951" lon="1.47091">
        <ele>130.6</ele>
        <time>2017-03-02T10:23:20Z</time>
      </trkpt>
      <trkpt lat="43.56942" lon="1.47097">
        <ele>130.7</ele>
        <time>2017-03-02T10:23:22Z</time>
      </trkpt>
      <trkpt lat="43.56935" lon="1.47104">
        <ele>130.8</ele>
        <time>2017-03-02T10:23:24Z</time>
      </trkpt>
      <trkpt lat="43.56926" lon="1.47111">
        <ele>131.2</ele>
        <time>2017-03-02T10:23:26Z</time>
      </trkpt>
      <trkpt lat="43.56919" lon="1.47119">
        <ele>131.5</ele>
        <time>2017-03-02T10:23:28Z</time>
      </trkpt>
      <trkpt lat="43.5691" lon="1.47126">
        <ele>131.7</ele>
        <time>2017-03-02T10:23:30Z</time>
      </trkpt>
      <trkpt lat="43.56902" lon="1.47133">
        <ele>131.6</ele>
        <time>2017-03-02T10:23:32Z</time>
      </trkpt>
      <trkpt lat="43.56892" lon="1.47141">
        <ele>132</ele>
        <time>2017-03-02T10:23:34Z</time>
      </trkpt>
      <trkpt lat="43.56882" lon="1.47149">
        <ele>132.2</ele>
        <time>2017-03-02T10:23:36Z</time>
      </trkpt>
      <trkpt lat="43.56872" lon="1.47159">
        <ele>133</ele>
        <time>2017-03-02T10:23:38Z</time>
      </trkpt>
      <trkpt lat="43.56861" lon="1.47165">
        <ele>133.6</ele>
        <time>2017-03-02T10:23:40Z</time>
      </trkpt>
      <trkpt lat="43.5685" lon="1.47167">
        <ele>134.4</ele>
        <time>2017-03-02T10:23:42Z</time>
      </trkpt>
      <trkpt lat="43.56839" lon="1.47168">
        <ele>134.9</ele>
        <time>2017-03-02T10:23:44Z</time>
      </trkpt>
      <trkpt lat="43.5683" lon="1.4717">
        <ele>135.3</ele>
        <time>2017-03-02T10:23:46Z</time>
      </trkpt>
      <trkpt lat="43.56819" lon="1.47171">
        <ele>135.7</ele>
        <time>2017-03-02T10:23:48Z</time>
      </trkpt>
      <trkpt lat="43.5681" lon="1.47173">
        <ele>136.1</ele>
        <time>2017-03-02T10:23:50Z</time>
      </trkpt>
      <trkpt lat="43.56799" lon="1.47174">
        <ele>136.8</ele>
        <time>2017-03-02T10:23:52Z</time>
      </trkpt>
      <trkpt lat="43.56788" lon="1.47175">
        <ele>137.1</ele>
        <time>2017-03-02T10:23:54Z</time>
      </trkpt>
      <trkpt lat="43.56779" lon="1.47176">
        <ele>137.1</ele>
        <time>2017-03-02T10:23:56Z</time>
      </trkpt>
      <trkpt lat="43.56768" lon="1.47176">
        <ele>137.1</ele>
        <time>2017-03-02T10:23:58Z</time>
      </trkpt>
      <trkpt lat="43.56758" lon="1.47176">
        <ele>137.1</ele>
        <time>2017-03-02T10:24:00Z</time>
      </trkpt>
      <trkpt lat="43.56746" lon="1.47177">
        <ele>137.1</ele>
        <time>2017-03-02T10:24:02Z</time>
      </trkpt>
      <trkpt lat="43.56735" lon="1.47177">
        <ele>136.9</ele>
        <time>2017-03-02T10:24:04Z</time>
      </trkpt>
      <trkpt lat="43.56724" lon="1.47177">
        <ele>136.9</ele>
        <time>2017-03-02T10:24:06Z</time>
      </trkpt>
      <trkpt lat="43.56714" lon="1.47178">
        <ele>137</ele>
        <time>2017-03-02T10:24:08Z</time>
      </trkpt>
      <trkpt lat="43.56703" lon="1.47178">
        <ele>137.4</ele>
        <time>2017-03-02T10:24:10Z</time>
      </trkpt>
      <trkpt lat="43.56694" lon="1.4718">
        <ele>137.6</ele>
        <time>2017-03-02T10:24:12Z</time>
      </trkpt>
      <trkpt lat="43.56684" lon="1.47182">
        <ele>137.8</ele>
        <time>2017-03-02T10:24:14Z</time>
      </trkpt>
      <trkpt lat="43.56674" lon="1.47181">
        <ele>138.1</ele>
        <time>2017-03-02T10:24:16Z</time>
      </trkpt>
      <trkpt lat="43.56664" lon="1.47181">
        <ele>138.3</ele>
        <time>2017-03-02T10:24:18Z</time>
      </trkpt>
      <trkpt lat="43.56654" lon="1.47182">
        <ele>138.5</ele>
        <time>2017-03-02T10:24:20Z</time>
      </trkpt>
      <trkpt lat="43.56645" lon="1.47183">
        <ele>138.6</ele>
        <time>2017-03-02T10:24:22Z</time>
      </trkpt>
      <trkpt lat="43.56634" lon="1.47184">
        <ele>138.6</ele>
        <time>2017-03-02T10:24:24Z</time>
      </trkpt>
      <trkpt lat="43.56624" lon="1.47185">
        <ele>138.7</ele>
        <time>2017-03-02T10:24:26Z</time>
      </trkpt>
      <trkpt lat="43.56613" lon="1.47187">
        <ele>138.7</ele>
        <time>2017-03-02T10:24:28Z</time>
      </trkpt>
      <trkpt lat="43.56603" lon="1.47186">
        <ele>138.5</ele>
        <time>2017-03-02T10:24:30Z</time>
      </trkpt>
      <trkpt lat="43.56593" lon="1.47185">
        <ele>138.2</ele>
        <time>2017-03-02T10:24:32Z</time>
      </trkpt>
      <trkpt lat="43.56584" lon="1.47184">
        <ele>138.2</ele>
        <time>2017-03-02T10:24:34Z</time>
      </trkpt>
      <trkpt lat="43.56576" lon="1.47184">
        <ele>138</ele>
        <time>2017-03-02T10:24:36Z</time>
      </trkpt>
      <trkpt lat="43.56567" lon="1.47182">
        <ele>137.8</ele>
        <time>2017-03-02T10:24:38Z</time>
      </trkpt>
      <trkpt lat="43.56559" lon="1.47175">
        <ele>138.5</ele>
        <time>2017-03-02T10:24:40Z</time>
      </trkpt>
      <trkpt lat="43.56552" lon="1.4717">
        <ele>138.6</ele>
        <time>2017-03-02T10:24:42Z</time>
      </trkpt>
      <trkpt lat="43.5654" lon="1.47165">
        <ele>138.3</ele>
        <time>2017-03-02T10:24:45Z</time>
      </trkpt>
      <trkpt lat="43.56533" lon="1.47164">
        <ele>138.4</ele>
        <time>2017-03-02T10:24:47Z</time>
      </trkpt>
      <trkpt lat="43.56524" lon="1.47167">
        <ele>138.8</ele>
        <time>2017-03-02T10:24:49Z</time>
      </trkpt>
      <trkpt lat="43.56515" lon="1.4717">
        <ele>138.7</ele>
        <time>2017-03-02T10:24:51Z</time>
      </trkpt>
      <trkpt lat="43.56505" lon="1.4717">
        <ele>138.6</ele>
        <time>2017-03-02T10:24:53Z</time>
      </trkpt>
      <trkpt lat="43.56496" lon="1.47169">
        <ele>138.5</ele>
        <time>2017-03-02T10:24:55Z</time>
      </trkpt>
      <trkpt lat="43.56487" lon="1.47168">
        <ele>138.3</ele>
        <time>2017-03-02T10:24:57Z</time>
      </trkpt>
      <trkpt lat="43.56478" lon="1.47168">
        <ele>138.3</ele>
        <time>2017-03-02T10:24:59Z</time>
      </trkpt>
      <trkpt lat="43.56468" lon="1.47167">
        <ele>138.3</ele>
        <time>2017-03-02T10:25:01Z</time>
      </trkpt>
      <trkpt lat="43.56459" lon="1.47166">
        <ele>138.4</ele>
        <time>2017-03-02T10:25:03Z</time>
      </trkpt>
      <trkpt lat="43.5645" lon="1.47165">
        <ele>138.5</ele>
        <time>2017-03-02T10:25:05Z</time>
      </trkpt>
      <trkpt lat="43.5644" lon="1.47166">
        <ele>138.7</ele>
        <time>2017-03-02T10:25:07Z</time>
      </trkpt>
      <trkpt lat="43.56431" lon="1.47167">
        <ele>138.9</ele>
        <time>2017-03-02T10:25:09Z</time>
      </trkpt>
      <trkpt lat="43.56423" lon="1.47167">
        <ele>139.2</ele>
        <time>2017-03-02T10:25:11Z</time>
      </trkpt>
      <trkpt lat="43.56413" lon="1.47169">
        <ele>139.4</ele>
        <time>2017-03-02T10:25:13Z</time>
      </trkpt>
      <trkpt lat="43.56404" lon="1.4717">
        <ele>139.6</ele>
        <time>2017-03-02T10:25:15Z</time>
      </trkpt>
      <trkpt lat="43.56395" lon="1.47173">
        <ele>139.7</ele>
        <time>2017-03-02T10:25:17Z</time>
      </trkpt>
      <trkpt lat="43.56385" lon="1.47177">
        <ele>139.8</ele>
        <time>2017-03-02T10:25:19Z</time>
      </trkpt>
      <trkpt lat="43.56376" lon="1.47181">
        <ele>140</ele>
        <time>2017-03-02T10:25:21Z</time>
      </trkpt>
      <trkpt lat="43.56366" lon="1.47184">
        <ele>140</ele>
        <time>2017-03-02T10:25:23Z</time>
      </trkpt>
      <trkpt lat="43.56358" lon="1.47188">
        <ele>140</ele>
        <time>2017-03-02T10:25:25Z</time>
      </trkpt>
      <trkpt lat="43.56351" lon="1.47192">
        <ele>140.4</ele>
        <time>2017-03-02T10:25:27Z</time>
      </trkpt>
      <trkpt lat="43.56345" lon="1.47197">
        <ele>140.5</ele>
        <time>2017-03-02T10:25:29Z</time>
      </trkpt>
      <trkpt lat="43.56338" lon="1.47201">
        <ele>140.8</ele>
        <time>2017-03-02T10:25:32Z</time>
      </trkpt>
      <trkpt lat="43.56331" lon="1.47209">
        <ele>140.8</ele>
        <time>2017-03-02T10:25:33Z</time>
      </trkpt>
      <trkpt lat="43.56325" lon="1.47215">
        <ele>140.7</ele>
        <time>2017-03-02T10:25:35Z</time>
      </trkpt>
      <trkpt lat="43.56317" lon="1.47225">
        <ele>140.5</ele>
        <time>2017-03-02T10:25:37Z</time>
      </trkpt>
      <trkpt lat="43.56311" lon="1.47232">
        <ele>139.9</ele>
        <time>2017-03-02T10:25:39Z</time>
      </trkpt>
      <trkpt lat="43.56304" lon="1.4724">
        <ele>139.3</ele>
        <time>2017-03-02T10:25:41Z</time>
      </trkpt>
      <trkpt lat="43.56296" lon="1.4725">
        <ele>139.2</ele>
        <time>2017-03-02T10:25:43Z</time>
      </trkpt>
      <trkpt lat="43.56288" lon="1.47259">
        <ele>138.7</ele>
        <time>2017-03-02T10:25:45Z</time>
      </trkpt>
      <trkpt lat="43.56282" lon="1.47267">
        <ele>138.3</ele>
        <time>2017-03-02T10:25:47Z</time>
      </trkpt>
      <trkpt lat="43.56275" lon="1.47275">
        <ele>137.7</ele>
        <time>2017-03-02T10:25:49Z</time>
      </trkpt>
      <trkpt lat="43.56269" lon="1.47284">
        <ele>137.3</ele>
        <time>2017-03-02T10:25:51Z</time>
      </trkpt>
      <trkpt lat="43.56262" lon="1.47293">
        <ele>136.4</ele>
        <time>2017-03-02T10:25:53Z</time>
      </trkpt>
      <trkpt lat="43.56254" lon="1.47303">
        <ele>136.4</ele>
        <time>2017-03-02T10:25:55Z</time>
      </trkpt>
      <trkpt lat="43.56247" lon="1.47313">
        <ele>136.1</ele>
        <time>2017-03-02T10:25:57Z</time>
      </trkpt>
      <trkpt lat="43.5624" lon="1.47321">
        <ele>135.5</ele>
        <time>2017-03-02T10:25:59Z</time>
      </trkpt>
      <trkpt lat="43.56234" lon="1.4733">
        <ele>135.2</ele>
        <time>2017-03-02T10:26:01Z</time>
      </trkpt>
      <trkpt lat="43.56227" lon="1.47338">
        <ele>134.9</ele>
        <time>2017-03-02T10:26:03Z</time>
      </trkpt>
      <trkpt lat="43.56219" lon="1.47348">
        <ele>134.5</ele>
        <time>2017-03-02T10:26:05Z</time>
      </trkpt>
      <trkpt lat="43.56213" lon="1.47356">
        <ele>133.6</ele>
        <time>2017-03-02T10:26:07Z</time>
      </trkpt>
      <trkpt lat="43.56207" lon="1.47363">
        <ele>133.1</ele>
        <time>2017-03-02T10:26:09Z</time>
      </trkpt>
      <trkpt lat="43.56201" lon="1.47371">
        <ele>132.8</ele>
        <time>2017-03-02T10:26:11Z</time>
      </trkpt>
      <trkpt lat="43.56195" lon="1.47379">
        <ele>132.4</ele>
        <time>2017-03-02T10:26:13Z</time>
      </trkpt>
      <trkpt lat="43.5619" lon="1.47386">
        <ele>131.9</ele>
        <time>2017-03-02T10:26:15Z</time>
      </trkpt>
      <trkpt lat="43.56182" lon="1.47394">
        <ele>130.6</ele>
        <time>2017-03-02T10:26:17Z</time>
      </trkpt>
      <trkpt lat="43.56178" lon="1.47404">
        <ele>129.8</ele>
        <time>2017-03-02T10:26:19Z</time>
      </trkpt>
      <trkpt lat="43.56172" lon="1.47413">
        <ele>129</ele>
        <time>2017-03-02T10:26:21Z</time>
      </trkpt>
      <trkpt lat="43.56163" lon="1.47422">
        <ele>128</ele>
        <time>2017-03-02T10:26:23Z</time>
      </trkpt>
      <trkpt lat="43.56158" lon="1.47429">
        <ele>127.2</ele>
        <time>2017-03-02T10:26:25Z</time>
      </trkpt>
      <trkpt lat="43.56152" lon="1.47438">
        <ele>126.6</ele>
        <time>2017-03-02T10:26:27Z</time>
      </trkpt>
      <trkpt lat="43.56146" lon="1.47446">
        <ele>125.8</ele>
        <time>2017-03-02T10:26:29Z</time>
      </trkpt>
      <trkpt lat="43.56141" lon="1.47455">
        <ele>125.3</ele>
        <time>2017-03-02T10:26:31Z</time>
      </trkpt>
      <trkpt lat="43.56136" lon="1.47462">
        <ele>124.5</ele>
        <time>2017-03-02T10:26:33Z</time>
      </trkpt>
      <trkpt lat="43.5613" lon="1.47474">
        <ele>124.2</ele>
        <time>2017-03-02T10:26:35Z</time>
      </trkpt>
      <trkpt lat="43.56124" lon="1.47485">
        <ele>123.9</ele>
        <time>2017-03-02T10:26:37Z</time>
      </trkpt>
      <trkpt lat="43.56116" lon="1.47495">
        <ele>123.5</ele>
        <time>2017-03-02T10:26:39Z</time>
      </trkpt>
      <trkpt lat="43.56109" lon="1.47502">
        <ele>122.5</ele>
        <time>2017-03-02T10:26:41Z</time>
      </trkpt>
      <trkpt lat="43.56103" lon="1.4751">
        <ele>121.7</ele>
        <time>2017-03-02T10:26:43Z</time>
      </trkpt>
      <trkpt lat="43.56095" lon="1.47519">
        <ele>120.9</ele>
        <time>2017-03-02T10:26:45Z</time>
      </trkpt>
      <trkpt lat="43.56089" lon="1.47528">
        <ele>120.2</ele>
        <time>2017-03-02T10:26:47Z</time>
      </trkpt>
      <trkpt lat="43.56082" lon="1.47538">
        <ele>119.9</ele>
        <time>2017-03-02T10:26:49Z</time>
      </trkpt>
      <trkpt lat="43.56074" lon="1.47548">
        <ele>119.6</ele>
        <time>2017-03-02T10:26:51Z</time>
      </trkpt>
      <trkpt lat="43.56066" lon="1.47557">
        <ele>118.7</ele>
        <time>2017-03-02T10:26:53Z</time>
      </trkpt>
      <trkpt lat="43.56059" lon="1.47564">
        <ele>118.1</ele>
        <time>2017-03-02T10:26:55Z</time>
      </trkpt>
      <trkpt lat="43.5605" lon="1.47572">
        <ele>117.2</ele>
        <time>2017-03-02T10:26:57Z</time>
      </trkpt>
      <trkpt lat="43.56041" lon="1.47579">
        <ele>116.7</ele>
        <time>2017-03-02T10:26:59Z</time>
      </trkpt>
      <trkpt lat="43.56033" lon="1.47588">
        <ele>116.3</ele>
        <time>2017-03-02T10:27:01Z</time>
      </trkpt>
      <trkpt lat="43.56025" lon="1.47598">
        <ele>116</ele>
        <time>2017-03-02T10:27:03Z</time>
      </trkpt>
      <trkpt lat="43.56018" lon="1.47606">
        <ele>115.4</ele>
        <time>2017-03-02T10:27:05Z</time>
      </trkpt>
      <trkpt lat="43.56011" lon="1.47616">
        <ele>115</ele>
        <time>2017-03-02T10:27:07Z</time>
      </trkpt>
      <trkpt lat="43.56004" lon="1.47626">
        <ele>114.9</ele>
        <time>2017-03-02T10:27:09Z</time>
      </trkpt>
      <trkpt lat="43.55997" lon="1.47635">
        <ele>114.4</ele>
        <time>2017-03-02T10:27:11Z</time>
      </trkpt>
      <trkpt lat="43.55987" lon="1.47645">
        <ele>113.9</ele>
        <time>2017-03-02T10:27:13Z</time>
      </trkpt>
      <trkpt lat="43.5598" lon="1.47655">
        <ele>113.7</ele>
        <time>2017-03-02T10:27:15Z</time>
      </trkpt>
      <trkpt lat="43.55976" lon="1.47663">
        <ele>113.5</ele>
        <time>2017-03-02T10:27:17Z</time>
      </trkpt>
      <trkpt lat="43.5597" lon="1.47672">
        <ele>113.1</ele>
        <time>2017-03-02T10:27:19Z</time>
      </trkpt>
      <trkpt lat="43.55962" lon="1.47681">
        <ele>113.1</ele>
        <time>2017-03-02T10:27:21Z</time>
      </trkpt>
      <trkpt lat="43.55954" lon="1.47691">
        <ele>113.2</ele>
        <time>2017-03-02T10:27:23Z</time>
      </trkpt>
      <trkpt lat="43.55946" lon="1.47701">
        <ele>113</ele>
        <time>2017-03-02T10:27:25Z</time>
      </trkpt>
      <trkpt lat="43.55939" lon="1.4771">
        <ele>112.6</ele>
        <time>2017-03-02T10:27:27Z</time>
      </trkpt>
      <trkpt lat="43.55933" lon="1.47719">
        <ele>112.4</ele>
        <time>2017-03-02T10:27:29Z</time>
      </trkpt>
      <trkpt lat="43.55926" lon="1.47728">
        <ele>112</ele>
        <time>2017-03-02T10:27:31Z</time>
      </trkpt>
      <trkpt lat="43.55917" lon="1.47737">
        <ele>111.6</ele>
        <time>2017-03-02T10:27:33Z</time>
      </trkpt>
      <trkpt lat="43.5591" lon="1.47747">
        <ele>111</ele>
        <time>2017-03-02T10:27:35Z</time>
      </trkpt>
      <trkpt lat="43.55902" lon="1.47756">
        <ele>110.9</ele>
        <time>2017-03-02T10:27:37Z</time>
      </trkpt>
      <trkpt lat="43.55896" lon="1.47766">
        <ele>110.8</ele>
        <time>2017-03-02T10:27:39Z</time>
      </trkpt>
      <trkpt lat="43.55889" lon="1.47775">
        <ele>110.6</ele>
        <time>2017-03-02T10:27:41Z</time>
      </trkpt>
      <trkpt lat="43.55881" lon="1.47785">
        <ele>110.3</ele>
        <time>2017-03-02T10:27:43Z</time>
      </trkpt>
      <trkpt lat="43.55874" lon="1.47793">
        <ele>110.2</ele>
        <time>2017-03-02T10:27:45Z</time>
      </trkpt>
      <trkpt lat="43.55866" lon="1.47805">
        <ele>110.8</ele>
        <time>2017-03-02T10:27:47Z</time>
      </trkpt>
      <trkpt lat="43.55859" lon="1.47815">
        <ele>111.3</ele>
        <time>2017-03-02T10:27:49Z</time>
      </trkpt>
      <trkpt lat="43.55852" lon="1.47825">
        <ele>111.1</ele>
        <time>2017-03-02T10:27:51Z</time>
      </trkpt>
      <trkpt lat="43.55846" lon="1.47834">
        <ele>111</ele>
        <time>2017-03-02T10:27:53Z</time>
      </trkpt>
      <trkpt lat="43.5584" lon="1.47844">
        <ele>110.7</ele>
        <time>2017-03-02T10:27:55Z</time>
      </trkpt>
      <trkpt lat="43.55835" lon="1.47855">
        <ele>110.5</ele>
        <time>2017-03-02T10:27:57Z</time>
      </trkpt>
      <trkpt lat="43.55828" lon="1.47867">
        <ele>110.5</ele>
        <time>2017-03-02T10:27:59Z</time>
      </trkpt>
      <trkpt lat="43.55821" lon="1.47877">
        <ele>110.1</ele>
        <time>2017-03-02T10:28:01Z</time>
      </trkpt>
      <trkpt lat="43.55815" lon="1.47887">
        <ele>110.2</ele>
        <time>2017-03-02T10:28:03Z</time>
      </trkpt>
      <trkpt lat="43.55809" lon="1.47899">
        <ele>110.5</ele>
        <time>2017-03-02T10:28:05Z</time>
      </trkpt>
      <trkpt lat="43.55802" lon="1.4791">
        <ele>110.9</ele>
        <time>2017-03-02T10:28:07Z</time>
      </trkpt>
      <trkpt lat="43.55794" lon="1.4792">
        <ele>111.6</ele>
        <time>2017-03-02T10:28:09Z</time>
      </trkpt>
      <trkpt lat="43.55788" lon="1.47929">
        <ele>111.8</ele>
        <time>2017-03-02T10:28:11Z</time>
      </trkpt>
      <trkpt lat="43.55782" lon="1.47937">
        <ele>112.1</ele>
        <time>2017-03-02T10:28:13Z</time>
      </trkpt>
      <trkpt lat="43.55774" lon="1.47945">
        <ele>112.8</ele>
        <time>2017-03-02T10:28:15Z</time>
      </trkpt>
      <trkpt lat="43.55767" lon="1.47953">
        <ele>112.8</ele>
        <time>2017-03-02T10:28:17Z</time>
      </trkpt>
      <trkpt lat="43.55758" lon="1.47961">
        <ele>113.2</ele>
        <time>2017-03-02T10:28:19Z</time>
      </trkpt>
      <trkpt lat="43.5575" lon="1.47968">
        <ele>113.5</ele>
        <time>2017-03-02T10:28:21Z</time>
      </trkpt>
      <trkpt lat="43.5574" lon="1.47976">
        <ele>114</ele>
        <time>2017-03-02T10:28:23Z</time>
      </trkpt>
      <trkpt lat="43.55731" lon="1.47984">
        <ele>114.7</ele>
        <time>2017-03-02T10:28:25Z</time>
      </trkpt>
      <trkpt lat="43.55719" lon="1.47991">
        <ele>114.9</ele>
        <time>2017-03-02T10:28:27Z</time>
      </trkpt>
      <trkpt lat="43.55707" lon="1.47999">
        <ele>115.2</ele>
        <time>2017-03-02T10:28:29Z</time>
      </trkpt>
      <trkpt lat="43.55696" lon="1.48006">
        <ele>115.6</ele>
        <time>2017-03-02T10:28:31Z</time>
      </trkpt>
      <trkpt lat="43.55688" lon="1.48012">
        <ele>116</ele>
        <time>2017-03-02T10:28:33Z</time>
      </trkpt>
      <trkpt lat="43.5568" lon="1.48018">
        <ele>116.5</ele>
        <time>2017-03-02T10:28:35Z</time>
      </trkpt>
      <trkpt lat="43.5567" lon="1.48025">
        <ele>117.1</ele>
        <time>2017-03-02T10:28:37Z</time>
      </trkpt>
      <trkpt lat="43.5566" lon="1.48032">
        <ele>117.4</ele>
        <time>2017-03-02T10:28:39Z</time>
      </trkpt>
      <trkpt lat="43.55652" lon="1.4804">
        <ele>118.1</ele>
        <time>2017-03-02T10:28:41Z</time>
      </trkpt>
      <trkpt lat="43.55643" lon="1.48048">
        <ele>118.6</ele>
        <time>2017-03-02T10:28:43Z</time>
      </trkpt>
      <trkpt lat="43.55634" lon="1.48055">
        <ele>119.5</ele>
        <time>2017-03-02T10:28:45Z</time>
      </trkpt>
      <trkpt lat="43.55622" lon="1.48061">
        <ele>120.7</ele>
        <time>2017-03-02T10:28:47Z</time>
      </trkpt>
      <trkpt lat="43.55615" lon="1.48066">
        <ele>121.6</ele>
        <time>2017-03-02T10:28:48Z</time>
      </trkpt>
      <trkpt lat="43.55605" lon="1.48071">
        <ele>122.4</ele>
        <time>2017-03-02T10:28:50Z</time>
      </trkpt>
      <trkpt lat="43.55592" lon="1.48078">
        <ele>123.5</ele>
        <time>2017-03-02T10:28:52Z</time>
      </trkpt>
      <trkpt lat="43.5558" lon="1.4808">
        <ele>124.6</ele>
        <time>2017-03-02T10:28:54Z</time>
      </trkpt>
      <trkpt lat="43.55569" lon="1.48082">
        <ele>125.5</ele>
        <time>2017-03-02T10:28:56Z</time>
      </trkpt>
      <trkpt lat="43.5556" lon="1.48084">
        <ele>126.3</ele>
        <time>2017-03-02T10:28:58Z</time>
      </trkpt>
      <trkpt lat="43.55551" lon="1.48088">
        <ele>127.1</ele>
        <time>2017-03-02T10:29:00Z</time>
      </trkpt>
      <trkpt lat="43.55541" lon="1.48091">
        <ele>127.8</ele>
        <time>2017-03-02T10:29:02Z</time>
      </trkpt>
      <trkpt lat="43.55533" lon="1.48095">
        <ele>128.2</ele>
        <time>2017-03-02T10:29:04Z</time>
      </trkpt>
      <trkpt lat="43.55524" lon="1.48097">
        <ele>128.6</ele>
        <time>2017-03-02T10:29:06Z</time>
      </trkpt>
      <trkpt lat="43.55516" lon="1.48101">
        <ele>129</ele>
        <time>2017-03-02T10:29:08Z</time>
      </trkpt>
      <trkpt lat="43.55506" lon="1.48106">
        <ele>129.8</ele>
        <time>2017-03-02T10:29:10Z</time>
      </trkpt>
      <trkpt lat="43.55496" lon="1.4811">
        <ele>130.3</ele>
        <time>2017-03-02T10:29:12Z</time>
      </trkpt>
      <trkpt lat="43.55486" lon="1.48115">
        <ele>131</ele>
        <time>2017-03-02T10:29:14Z</time>
      </trkpt>
      <trkpt lat="43.55476" lon="1.4812">
        <ele>131.6</ele>
        <time>2017-03-02T10:29:16Z</time>
      </trkpt>
      <trkpt lat="43.55467" lon="1.48121">
        <ele>132.2</ele>
        <time>2017-03-02T10:29:18Z</time>
      </trkpt>
      <trkpt lat="43.5546" lon="1.48122">
        <ele>132.9</ele>
        <time>2017-03-02T10:29:20Z</time>
      </trkpt>
      <trkpt lat="43.55451" lon="1.48123">
        <ele>133.5</ele>
        <time>2017-03-02T10:29:22Z</time>
      </trkpt>
      <trkpt lat="43.55442" lon="1.48124">
        <ele>134</ele>
        <time>2017-03-02T10:29:24Z</time>
      </trkpt>
      <trkpt lat="43.55433" lon="1.48126">
        <ele>134.4</ele>
        <time>2017-03-02T10:29:26Z</time>
      </trkpt>
      <trkpt lat="43.55424" lon="1.48126">
        <ele>134.8</ele>
        <time>2017-03-02T10:29:28Z</time>
      </trkpt>
      <trkpt lat="43.55413" lon="1.48126">
        <ele>135.1</ele>
        <time>2017-03-02T10:29:30Z</time>
      </trkpt>
      <trkpt lat="43.55404" lon="1.48126">
        <ele>135.4</ele>
        <time>2017-03-02T10:29:32Z</time>
      </trkpt>
      <trkpt lat="43.55395" lon="1.48126">
        <ele>136</ele>
        <time>2017-03-02T10:29:34Z</time>
      </trkpt>
      <trkpt lat="43.55387" lon="1.48126">
        <ele>136.5</ele>
        <time>2017-03-02T10:29:36Z</time>
      </trkpt>
      <trkpt lat="43.55379" lon="1.48126">
        <ele>137.1</ele>
        <time>2017-03-02T10:29:38Z</time>
      </trkpt>
      <trkpt lat="43.5537" lon="1.48127">
        <ele>137.5</ele>
        <time>2017-03-02T10:29:40Z</time>
      </trkpt>
      <trkpt lat="43.55361" lon="1.48129">
        <ele>137.9</ele>
        <time>2017-03-02T10:29:42Z</time>
      </trkpt>
      <trkpt lat="43.55351" lon="1.48131">
        <ele>138.3</ele>
        <time>2017-03-02T10:29:44Z</time>
      </trkpt>
      <trkpt lat="43.55343" lon="1.48133">
        <ele>138.6</ele>
        <time>2017-03-02T10:29:46Z</time>
      </trkpt>
      <trkpt lat="43.55334" lon="1.48135">
        <ele>139</ele>
        <time>2017-03-02T10:29:49Z</time>
      </trkpt>
      <trkpt lat="43.55324" lon="1.48137">
        <ele>139.2</ele>
        <time>2017-03-02T10:29:50Z</time>
      </trkpt>
      <trkpt lat="43.55316" lon="1.4814">
        <ele>139.2</ele>
        <time>2017-03-02T10:29:52Z</time>
      </trkpt>
      <trkpt lat="43.55308" lon="1.48143">
        <ele>139.5</ele>
        <time>2017-03-02T10:29:54Z</time>
      </trkpt>
      <trkpt lat="43.553" lon="1.48146">
        <ele>139.7</ele>
        <time>2017-03-02T10:29:56Z</time>
      </trkpt>
      <trkpt lat="43.5529" lon="1.48148">
        <ele>139.5</ele>
        <time>2017-03-02T10:29:58Z</time>
      </trkpt>
      <trkpt lat="43.55282" lon="1.4815">
        <ele>139.3</ele>
        <time>2017-03-02T10:30:00Z</time>
      </trkpt>
      <trkpt lat="43.55273" lon="1.48153">
        <ele>139.2</ele>
        <time>2017-03-02T10:30:02Z</time>
      </trkpt>
      <trkpt lat="43.55264" lon="1.48155">
        <ele>139.3</ele>
        <time>2017-03-02T10:30:04Z</time>
      </trkpt>
      <trkpt lat="43.55255" lon="1.48158">
        <ele>139.3</ele>
        <time>2017-03-02T10:30:06Z</time>
      </trkpt>
      <trkpt lat="43.55246" lon="1.48161">
        <ele>139.1</ele>
        <time>2017-03-02T10:30:08Z</time>
      </trkpt>
      <trkpt lat="43.55238" lon="1.48165">
        <ele>138.9</ele>
        <time>2017-03-02T10:30:10Z</time>
      </trkpt>
      <trkpt lat="43.55229" lon="1.48169">
        <ele>138.8</ele>
        <time>2017-03-02T10:30:12Z</time>
      </trkpt>
      <trkpt lat="43.55221" lon="1.4817">
        <ele>138.7</ele>
        <time>2017-03-02T10:30:14Z</time>
      </trkpt>
      <trkpt lat="43.55212" lon="1.48174">
        <ele>138.7</ele>
        <time>2017-03-02T10:30:16Z</time>
      </trkpt>
      <trkpt lat="43.55203" lon="1.48177">
        <ele>138.9</ele>
        <time>2017-03-02T10:30:18Z</time>
      </trkpt>
      <trkpt lat="43.55193" lon="1.4818">
        <ele>139.1</ele>
        <time>2017-03-02T10:30:20Z</time>
      </trkpt>
      <trkpt lat="43.55184" lon="1.48182">
        <ele>139.1</ele>
        <time>2017-03-02T10:30:22Z</time>
      </trkpt>
      <trkpt lat="43.55176" lon="1.48186">
        <ele>139.1</ele>
        <time>2017-03-02T10:30:24Z</time>
      </trkpt>
      <trkpt lat="43.55167" lon="1.48189">
        <ele>139.2</ele>
        <time>2017-03-02T10:30:26Z</time>
      </trkpt>
      <trkpt lat="43.55157" lon="1.48193">
        <ele>139</ele>
        <time>2017-03-02T10:30:28Z</time>
      </trkpt>
      <trkpt lat="43.55147" lon="1.48197">
        <ele>138.8</ele>
        <time>2017-03-02T10:30:30Z</time>
      </trkpt>
      <trkpt lat="43.55139" lon="1.48202">
        <ele>138.7</ele>
        <time>2017-03-02T10:30:32Z</time>
      </trkpt>
      <trkpt lat="43.55129" lon="1.48204">
        <ele>138.6</ele>
        <time>2017-03-02T10:30:34Z</time>
      </trkpt>
      <trkpt lat="43.5512" lon="1.48207">
        <ele>138.6</ele>
        <time>2017-03-02T10:30:36Z</time>
      </trkpt>
      <trkpt lat="43.5511" lon="1.4821">
        <ele>138.3</ele>
        <time>2017-03-02T10:30:38Z</time>
      </trkpt>
      <trkpt lat="43.55101" lon="1.48215">
        <ele>138.3</ele>
        <time>2017-03-02T10:30:40Z</time>
      </trkpt>
      <trkpt lat="43.55092" lon="1.4822">
        <ele>138.5</ele>
        <time>2017-03-02T10:30:42Z</time>
      </trkpt>
      <trkpt lat="43.55083" lon="1.48226">
        <ele>138.5</ele>
        <time>2017-03-02T10:30:44Z</time>
      </trkpt>
      <trkpt lat="43.55074" lon="1.48232">
        <ele>138.4</ele>
        <time>2017-03-02T10:30:46Z</time>
      </trkpt>
      <trkpt lat="43.55066" lon="1.48238">
        <ele>138.4</ele>
        <time>2017-03-02T10:30:48Z</time>
      </trkpt>
      <trkpt lat="43.55058" lon="1.48245">
        <ele>138.5</ele>
        <time>2017-03-02T10:30:50Z</time>
      </trkpt>
      <trkpt lat="43.55051" lon="1.48252">
        <ele>138.5</ele>
        <time>2017-03-02T10:30:52Z</time>
      </trkpt>
      <trkpt lat="43.55043" lon="1.48259">
        <ele>138.3</ele>
        <time>2017-03-02T10:30:54Z</time>
      </trkpt>
      <trkpt lat="43.55036" lon="1.48266">
        <ele>138</ele>
        <time>2017-03-02T10:30:56Z</time>
      </trkpt>
      <trkpt lat="43.5503" lon="1.48273">
        <ele>137.8</ele>
        <time>2017-03-02T10:30:58Z</time>
      </trkpt>
      <trkpt lat="43.55022" lon="1.4828">
        <ele>137.9</ele>
        <time>2017-03-02T10:31:00Z</time>
      </trkpt>
      <trkpt lat="43.55016" lon="1.48288">
        <ele>137.9</ele>
        <time>2017-03-02T10:31:02Z</time>
      </trkpt>
      <trkpt lat="43.5501" lon="1.48296">
        <ele>137.8</ele>
        <time>2017-03-02T10:31:04Z</time>
      </trkpt>
      <trkpt lat="43.55004" lon="1.48302">
        <ele>137.9</ele>
        <time>2017-03-02T10:31:06Z</time>
      </trkpt>
      <trkpt lat="43.54997" lon="1.48309">
        <ele>137.7</ele>
        <time>2017-03-02T10:31:08Z</time>
      </trkpt>
      <trkpt lat="43.5499" lon="1.48316">
        <ele>137.6</ele>
        <time>2017-03-02T10:31:10Z</time>
      </trkpt>
      <trkpt lat="43.54984" lon="1.48323">
        <ele>137.6</ele>
        <time>2017-03-02T10:31:12Z</time>
      </trkpt>
      <trkpt lat="43.54978" lon="1.48331">
        <ele>137.9</ele>
        <time>2017-03-02T10:31:15Z</time>
      </trkpt>
      <trkpt lat="43.54972" lon="1.48338">
        <ele>137.8</ele>
        <time>2017-03-02T10:31:17Z</time>
      </trkpt>
      <trkpt lat="43.54964" lon="1.48346">
        <ele>137.6</ele>
        <time>2017-03-02T10:31:19Z</time>
      </trkpt>
      <trkpt lat="43.54959" lon="1.48353">
        <ele>137.6</ele>
        <time>2017-03-02T10:31:21Z</time>
      </trkpt>
      <trkpt lat="43.54952" lon="1.48359">
        <ele>137.5</ele>
        <time>2017-03-02T10:31:23Z</time>
      </trkpt>
      <trkpt lat="43.54946" lon="1.48365">
        <ele>137.5</ele>
        <time>2017-03-02T10:31:25Z</time>
      </trkpt>
      <trkpt lat="43.54939" lon="1.48371">
        <ele>137.3</ele>
        <time>2017-03-02T10:31:28Z</time>
      </trkpt>
      <trkpt lat="43.54932" lon="1.48377">
        <ele>137.4</ele>
        <time>2017-03-02T10:31:31Z</time>
      </trkpt>
      <trkpt lat="43.54926" lon="1.48383">
        <ele>137.8</ele>
        <time>2017-03-02T10:31:34Z</time>
      </trkpt>
      <trkpt lat="43.5492" lon="1.48389">
        <ele>138.1</ele>
        <time>2017-03-02T10:31:37Z</time>
      </trkpt>
      <trkpt lat="43.54912" lon="1.48395">
        <ele>138.3</ele>
        <time>2017-03-02T10:31:40Z</time>
      </trkpt>
      <trkpt lat="43.54904" lon="1.48402">
        <ele>138.7</ele>
        <time>2017-03-02T10:31:43Z</time>
      </trkpt>
      <trkpt lat="43.54896" lon="1.48408">
        <ele>138.9</ele>
        <time>2017-03-02T10:31:45Z</time>
      </trkpt>
      <trkpt lat="43.54889" lon="1.48412">
        <ele>139</ele>
        <time>2017-03-02T10:31:47Z</time>
      </trkpt>
      <trkpt lat="43.54881" lon="1.48418">
        <ele>139.2</ele>
        <time>2017-03-02T10:31:49Z</time>
      </trkpt>
      <trkpt lat="43.54874" lon="1.48425">
        <ele>139.4</ele>
        <time>2017-03-02T10:31:51Z</time>
      </trkpt>
      <trkpt lat="43.54866" lon="1.48431">
        <ele>139.5</ele>
        <time>2017-03-02T10:31:53Z</time>
      </trkpt>
      <trkpt lat="43.5486" lon="1.48437">
        <ele>139.8</ele>
        <time>2017-03-02T10:31:55Z</time>
      </trkpt>
      <trkpt lat="43.54853" lon="1.48442">
        <ele>140.3</ele>
        <time>2017-03-02T10:31:57Z</time>
      </trkpt>
      <trkpt lat="43.54844" lon="1.48447">
        <ele>140.5</ele>
        <time>2017-03-02T10:32:00Z</time>
      </trkpt>
      <trkpt lat="43.54834" lon="1.48455">
        <ele>141.3</ele>
        <time>2017-03-02T10:32:03Z</time>
      </trkpt>
      <trkpt lat="43.54825" lon="1.4846">
        <ele>142</ele>
        <time>2017-03-02T10:32:06Z</time>
      </trkpt>
      <trkpt lat="43.54818" lon="1.48466">
        <ele>142.5</ele>
        <time>2017-03-02T10:32:09Z</time>
      </trkpt>
      <trkpt lat="43.54823" lon="1.48476">
        <ele>142.4</ele>
        <time>2017-03-02T10:32:13Z</time>
      </trkpt>
      <trkpt lat="43.54831" lon="1.48475">
        <ele>141.8</ele>
        <time>2017-03-02T10:32:18Z</time>
      </trkpt>
      <trkpt lat="43.54824" lon="1.48469">
        <ele>140.7</ele>
        <time>2017-03-02T10:32:25Z</time>
      </trkpt>
      <trkpt lat="43.54817" lon="1.48471">
        <ele>140.7</ele>
        <time>2017-03-02T10:32:27Z</time>
      </trkpt>
      <trkpt lat="43.54807" lon="1.48477">
        <ele>140.9</ele>
        <time>2017-03-02T10:32:30Z</time>
      </trkpt>
      <trkpt lat="43.54798" lon="1.48482">
        <ele>141.2</ele>
        <time>2017-03-02T10:32:33Z</time>
      </trkpt>
      <trkpt lat="43.54791" lon="1.48486">
        <ele>141</ele>
        <time>2017-03-02T10:32:37Z</time>
      </trkpt>
      <trkpt lat="43.54784" lon="1.48489">
        <ele>141.1</ele>
        <time>2017-03-02T10:32:40Z</time>
      </trkpt>
      <trkpt lat="43.54776" lon="1.48494">
        <ele>140.8</ele>
        <time>2017-03-02T10:32:43Z</time>
      </trkpt>
      <trkpt lat="43.5477" lon="1.48499">
        <ele>140.3</ele>
        <time>2017-03-02T10:32:45Z</time>
      </trkpt>
      <trkpt lat="43.54763" lon="1.48503">
        <ele>139.9</ele>
        <time>2017-03-02T10:32:47Z</time>
      </trkpt>
      <trkpt lat="43.54754" lon="1.4851">
        <ele>139.4</ele>
        <time>2017-03-02T10:32:49Z</time>
      </trkpt>
      <trkpt lat="43.54745" lon="1.48517">
        <ele>139</ele>
        <time>2017-03-02T10:32:51Z</time>
      </trkpt>
      <trkpt lat="43.54736" lon="1.48524">
        <ele>138.7</ele>
        <time>2017-03-02T10:32:53Z</time>
      </trkpt>
      <trkpt lat="43.54727" lon="1.48532">
        <ele>138.4</ele>
        <time>2017-03-02T10:32:55Z</time>
      </trkpt>
      <trkpt lat="43.54717" lon="1.4854">
        <ele>137.6</ele>
        <time>2017-03-02T10:32:57Z</time>
      </trkpt>
      <trkpt lat="43.54707" lon="1.48547">
        <ele>137.3</ele>
        <time>2017-03-02T10:32:59Z</time>
      </trkpt>
      <trkpt lat="43.54697" lon="1.48554">
        <ele>137.2</ele>
        <time>2017-03-02T10:33:01Z</time>
      </trkpt>
      <trkpt lat="43.54688" lon="1.48561">
        <ele>137</ele>
        <time>2017-03-02T10:33:03Z</time>
      </trkpt>
      <trkpt lat="43.54678" lon="1.48568">
        <ele>136.7</ele>
        <time>2017-03-02T10:33:05Z</time>
      </trkpt>
      <trkpt lat="43.5467" lon="1.48576">
        <ele>136.4</ele>
        <time>2017-03-02T10:33:07Z</time>
      </trkpt>
      <trkpt lat="43.54661" lon="1.48582">
        <ele>136.4</ele>
        <time>2017-03-02T10:33:09Z</time>
      </trkpt>
      <trkpt lat="43.54652" lon="1.4859">
        <ele>136.5</ele>
        <time>2017-03-02T10:33:11Z</time>
      </trkpt>
      <trkpt lat="43.54644" lon="1.48599">
        <ele>136.4</ele>
        <time>2017-03-02T10:33:13Z</time>
      </trkpt>
      <trkpt lat="43.54636" lon="1.48608">
        <ele>136.3</ele>
        <time>2017-03-02T10:33:15Z</time>
      </trkpt>
      <trkpt lat="43.54629" lon="1.48617">
        <ele>136.5</ele>
        <time>2017-03-02T10:33:17Z</time>
      </trkpt>
      <trkpt lat="43.54622" lon="1.48627">
        <ele>136.8</ele>
        <time>2017-03-02T10:33:19Z</time>
      </trkpt>
      <trkpt lat="43.54616" lon="1.48638">
        <ele>137.1</ele>
        <time>2017-03-02T10:33:21Z</time>
      </trkpt>
      <trkpt lat="43.5461" lon="1.48648">
        <ele>137.1</ele>
        <time>2017-03-02T10:33:23Z</time>
      </trkpt>
      <trkpt lat="43.54603" lon="1.4866">
        <ele>137.2</ele>
        <time>2017-03-02T10:33:25Z</time>
      </trkpt>
      <trkpt lat="43.54598" lon="1.48671">
        <ele>137.4</ele>
        <time>2017-03-02T10:33:27Z</time>
      </trkpt>
      <trkpt lat="43.54592" lon="1.48682">
        <ele>137.5</ele>
        <time>2017-03-02T10:33:29Z</time>
      </trkpt>
      <trkpt lat="43.54587" lon="1.48693">
        <ele>137.5</ele>
        <time>2017-03-02T10:33:31Z</time>
      </trkpt>
      <trkpt lat="43.54582" lon="1.48706">
        <ele>137.5</ele>
        <time>2017-03-02T10:33:33Z</time>
      </trkpt>
      <trkpt lat="43.54576" lon="1.48719">
        <ele>137.5</ele>
        <time>2017-03-02T10:33:35Z</time>
      </trkpt>
      <trkpt lat="43.54572" lon="1.48731">
        <ele>137.4</ele>
        <time>2017-03-02T10:33:37Z</time>
      </trkpt>
      <trkpt lat="43.54567" lon="1.48744">
        <ele>137.6</ele>
        <time>2017-03-02T10:33:39Z</time>
      </trkpt>
      <trkpt lat="43.54562" lon="1.48756">
        <ele>137.9</ele>
        <time>2017-03-02T10:33:41Z</time>
      </trkpt>
      <trkpt lat="43.54558" lon="1.48768">
        <ele>137.7</ele>
        <time>2017-03-02T10:33:43Z</time>
      </trkpt>
      <trkpt lat="43.54553" lon="1.4878">
        <ele>137.6</ele>
        <time>2017-03-02T10:33:45Z</time>
      </trkpt>
      <trkpt lat="43.54549" lon="1.48793">
        <ele>137.5</ele>
        <time>2017-03-02T10:33:47Z</time>
      </trkpt>
      <trkpt lat="43.54546" lon="1.48805">
        <ele>137.7</ele>
        <time>2017-03-02T10:33:49Z</time>
      </trkpt>
      <trkpt lat="43.54541" lon="1.48816">
        <ele>137.5</ele>
        <time>2017-03-02T10:33:51Z</time>
      </trkpt>
      <trkpt lat="43.54536" lon="1.48829">
        <ele>137.1</ele>
        <time>2017-03-02T10:33:53Z</time>
      </trkpt>
      <trkpt lat="43.54532" lon="1.48842">
        <ele>136.6</ele>
        <time>2017-03-02T10:33:55Z</time>
      </trkpt>
      <trkpt lat="43.54528" lon="1.48853">
        <ele>136.6</ele>
        <time>2017-03-02T10:33:57Z</time>
      </trkpt>
      <trkpt lat="43.54523" lon="1.48864">
        <ele>136.5</ele>
        <time>2017-03-02T10:33:59Z</time>
      </trkpt>
      <trkpt lat="43.54518" lon="1.48876">
        <ele>136.6</ele>
        <time>2017-03-02T10:34:01Z</time>
      </trkpt>
      <trkpt lat="43.54513" lon="1.48887">
        <ele>136.6</ele>
        <time>2017-03-02T10:34:03Z</time>
      </trkpt>
      <trkpt lat="43.54508" lon="1.48899">
        <ele>136.8</ele>
        <time>2017-03-02T10:34:05Z</time>
      </trkpt>
      <trkpt lat="43.54504" lon="1.4891">
        <ele>137.1</ele>
        <time>2017-03-02T10:34:07Z</time>
      </trkpt>
      <trkpt lat="43.54498" lon="1.48923">
        <ele>137.4</ele>
        <time>2017-03-02T10:34:09Z</time>
      </trkpt>
      <trkpt lat="43.54493" lon="1.48935">
        <ele>137.7</ele>
        <time>2017-03-02T10:34:11Z</time>
      </trkpt>
      <trkpt lat="43.54488" lon="1.48946">
        <ele>138.2</ele>
        <time>2017-03-02T10:34:13Z</time>
      </trkpt>
      <trkpt lat="43.54483" lon="1.48957">
        <ele>138.1</ele>
        <time>2017-03-02T10:34:15Z</time>
      </trkpt>
      <trkpt lat="43.54479" lon="1.48966">
        <ele>138.4</ele>
        <time>2017-03-02T10:34:17Z</time>
      </trkpt>
      <trkpt lat="43.54476" lon="1.48974">
        <ele>139.8</ele>
        <time>2017-03-02T10:34:24Z</time>
      </trkpt>
      <trkpt lat="43.54473" lon="1.48983">
        <ele>144.3</ele>
        <time>2017-03-02T10:37:56Z</time>
      </trkpt>
      <trkpt lat="43.54469" lon="1.48993">
        <ele>144.1</ele>
        <time>2017-03-02T10:38:02Z</time>
      </trkpt>
      <trkpt lat="43.54473" lon="1.49001">
        <ele>146.1</ele>
        <time>2017-03-02T10:41:14Z</time>
      </trkpt>
      <trkpt lat="43.54459" lon="1.49007">
        <ele>142.4</ele>
        <time>2017-03-02T10:51:16Z</time>
      </trkpt>
      <trkpt lat="43.5445" lon="1.4901">
        <ele>141.9</ele>
        <time>2017-03-02T10:51:21Z</time>
      </trkpt>
      <trkpt lat="43.54442" lon="1.49016">
        <ele>141.2</ele>
        <time>2017-03-02T10:51:24Z</time>
      </trkpt>
      <trkpt lat="43.54434" lon="1.49021">
        <ele>139.7</ele>
        <time>2017-03-02T10:51:27Z</time>
      </trkpt>
      <trkpt lat="43.54424" lon="1.49026">
        <ele>139.7</ele>
        <time>2017-03-02T10:51:30Z</time>
      </trkpt>
      <trkpt lat="43.54417" lon="1.49028">
        <ele>138.4</ele>
        <time>2017-03-02T10:51:32Z</time>
      </trkpt>
      <trkpt lat="43.54407" lon="1.49031">
        <ele>137</ele>
        <time>2017-03-02T10:51:35Z</time>
      </trkpt>
      <trkpt lat="43.54398" lon="1.49037">
        <ele>135.4</ele>
        <time>2017-03-02T10:51:38Z</time>
      </trkpt>
      <trkpt lat="43.5439" lon="1.49039">
        <ele>134.1</ele>
        <time>2017-03-02T10:51:40Z</time>
      </trkpt>
      <trkpt lat="43.54379" lon="1.49042">
        <ele>132.8</ele>
        <time>2017-03-02T10:51:43Z</time>
      </trkpt>
      <trkpt lat="43.54369" lon="1.49047">
        <ele>131.7</ele>
        <time>2017-03-02T10:51:45Z</time>
      </trkpt>
      <trkpt lat="43.54361" lon="1.4905">
        <ele>131.1</ele>
        <time>2017-03-02T10:51:47Z</time>
      </trkpt>
      <trkpt lat="43.54351" lon="1.49055">
        <ele>130.5</ele>
        <time>2017-03-02T10:51:49Z</time>
      </trkpt>
      <trkpt lat="43.54343" lon="1.49059">
        <ele>129.9</ele>
        <time>2017-03-02T10:51:51Z</time>
      </trkpt>
      <trkpt lat="43.54336" lon="1.49061">
        <ele>128.9</ele>
        <time>2017-03-02T10:51:53Z</time>
      </trkpt>
      <trkpt lat="43.54328" lon="1.49064">
        <ele>128.2</ele>
        <time>2017-03-02T10:51:55Z</time>
      </trkpt>
      <trkpt lat="43.5432" lon="1.49068">
        <ele>128</ele>
        <time>2017-03-02T10:51:57Z</time>
      </trkpt>
      <trkpt lat="43.54309" lon="1.49072">
        <ele>128.2</ele>
        <time>2017-03-02T10:51:59Z</time>
      </trkpt>
      <trkpt lat="43.543" lon="1.49077">
        <ele>127.7</ele>
        <time>2017-03-02T10:52:01Z</time>
      </trkpt>
      <trkpt lat="43.5429" lon="1.49081">
        <ele>128</ele>
        <time>2017-03-02T10:52:03Z</time>
      </trkpt>
      <trkpt lat="43.54281" lon="1.49084">
        <ele>128</ele>
        <time>2017-03-02T10:52:05Z</time>
      </trkpt>
      <trkpt lat="43.54273" lon="1.49089">
        <ele>127.9</ele>
        <time>2017-03-02T10:52:07Z</time>
      </trkpt>
      <trkpt lat="43.54265" lon="1.49093">
        <ele>127.9</ele>
        <time>2017-03-02T10:52:09Z</time>
      </trkpt>
      <trkpt lat="43.54257" lon="1.49096">
        <ele>127.6</ele>
        <time>2017-03-02T10:52:11Z</time>
      </trkpt>
      <trkpt lat="43.5425" lon="1.491">
        <ele>127.1</ele>
        <time>2017-03-02T10:52:13Z</time>
      </trkpt>
      <trkpt lat="43.54242" lon="1.49102">
        <ele>126.6</ele>
        <time>2017-03-02T10:52:15Z</time>
      </trkpt>
      <trkpt lat="43.54231" lon="1.49108">
        <ele>125.3</ele>
        <time>2017-03-02T10:52:18Z</time>
      </trkpt>
      <trkpt lat="43.54223" lon="1.49113">
        <ele>125.2</ele>
        <time>2017-03-02T10:52:20Z</time>
      </trkpt>
      <trkpt lat="43.54215" lon="1.49118">
        <ele>124.8</ele>
        <time>2017-03-02T10:52:22Z</time>
      </trkpt>
      <trkpt lat="43.54207" lon="1.49123">
        <ele>124.4</ele>
        <time>2017-03-02T10:52:24Z</time>
      </trkpt>
      <trkpt lat="43.54197" lon="1.49128">
        <ele>123.8</ele>
        <time>2017-03-02T10:52:26Z</time>
      </trkpt>
      <trkpt lat="43.54187" lon="1.49133">
        <ele>123</ele>
        <time>2017-03-02T10:52:28Z</time>
      </trkpt>
      <trkpt lat="43.54177" lon="1.4914">
        <ele>123</ele>
        <time>2017-03-02T10:52:30Z</time>
      </trkpt>
      <trkpt lat="43.54169" lon="1.49146">
        <ele>122.9</ele>
        <time>2017-03-02T10:52:32Z</time>
      </trkpt>
      <trkpt lat="43.54162" lon="1.49151">
        <ele>122.4</ele>
        <time>2017-03-02T10:52:34Z</time>
      </trkpt>
      <trkpt lat="43.54153" lon="1.49157">
        <ele>122.4</ele>
        <time>2017-03-02T10:52:36Z</time>
      </trkpt>
      <trkpt lat="43.54145" lon="1.49166">
        <ele>123</ele>
        <time>2017-03-02T10:52:38Z</time>
      </trkpt>
      <trkpt lat="43.54138" lon="1.49173">
        <ele>123.9</ele>
        <time>2017-03-02T10:52:40Z</time>
      </trkpt>
      <trkpt lat="43.54128" lon="1.4918">
        <ele>124.7</ele>
        <time>2017-03-02T10:52:42Z</time>
      </trkpt>
      <trkpt lat="43.54118" lon="1.49186">
        <ele>124.7</ele>
        <time>2017-03-02T10:52:44Z</time>
      </trkpt>
      <trkpt lat="43.54108" lon="1.49192">
        <ele>125.2</ele>
        <time>2017-03-02T10:52:46Z</time>
      </trkpt>
      <trkpt lat="43.54098" lon="1.49197">
        <ele>125.2</ele>
        <time>2017-03-02T10:52:48Z</time>
      </trkpt>
      <trkpt lat="43.54089" lon="1.49204">
        <ele>125.3</ele>
        <time>2017-03-02T10:52:50Z</time>
      </trkpt>
      <trkpt lat="43.54081" lon="1.49211">
        <ele>125.5</ele>
        <time>2017-03-02T10:52:52Z</time>
      </trkpt>
      <trkpt lat="43.5407" lon="1.49217">
        <ele>125.6</ele>
        <time>2017-03-02T10:52:54Z</time>
      </trkpt>
      <trkpt lat="43.54059" lon="1.49221">
        <ele>125.5</ele>
        <time>2017-03-02T10:52:56Z</time>
      </trkpt>
      <trkpt lat="43.54051" lon="1.49226">
        <ele>125.6</ele>
        <time>2017-03-02T10:52:58Z</time>
      </trkpt>
      <trkpt lat="43.54041" lon="1.49232">
        <ele>125.8</ele>
        <time>2017-03-02T10:53:00Z</time>
      </trkpt>
      <trkpt lat="43.54029" lon="1.49235">
        <ele>126.5</ele>
        <time>2017-03-02T10:53:02Z</time>
      </trkpt>
      <trkpt lat="43.54017" lon="1.49239">
        <ele>127.4</ele>
        <time>2017-03-02T10:53:04Z</time>
      </trkpt>
      <trkpt lat="43.54006" lon="1.49241">
        <ele>127.9</ele>
        <time>2017-03-02T10:53:06Z</time>
      </trkpt>
      <trkpt lat="43.53993" lon="1.49242">
        <ele>128.3</ele>
        <time>2017-03-02T10:53:08Z</time>
      </trkpt>
      <trkpt lat="43.53984" lon="1.49245">
        <ele>129</ele>
        <time>2017-03-02T10:53:10Z</time>
      </trkpt>
      <trkpt lat="43.53975" lon="1.49248">
        <ele>129.7</ele>
        <time>2017-03-02T10:53:12Z</time>
      </trkpt>
      <trkpt lat="43.53965" lon="1.4925">
        <ele>129.9</ele>
        <time>2017-03-02T10:53:14Z</time>
      </trkpt>
      <trkpt lat="43.53955" lon="1.49253">
        <ele>131.1</ele>
        <time>2017-03-02T10:53:16Z</time>
      </trkpt>
      <trkpt lat="43.53944" lon="1.49257">
        <ele>132</ele>
        <time>2017-03-02T10:53:18Z</time>
      </trkpt>
      <trkpt lat="43.53934" lon="1.49259">
        <ele>132.3</ele>
        <time>2017-03-02T10:53:20Z</time>
      </trkpt>
      <trkpt lat="43.53924" lon="1.49263">
        <ele>132.6</ele>
        <time>2017-03-02T10:53:22Z</time>
      </trkpt>
      <trkpt lat="43.53915" lon="1.49267">
        <ele>132.9</ele>
        <time>2017-03-02T10:53:24Z</time>
      </trkpt>
      <trkpt lat="43.53907" lon="1.49273">
        <ele>132.6</ele>
        <time>2017-03-02T10:53:26Z</time>
      </trkpt>
      <trkpt lat="43.53899" lon="1.4928">
        <ele>132.3</ele>
        <time>2017-03-02T10:53:28Z</time>
      </trkpt>
      <trkpt lat="43.53891" lon="1.49286">
        <ele>131.9</ele>
        <time>2017-03-02T10:53:30Z</time>
      </trkpt>
      <trkpt lat="43.53886" lon="1.49294">
        <ele>131.5</ele>
        <time>2017-03-02T10:53:32Z</time>
      </trkpt>
      <trkpt lat="43.5388" lon="1.49305">
        <ele>131.5</ele>
        <time>2017-03-02T10:53:34Z</time>
      </trkpt>
      <trkpt lat="43.53875" lon="1.49316">
        <ele>131.5</ele>
        <time>2017-03-02T10:53:36Z</time>
      </trkpt>
      <trkpt lat="43.53872" lon="1.49328">
        <ele>131.5</ele>
        <time>2017-03-02T10:53:38Z</time>
      </trkpt>
      <trkpt lat="43.53871" lon="1.49341">
        <ele>131.4</ele>
        <time>2017-03-02T10:53:40Z</time>
      </trkpt>
      <trkpt lat="43.53869" lon="1.49351">
        <ele>131.6</ele>
        <time>2017-03-02T10:53:41Z</time>
      </trkpt>
      <trkpt lat="43.53868" lon="1.49367">
        <ele>131.6</ele>
        <time>2017-03-02T10:53:43Z</time>
      </trkpt>
      <trkpt lat="43.53866" lon="1.49382">
        <ele>131.4</ele>
        <time>2017-03-02T10:53:45Z</time>
      </trkpt>
      <trkpt lat="43.53866" lon="1.49397">
        <ele>131.5</ele>
        <time>2017-03-02T10:53:47Z</time>
      </trkpt>
      <trkpt lat="43.53866" lon="1.4941">
        <ele>131.6</ele>
        <time>2017-03-02T10:53:49Z</time>
      </trkpt>
      <trkpt lat="43.53868" lon="1.49425">
        <ele>131.7</ele>
        <time>2017-03-02T10:53:51Z</time>
      </trkpt>
      <trkpt lat="43.53869" lon="1.49441">
        <ele>132</ele>
        <time>2017-03-02T10:53:53Z</time>
      </trkpt>
      <trkpt lat="43.5387" lon="1.49456">
        <ele>132.3</ele>
        <time>2017-03-02T10:53:55Z</time>
      </trkpt>
      <trkpt lat="43.53871" lon="1.4947">
        <ele>132.4</ele>
        <time>2017-03-02T10:53:57Z</time>
      </trkpt>
      <trkpt lat="43.53872" lon="1.49484">
        <ele>132.7</ele>
        <time>2017-03-02T10:53:59Z</time>
      </trkpt>
      <trkpt lat="43.53873" lon="1.49498">
        <ele>133.3</ele>
        <time>2017-03-02T10:54:01Z</time>
      </trkpt>
      <trkpt lat="43.53875" lon="1.49513">
        <ele>133.8</ele>
        <time>2017-03-02T10:54:03Z</time>
      </trkpt>
      <trkpt lat="43.53877" lon="1.49528">
        <ele>134.2</ele>
        <time>2017-03-02T10:54:05Z</time>
      </trkpt>
      <trkpt lat="43.53879" lon="1.49543">
        <ele>134.8</ele>
        <time>2017-03-02T10:54:07Z</time>
      </trkpt>
      <trkpt lat="43.53882" lon="1.49558">
        <ele>135.3</ele>
        <time>2017-03-02T10:54:09Z</time>
      </trkpt>
      <trkpt lat="43.53884" lon="1.49572">
        <ele>135.6</ele>
        <time>2017-03-02T10:54:11Z</time>
      </trkpt>
      <trkpt lat="43.53886" lon="1.49586">
        <ele>136.2</ele>
        <time>2017-03-02T10:54:13Z</time>
      </trkpt>
      <trkpt lat="43.53888" lon="1.49599">
        <ele>136.5</ele>
        <time>2017-03-02T10:54:15Z</time>
      </trkpt>
      <trkpt lat="43.53891" lon="1.49612">
        <ele>136.8</ele>
        <time>2017-03-02T10:54:17Z</time>
      </trkpt>
      <trkpt lat="43.53894" lon="1.49626">
        <ele>137</ele>
        <time>2017-03-02T10:54:19Z</time>
      </trkpt>
      <trkpt lat="43.53896" lon="1.49639">
        <ele>137</ele>
        <time>2017-03-02T10:54:21Z</time>
      </trkpt>
      <trkpt lat="43.53898" lon="1.49653">
        <ele>136.9</ele>
        <time>2017-03-02T10:54:23Z</time>
      </trkpt>
      <trkpt lat="43.539" lon="1.49667">
        <ele>136.2</ele>
        <time>2017-03-02T10:54:25Z</time>
      </trkpt>
      <trkpt lat="43.53902" lon="1.4968">
        <ele>136.5</ele>
        <time>2017-03-02T10:54:27Z</time>
      </trkpt>
      <trkpt lat="43.53904" lon="1.49697">
        <ele>136.6</ele>
        <time>2017-03-02T10:54:29Z</time>
      </trkpt>
      <trkpt lat="43.53905" lon="1.49712">
        <ele>136.4</ele>
        <time>2017-03-02T10:54:31Z</time>
      </trkpt>
      <trkpt lat="43.53906" lon="1.49727">
        <ele>136.5</ele>
        <time>2017-03-02T10:54:33Z</time>
      </trkpt>
      <trkpt lat="43.53906" lon="1.49742">
        <ele>136.1</ele>
        <time>2017-03-02T10:54:35Z</time>
      </trkpt>
      <trkpt lat="43.53907" lon="1.49757">
        <ele>135.9</ele>
        <time>2017-03-02T10:54:37Z</time>
      </trkpt>
      <trkpt lat="43.53907" lon="1.49771">
        <ele>135.6</ele>
        <time>2017-03-02T10:54:39Z</time>
      </trkpt>
      <trkpt lat="43.53906" lon="1.49784">
        <ele>135.2</ele>
        <time>2017-03-02T10:54:41Z</time>
      </trkpt>
      <trkpt lat="43.53906" lon="1.49796">
        <ele>135.6</ele>
        <time>2017-03-02T10:54:43Z</time>
      </trkpt>
      <trkpt lat="43.53905" lon="1.49809">
        <ele>136</ele>
        <time>2017-03-02T10:54:45Z</time>
      </trkpt>
      <trkpt lat="43.53903" lon="1.49822">
        <ele>135.9</ele>
        <time>2017-03-02T10:54:47Z</time>
      </trkpt>
      <trkpt lat="43.53901" lon="1.49835">
        <ele>135.6</ele>
        <time>2017-03-02T10:54:49Z</time>
      </trkpt>
      <trkpt lat="43.53899" lon="1.49846">
        <ele>135.6</ele>
        <time>2017-03-02T10:54:51Z</time>
      </trkpt>
      <trkpt lat="43.53896" lon="1.49858">
        <ele>135.5</ele>
        <time>2017-03-02T10:54:53Z</time>
      </trkpt>
      <trkpt lat="43.53894" lon="1.49871">
        <ele>135.6</ele>
        <time>2017-03-02T10:54:55Z</time>
      </trkpt>
      <trkpt lat="43.53891" lon="1.49883">
        <ele>135.5</ele>
        <time>2017-03-02T10:54:57Z</time>
      </trkpt>
      <trkpt lat="43.53888" lon="1.49896">
        <ele>135.1</ele>
        <time>2017-03-02T10:54:59Z</time>
      </trkpt>
      <trkpt lat="43.53884" lon="1.49908">
        <ele>134.9</ele>
        <time>2017-03-02T10:55:01Z</time>
      </trkpt>
      <trkpt lat="43.5388" lon="1.49921">
        <ele>134.3</ele>
        <time>2017-03-02T10:55:03Z</time>
      </trkpt>
      <trkpt lat="43.53875" lon="1.49934">
        <ele>134.1</ele>
        <time>2017-03-02T10:55:05Z</time>
      </trkpt>
      <trkpt lat="43.53869" lon="1.49947">
        <ele>133.2</ele>
        <time>2017-03-02T10:55:07Z</time>
      </trkpt>
      <trkpt lat="43.53863" lon="1.4996">
        <ele>132.8</ele>
        <time>2017-03-02T10:55:09Z</time>
      </trkpt>
      <trkpt lat="43.53856" lon="1.49971">
        <ele>131.9</ele>
        <time>2017-03-02T10:55:11Z</time>
      </trkpt>
      <trkpt lat="43.5385" lon="1.49983">
        <ele>132</ele>
        <time>2017-03-02T10:55:13Z</time>
      </trkpt>
      <trkpt lat="43.53844" lon="1.49996">
        <ele>132.1</ele>
        <time>2017-03-02T10:55:15Z</time>
      </trkpt>
      <trkpt lat="43.53837" lon="1.50006">
        <ele>132</ele>
        <time>2017-03-02T10:55:17Z</time>
      </trkpt>
      <trkpt lat="43.53831" lon="1.50016">
        <ele>131.6</ele>
        <time>2017-03-02T10:55:19Z</time>
      </trkpt>
      <trkpt lat="43.53825" lon="1.50026">
        <ele>131.6</ele>
        <time>2017-03-02T10:55:21Z</time>
      </trkpt>
      <trkpt lat="43.53818" lon="1.50038">
        <ele>131.6</ele>
        <time>2017-03-02T10:55:23Z</time>
      </trkpt>
      <trkpt lat="43.53811" lon="1.50051">
        <ele>132.2</ele>
        <time>2017-03-02T10:55:25Z</time>
      </trkpt>
      <trkpt lat="43.53804" lon="1.50063">
        <ele>132.7</ele>
        <time>2017-03-02T10:55:27Z</time>
      </trkpt>
      <trkpt lat="43.53797" lon="1.50075">
        <ele>133</ele>
        <time>2017-03-02T10:55:29Z</time>
      </trkpt>
      <trkpt lat="43.5379" lon="1.50088">
        <ele>133.3</ele>
        <time>2017-03-02T10:55:31Z</time>
      </trkpt>
      <trkpt lat="43.53782" lon="1.501">
        <ele>133.7</ele>
        <time>2017-03-02T10:55:33Z</time>
      </trkpt>
      <trkpt lat="43.53777" lon="1.50113">
        <ele>133.9</ele>
        <time>2017-03-02T10:55:35Z</time>
      </trkpt>
      <trkpt lat="43.53771" lon="1.50126">
        <ele>134.2</ele>
        <time>2017-03-02T10:55:37Z</time>
      </trkpt>
      <trkpt lat="43.53765" lon="1.50138">
        <ele>134.5</ele>
        <time>2017-03-02T10:55:39Z</time>
      </trkpt>
      <trkpt lat="43.53759" lon="1.5015">
        <ele>134.2</ele>
        <time>2017-03-02T10:55:41Z</time>
      </trkpt>
      <trkpt lat="43.53754" lon="1.50163">
        <ele>133.8</ele>
        <time>2017-03-02T10:55:43Z</time>
      </trkpt>
      <trkpt lat="43.5375" lon="1.50176">
        <ele>133.5</ele>
        <time>2017-03-02T10:55:45Z</time>
      </trkpt>
      <trkpt lat="43.53744" lon="1.50188">
        <ele>133.3</ele>
        <time>2017-03-02T10:55:47Z</time>
      </trkpt>
      <trkpt lat="43.53738" lon="1.50199">
        <ele>133</ele>
        <time>2017-03-02T10:55:49Z</time>
      </trkpt>
      <trkpt lat="43.53732" lon="1.50209">
        <ele>132.8</ele>
        <time>2017-03-02T10:55:51Z</time>
      </trkpt>
      <trkpt lat="43.53726" lon="1.50218">
        <ele>132.4</ele>
        <time>2017-03-02T10:55:53Z</time>
      </trkpt>
      <trkpt lat="43.53719" lon="1.50228">
        <ele>132</ele>
        <time>2017-03-02T10:55:55Z</time>
      </trkpt>
      <trkpt lat="43.53712" lon="1.50236">
        <ele>131.9</ele>
        <time>2017-03-02T10:55:57Z</time>
      </trkpt>
      <trkpt lat="43.53705" lon="1.50245">
        <ele>131.6</ele>
        <time>2017-03-02T10:55:59Z</time>
      </trkpt>
      <trkpt lat="43.53697" lon="1.50255">
        <ele>131.3</ele>
        <time>2017-03-02T10:56:01Z</time>
      </trkpt>
      <trkpt lat="43.5369" lon="1.50265">
        <ele>130.7</ele>
        <time>2017-03-02T10:56:03Z</time>
      </trkpt>
      <trkpt lat="43.53683" lon="1.50275">
        <ele>130.6</ele>
        <time>2017-03-02T10:56:05Z</time>
      </trkpt>
      <trkpt lat="43.53676" lon="1.50285">
        <ele>130</ele>
        <time>2017-03-02T10:56:07Z</time>
      </trkpt>
      <trkpt lat="43.53669" lon="1.50294">
        <ele>129.4</ele>
        <time>2017-03-02T10:56:09Z</time>
      </trkpt>
      <trkpt lat="43.53662" lon="1.50304">
        <ele>128.8</ele>
        <time>2017-03-02T10:56:11Z</time>
      </trkpt>
      <trkpt lat="43.53655" lon="1.50314">
        <ele>128</ele>
        <time>2017-03-02T10:56:13Z</time>
      </trkpt>
      <trkpt lat="43.53647" lon="1.50324">
        <ele>127.6</ele>
        <time>2017-03-02T10:56:15Z</time>
      </trkpt>
      <trkpt lat="43.53639" lon="1.50335">
        <ele>127.1</ele>
        <time>2017-03-02T10:56:17Z</time>
      </trkpt>
      <trkpt lat="43.5363" lon="1.50346">
        <ele>126.6</ele>
        <time>2017-03-02T10:56:19Z</time>
      </trkpt>
      <trkpt lat="43.53621" lon="1.50354">
        <ele>125.8</ele>
        <time>2017-03-02T10:56:21Z</time>
      </trkpt>
      <trkpt lat="43.53613" lon="1.50364">
        <ele>125.2</ele>
        <time>2017-03-02T10:56:23Z</time>
      </trkpt>
      <trkpt lat="43.53604" lon="1.50373">
        <ele>125.3</ele>
        <time>2017-03-02T10:56:25Z</time>
      </trkpt>
      <trkpt lat="43.53596" lon="1.50383">
        <ele>125.5</ele>
        <time>2017-03-02T10:56:27Z</time>
      </trkpt>
      <trkpt lat="43.53587" lon="1.50391">
        <ele>125.7</ele>
        <time>2017-03-02T10:56:29Z</time>
      </trkpt>
      <trkpt lat="43.53578" lon="1.50399">
        <ele>125.9</ele>
        <time>2017-03-02T10:56:31Z</time>
      </trkpt>
      <trkpt lat="43.53568" lon="1.50407">
        <ele>126.4</ele>
        <time>2017-03-02T10:56:33Z</time>
      </trkpt>
      <trkpt lat="43.53558" lon="1.50416">
        <ele>126.3</ele>
        <time>2017-03-02T10:56:35Z</time>
      </trkpt>
      <trkpt lat="43.53547" lon="1.50425">
        <ele>126.8</ele>
        <time>2017-03-02T10:56:37Z</time>
      </trkpt>
      <trkpt lat="43.53537" lon="1.50433">
        <ele>126.9</ele>
        <time>2017-03-02T10:56:39Z</time>
      </trkpt>
      <trkpt lat="43.53527" lon="1.50441">
        <ele>127.3</ele>
        <time>2017-03-02T10:56:41Z</time>
      </trkpt>
      <trkpt lat="43.53517" lon="1.5045">
        <ele>127.9</ele>
        <time>2017-03-02T10:56:43Z</time>
      </trkpt>
      <trkpt lat="43.53507" lon="1.50457">
        <ele>128</ele>
        <time>2017-03-02T10:56:45Z</time>
      </trkpt>
      <trkpt lat="43.53497" lon="1.50465">
        <ele>128.5</ele>
        <time>2017-03-02T10:56:47Z</time>
      </trkpt>
      <trkpt lat="43.53487" lon="1.50473">
        <ele>128.7</ele>
        <time>2017-03-02T10:56:49Z</time>
      </trkpt>
      <trkpt lat="43.53478" lon="1.50481">
        <ele>128.8</ele>
        <time>2017-03-02T10:56:51Z</time>
      </trkpt>
      <trkpt lat="43.53467" lon="1.50489">
        <ele>129.2</ele>
        <time>2017-03-02T10:56:53Z</time>
      </trkpt>
      <trkpt lat="43.53457" lon="1.50496">
        <ele>129.7</ele>
        <time>2017-03-02T10:56:55Z</time>
      </trkpt>
      <trkpt lat="43.53446" lon="1.50503">
        <ele>130.2</ele>
        <time>2017-03-02T10:56:57Z</time>
      </trkpt>
      <trkpt lat="43.53434" lon="1.5051">
        <ele>131</ele>
        <time>2017-03-02T10:56:59Z</time>
      </trkpt>
      <trkpt lat="43.53423" lon="1.50515">
        <ele>131.7</ele>
        <time>2017-03-02T10:57:01Z</time>
      </trkpt>
      <trkpt lat="43.53412" lon="1.5052">
        <ele>132.4</ele>
        <time>2017-03-02T10:57:03Z</time>
      </trkpt>
      <trkpt lat="43.53401" lon="1.50526">
        <ele>132.9</ele>
        <time>2017-03-02T10:57:05Z</time>
      </trkpt>
      <trkpt lat="43.5339" lon="1.5053">
        <ele>133.3</ele>
        <time>2017-03-02T10:57:07Z</time>
      </trkpt>
      <trkpt lat="43.53379" lon="1.50533">
        <ele>133.6</ele>
        <time>2017-03-02T10:57:09Z</time>
      </trkpt>
      <trkpt lat="43.53368" lon="1.50536">
        <ele>133.8</ele>
        <time>2017-03-02T10:57:11Z</time>
      </trkpt>
      <trkpt lat="43.53358" lon="1.50539">
        <ele>134.2</ele>
        <time>2017-03-02T10:57:13Z</time>
      </trkpt>
      <trkpt lat="43.53347" lon="1.5054">
        <ele>134.6</ele>
        <time>2017-03-02T10:57:15Z</time>
      </trkpt>
      <trkpt lat="43.53336" lon="1.50543">
        <ele>134.5</ele>
        <time>2017-03-02T10:57:18Z</time>
      </trkpt>
      <trkpt lat="43.53325" lon="1.50545">
        <ele>135.2</ele>
        <time>2017-03-02T10:57:19Z</time>
      </trkpt>
      <trkpt lat="43.53314" lon="1.50547">
        <ele>135.7</ele>
        <time>2017-03-02T10:57:21Z</time>
      </trkpt>
      <trkpt lat="43.53303" lon="1.50549">
        <ele>137.1</ele>
        <time>2017-03-02T10:57:23Z</time>
      </trkpt>
      <trkpt lat="43.53291" lon="1.5055">
        <ele>137.7</ele>
        <time>2017-03-02T10:57:25Z</time>
      </trkpt>
      <trkpt lat="43.53281" lon="1.50552">
        <ele>138.5</ele>
        <time>2017-03-02T10:57:27Z</time>
      </trkpt>
      <trkpt lat="43.53271" lon="1.50553">
        <ele>138.9</ele>
        <time>2017-03-02T10:57:29Z</time>
      </trkpt>
      <trkpt lat="43.53258" lon="1.50555">
        <ele>139</ele>
        <time>2017-03-02T10:57:31Z</time>
      </trkpt>
      <trkpt lat="43.53246" lon="1.50556">
        <ele>139.1</ele>
        <time>2017-03-02T10:57:33Z</time>
      </trkpt>
      <trkpt lat="43.53236" lon="1.50558">
        <ele>139.3</ele>
        <time>2017-03-02T10:57:35Z</time>
      </trkpt>
      <trkpt lat="43.53224" lon="1.50559">
        <ele>139.7</ele>
        <time>2017-03-02T10:57:37Z</time>
      </trkpt>
      <trkpt lat="43.53214" lon="1.50562">
        <ele>139.9</ele>
        <time>2017-03-02T10:57:39Z</time>
      </trkpt>
      <trkpt lat="43.53204" lon="1.50566">
        <ele>140.6</ele>
        <time>2017-03-02T10:57:41Z</time>
      </trkpt>
      <trkpt lat="43.53194" lon="1.50571">
        <ele>140.3</ele>
        <time>2017-03-02T10:57:43Z</time>
      </trkpt>
      <trkpt lat="43.53183" lon="1.50576">
        <ele>140.3</ele>
        <time>2017-03-02T10:57:45Z</time>
      </trkpt>
      <trkpt lat="43.53172" lon="1.5058">
        <ele>139.8</ele>
        <time>2017-03-02T10:57:47Z</time>
      </trkpt>
      <trkpt lat="43.53161" lon="1.50584">
        <ele>139.6</ele>
        <time>2017-03-02T10:57:49Z</time>
      </trkpt>
      <trkpt lat="43.53151" lon="1.50589">
        <ele>139.5</ele>
        <time>2017-03-02T10:57:51Z</time>
      </trkpt>
      <trkpt lat="43.53139" lon="1.50594">
        <ele>138.9</ele>
        <time>2017-03-02T10:57:53Z</time>
      </trkpt>
      <trkpt lat="43.53129" lon="1.506">
        <ele>138.7</ele>
        <time>2017-03-02T10:57:55Z</time>
      </trkpt>
      <trkpt lat="43.53121" lon="1.50608">
        <ele>139.1</ele>
        <time>2017-03-02T10:57:57Z</time>
      </trkpt>
      <trkpt lat="43.53111" lon="1.50613">
        <ele>139.1</ele>
        <time>2017-03-02T10:57:59Z</time>
      </trkpt>
      <trkpt lat="43.53101" lon="1.50618">
        <ele>139.1</ele>
        <time>2017-03-02T10:58:01Z</time>
      </trkpt>
      <trkpt lat="43.53092" lon="1.50623">
        <ele>139.1</ele>
        <time>2017-03-02T10:58:03Z</time>
      </trkpt>
      <trkpt lat="43.53082" lon="1.50629">
        <ele>139.3</ele>
        <time>2017-03-02T10:58:05Z</time>
      </trkpt>
      <trkpt lat="43.53072" lon="1.50634">
        <ele>139.6</ele>
        <time>2017-03-02T10:58:07Z</time>
      </trkpt>
      <trkpt lat="43.53063" lon="1.5064">
        <ele>139.6</ele>
        <time>2017-03-02T10:58:09Z</time>
      </trkpt>
      <trkpt lat="43.53054" lon="1.50646">
        <ele>139.6</ele>
        <time>2017-03-02T10:58:11Z</time>
      </trkpt>
      <trkpt lat="43.53046" lon="1.50652">
        <ele>139.6</ele>
        <time>2017-03-02T10:58:13Z</time>
      </trkpt>
      <trkpt lat="43.53038" lon="1.50658">
        <ele>139.5</ele>
        <time>2017-03-02T10:58:15Z</time>
      </trkpt>
      <trkpt lat="43.5303" lon="1.50666">
        <ele>139.5</ele>
        <time>2017-03-02T10:58:17Z</time>
      </trkpt>
      <trkpt lat="43.53021" lon="1.50674">
        <ele>139.5</ele>
        <time>2017-03-02T10:58:19Z</time>
      </trkpt>
      <trkpt lat="43.53011" lon="1.50681">
        <ele>139.4</ele>
        <time>2017-03-02T10:58:21Z</time>
      </trkpt>
      <trkpt lat="43.53003" lon="1.50689">
        <ele>138.9</ele>
        <time>2017-03-02T10:58:23Z</time>
      </trkpt>
      <trkpt lat="43.52996" lon="1.50697">
        <ele>138.7</ele>
        <time>2017-03-02T10:58:25Z</time>
      </trkpt>
      <trkpt lat="43.52989" lon="1.50707">
        <ele>138.3</ele>
        <time>2017-03-02T10:58:27Z</time>
      </trkpt>
      <trkpt lat="43.52981" lon="1.50717">
        <ele>138.3</ele>
        <time>2017-03-02T10:58:29Z</time>
      </trkpt>
      <trkpt lat="43.52974" lon="1.50728">
        <ele>138.1</ele>
        <time>2017-03-02T10:58:31Z</time>
      </trkpt>
      <trkpt lat="43.52966" lon="1.50738">
        <ele>137.5</ele>
        <time>2017-03-02T10:58:33Z</time>
      </trkpt>
      <trkpt lat="43.5296" lon="1.50748">
        <ele>137.4</ele>
        <time>2017-03-02T10:58:35Z</time>
      </trkpt>
      <trkpt lat="43.52954" lon="1.50757">
        <ele>136.8</ele>
        <time>2017-03-02T10:58:37Z</time>
      </trkpt>
      <trkpt lat="43.52947" lon="1.50769">
        <ele>136.7</ele>
        <time>2017-03-02T10:58:39Z</time>
      </trkpt>
      <trkpt lat="43.52938" lon="1.50778">
        <ele>136.2</ele>
        <time>2017-03-02T10:58:41Z</time>
      </trkpt>
      <trkpt lat="43.52929" lon="1.50786">
        <ele>135.8</ele>
        <time>2017-03-02T10:58:43Z</time>
      </trkpt>
      <trkpt lat="43.5292" lon="1.50796">
        <ele>135.7</ele>
        <time>2017-03-02T10:58:45Z</time>
      </trkpt>
      <trkpt lat="43.52911" lon="1.50806">
        <ele>135.7</ele>
        <time>2017-03-02T10:58:47Z</time>
      </trkpt>
      <trkpt lat="43.52902" lon="1.50814">
        <ele>135.2</ele>
        <time>2017-03-02T10:58:49Z</time>
      </trkpt>
      <trkpt lat="43.52892" lon="1.50822">
        <ele>135.2</ele>
        <time>2017-03-02T10:58:51Z</time>
      </trkpt>
      <trkpt lat="43.52879" lon="1.50831">
        <ele>135.6</ele>
        <time>2017-03-02T10:58:53Z</time>
      </trkpt>
      <trkpt lat="43.52868" lon="1.50839">
        <ele>135.3</ele>
        <time>2017-03-02T10:58:55Z</time>
      </trkpt>
      <trkpt lat="43.52857" lon="1.50846">
        <ele>135.2</ele>
        <time>2017-03-02T10:58:57Z</time>
      </trkpt>
      <trkpt lat="43.52846" lon="1.50853">
        <ele>135</ele>
        <time>2017-03-02T10:58:59Z</time>
      </trkpt>
      <trkpt lat="43.52835" lon="1.50859">
        <ele>135</ele>
        <time>2017-03-02T10:59:01Z</time>
      </trkpt>
      <trkpt lat="43.52825" lon="1.50865">
        <ele>135.1</ele>
        <time>2017-03-02T10:59:03Z</time>
      </trkpt>
      <trkpt lat="43.52816" lon="1.50869">
        <ele>135</ele>
        <time>2017-03-02T10:59:05Z</time>
      </trkpt>
      <trkpt lat="43.52805" lon="1.50876">
        <ele>134.5</ele>
        <time>2017-03-02T10:59:07Z</time>
      </trkpt>
      <trkpt lat="43.52794" lon="1.50884">
        <ele>133.9</ele>
        <time>2017-03-02T10:59:09Z</time>
      </trkpt>
      <trkpt lat="43.52783" lon="1.50892">
        <ele>133.5</ele>
        <time>2017-03-02T10:59:11Z</time>
      </trkpt>
      <trkpt lat="43.52772" lon="1.50901">
        <ele>133.1</ele>
        <time>2017-03-02T10:59:13Z</time>
      </trkpt>
      <trkpt lat="43.52763" lon="1.50911">
        <ele>132.8</ele>
        <time>2017-03-02T10:59:15Z</time>
      </trkpt>
      <trkpt lat="43.52754" lon="1.50921">
        <ele>132.7</ele>
        <time>2017-03-02T10:59:17Z</time>
      </trkpt>
      <trkpt lat="43.52745" lon="1.50932">
        <ele>132.3</ele>
        <time>2017-03-02T10:59:19Z</time>
      </trkpt>
      <trkpt lat="43.52737" lon="1.50942">
        <ele>132.3</ele>
        <time>2017-03-02T10:59:21Z</time>
      </trkpt>
      <trkpt lat="43.5273" lon="1.50953">
        <ele>132</ele>
        <time>2017-03-02T10:59:23Z</time>
      </trkpt>
      <trkpt lat="43.52724" lon="1.50963">
        <ele>131.4</ele>
        <time>2017-03-02T10:59:25Z</time>
      </trkpt>
      <trkpt lat="43.52718" lon="1.50972">
        <ele>131</ele>
        <time>2017-03-02T10:59:27Z</time>
      </trkpt>
      <trkpt lat="43.52712" lon="1.50984">
        <ele>130.6</ele>
        <time>2017-03-02T10:59:29Z</time>
      </trkpt>
      <trkpt lat="43.52707" lon="1.50993">
        <ele>130.3</ele>
        <time>2017-03-02T10:59:31Z</time>
      </trkpt>
      <trkpt lat="43.52704" lon="1.51004">
        <ele>130.2</ele>
        <time>2017-03-02T10:59:33Z</time>
      </trkpt>
      <trkpt lat="43.527" lon="1.51017">
        <ele>130</ele>
        <time>2017-03-02T10:59:35Z</time>
      </trkpt>
      <trkpt lat="43.52695" lon="1.5103">
        <ele>129.6</ele>
        <time>2017-03-02T10:59:37Z</time>
      </trkpt>
      <trkpt lat="43.52692" lon="1.51044">
        <ele>129.2</ele>
        <time>2017-03-02T10:59:39Z</time>
      </trkpt>
      <trkpt lat="43.52688" lon="1.51058">
        <ele>128.6</ele>
        <time>2017-03-02T10:59:41Z</time>
      </trkpt>
      <trkpt lat="43.52685" lon="1.51075">
        <ele>128</ele>
        <time>2017-03-02T10:59:43Z</time>
      </trkpt>
      <trkpt lat="43.52682" lon="1.51089">
        <ele>127.5</ele>
        <time>2017-03-02T10:59:45Z</time>
      </trkpt>
      <trkpt lat="43.5268" lon="1.51103">
        <ele>127</ele>
        <time>2017-03-02T10:59:47Z</time>
      </trkpt>
      <trkpt lat="43.52677" lon="1.51117">
        <ele>126.9</ele>
        <time>2017-03-02T10:59:49Z</time>
      </trkpt>
      <trkpt lat="43.52674" lon="1.51132">
        <ele>126.6</ele>
        <time>2017-03-02T10:59:51Z</time>
      </trkpt>
      <trkpt lat="43.52672" lon="1.51146">
        <ele>126.5</ele>
        <time>2017-03-02T10:59:53Z</time>
      </trkpt>
      <trkpt lat="43.52669" lon="1.51162">
        <ele>126.2</ele>
        <time>2017-03-02T10:59:55Z</time>
      </trkpt>
      <trkpt lat="43.52665" lon="1.51178">
        <ele>125.8</ele>
        <time>2017-03-02T10:59:57Z</time>
      </trkpt>
      <trkpt lat="43.52662" lon="1.51196">
        <ele>125.5</ele>
        <time>2017-03-02T10:59:59Z</time>
      </trkpt>
      <trkpt lat="43.5266" lon="1.51206">
        <ele>125.4</ele>
        <time>2017-03-02T11:00:00Z</time>
      </trkpt>
      <trkpt lat="43.52657" lon="1.51218">
        <ele>125.6</ele>
        <time>2017-03-02T11:00:01Z</time>
      </trkpt>
      <trkpt lat="43.52655" lon="1.51236">
        <ele>125.6</ele>
        <time>2017-03-02T11:00:03Z</time>
      </trkpt>
      <trkpt lat="43.52652" lon="1.51255">
        <ele>125.7</ele>
        <time>2017-03-02T11:00:05Z</time>
      </trkpt>
      <trkpt lat="43.52651" lon="1.51271">
        <ele>125.7</ele>
        <time>2017-03-02T11:00:07Z</time>
      </trkpt>
      <trkpt lat="43.52649" lon="1.51287">
        <ele>125.5</ele>
        <time>2017-03-02T11:00:09Z</time>
      </trkpt>
      <trkpt lat="43.52648" lon="1.51303">
        <ele>125.3</ele>
        <time>2017-03-02T11:00:11Z</time>
      </trkpt>
      <trkpt lat="43.52648" lon="1.51316">
        <ele>125</ele>
        <time>2017-03-02T11:00:13Z</time>
      </trkpt>
      <trkpt lat="43.52648" lon="1.51328">
        <ele>124.5</ele>
        <time>2017-03-02T11:00:15Z</time>
      </trkpt>
      <trkpt lat="43.52647" lon="1.51341">
        <ele>124</ele>
        <time>2017-03-02T11:00:17Z</time>
      </trkpt>
      <trkpt lat="43.52647" lon="1.51353">
        <ele>123.6</ele>
        <time>2017-03-02T11:00:20Z</time>
      </trkpt>
      <trkpt lat="43.52646" lon="1.51367">
        <ele>123.1</ele>
        <time>2017-03-02T11:00:21Z</time>
      </trkpt>
      <trkpt lat="43.52647" lon="1.51379">
        <ele>122.7</ele>
        <time>2017-03-02T11:00:23Z</time>
      </trkpt>
      <trkpt lat="43.52646" lon="1.51395">
        <ele>122.5</ele>
        <time>2017-03-02T11:00:25Z</time>
      </trkpt>
      <trkpt lat="43.52643" lon="1.51413">
        <ele>122.3</ele>
        <time>2017-03-02T11:00:27Z</time>
      </trkpt>
      <trkpt lat="43.52641" lon="1.51423">
        <ele>122</ele>
        <time>2017-03-02T11:00:28Z</time>
      </trkpt>
      <trkpt lat="43.52639" lon="1.51439">
        <ele>121.5</ele>
        <time>2017-03-02T11:00:30Z</time>
      </trkpt>
      <trkpt lat="43.52636" lon="1.51456">
        <ele>120.9</ele>
        <time>2017-03-02T11:00:32Z</time>
      </trkpt>
      <trkpt lat="43.52634" lon="1.51473">
        <ele>120.9</ele>
        <time>2017-03-02T11:00:34Z</time>
      </trkpt>
      <trkpt lat="43.52631" lon="1.51489">
        <ele>120.5</ele>
        <time>2017-03-02T11:00:36Z</time>
      </trkpt>
      <trkpt lat="43.5263" lon="1.51504">
        <ele>120.2</ele>
        <time>2017-03-02T11:00:38Z</time>
      </trkpt>
      <trkpt lat="43.52628" lon="1.51521">
        <ele>119.9</ele>
        <time>2017-03-02T11:00:40Z</time>
      </trkpt>
      <trkpt lat="43.52626" lon="1.51536">
        <ele>119.7</ele>
        <time>2017-03-02T11:00:42Z</time>
      </trkpt>
      <trkpt lat="43.52624" lon="1.51548">
        <ele>119.2</ele>
        <time>2017-03-02T11:00:44Z</time>
      </trkpt>
      <trkpt lat="43.52619" lon="1.51558">
        <ele>118.8</ele>
        <time>2017-03-02T11:00:46Z</time>
      </trkpt>
      <trkpt lat="43.52616" lon="1.51568">
        <ele>118.9</ele>
        <time>2017-03-02T11:00:48Z</time>
      </trkpt>
      <trkpt lat="43.52613" lon="1.51579">
        <ele>119.2</ele>
        <time>2017-03-02T11:00:50Z</time>
      </trkpt>
      <trkpt lat="43.52612" lon="1.5159">
        <ele>119.3</ele>
        <time>2017-03-02T11:00:52Z</time>
      </trkpt>
      <trkpt lat="43.52608" lon="1.51602">
        <ele>119.1</ele>
        <time>2017-03-02T11:00:54Z</time>
      </trkpt>
      <trkpt lat="43.52606" lon="1.51613">
        <ele>118.9</ele>
        <time>2017-03-02T11:00:56Z</time>
      </trkpt>
      <trkpt lat="43.52603" lon="1.51625">
        <ele>118.9</ele>
        <time>2017-03-02T11:00:58Z</time>
      </trkpt>
      <trkpt lat="43.526" lon="1.51637">
        <ele>118.4</ele>
        <time>2017-03-02T11:01:00Z</time>
      </trkpt>
      <trkpt lat="43.52598" lon="1.5165">
        <ele>118.7</ele>
        <time>2017-03-02T11:01:02Z</time>
      </trkpt>
      <trkpt lat="43.52596" lon="1.51661">
        <ele>118.5</ele>
        <time>2017-03-02T11:01:04Z</time>
      </trkpt>
      <trkpt lat="43.52592" lon="1.51671">
        <ele>118.3</ele>
        <time>2017-03-02T11:01:06Z</time>
      </trkpt>
      <trkpt lat="43.52588" lon="1.51685">
        <ele>118.6</ele>
        <time>2017-03-02T11:01:08Z</time>
      </trkpt>
      <trkpt lat="43.52583" lon="1.51699">
        <ele>118.9</ele>
        <time>2017-03-02T11:01:10Z</time>
      </trkpt>
      <trkpt lat="43.52579" lon="1.51711">
        <ele>119.1</ele>
        <time>2017-03-02T11:01:12Z</time>
      </trkpt>
      <trkpt lat="43.52576" lon="1.51721">
        <ele>118.6</ele>
        <time>2017-03-02T11:01:14Z</time>
      </trkpt>
      <trkpt lat="43.52572" lon="1.51732">
        <ele>118.7</ele>
        <time>2017-03-02T11:01:16Z</time>
      </trkpt>
      <trkpt lat="43.52567" lon="1.51742">
        <ele>118.8</ele>
        <time>2017-03-02T11:01:18Z</time>
      </trkpt>
      <trkpt lat="43.5256" lon="1.51753">
        <ele>118.9</ele>
        <time>2017-03-02T11:01:20Z</time>
      </trkpt>
      <trkpt lat="43.52554" lon="1.51761">
        <ele>119</ele>
        <time>2017-03-02T11:01:21Z</time>
      </trkpt>
      <trkpt lat="43.52548" lon="1.51769">
        <ele>119.2</ele>
        <time>2017-03-02T11:01:22Z</time>
      </trkpt>
      <trkpt lat="43.52538" lon="1.51782">
        <ele>120.7</ele>
        <time>2017-03-02T11:01:24Z</time>
      </trkpt>
      <trkpt lat="43.52529" lon="1.51792">
        <ele>121.5</ele>
        <time>2017-03-02T11:01:26Z</time>
      </trkpt>
      <trkpt lat="43.52523" lon="1.51799">
        <ele>122.6</ele>
        <time>2017-03-02T11:01:27Z</time>
      </trkpt>
      <trkpt lat="43.52517" lon="1.51806">
        <ele>124.2</ele>
        <time>2017-03-02T11:01:28Z</time>
      </trkpt>
      <trkpt lat="43.52507" lon="1.51816">
        <ele>125.9</ele>
        <time>2017-03-02T11:01:30Z</time>
      </trkpt>
      <trkpt lat="43.52496" lon="1.51825">
        <ele>127.8</ele>
        <time>2017-03-02T11:01:32Z</time>
      </trkpt>
      <trkpt lat="43.52486" lon="1.51834">
        <ele>129.4</ele>
        <time>2017-03-02T11:01:34Z</time>
      </trkpt>
      <trkpt lat="43.52476" lon="1.51842">
        <ele>130.4</ele>
        <time>2017-03-02T11:01:36Z</time>
      </trkpt>
      <trkpt lat="43.52465" lon="1.51849">
        <ele>132.1</ele>
        <time>2017-03-02T11:01:38Z</time>
      </trkpt>
      <trkpt lat="43.52455" lon="1.51855">
        <ele>133.5</ele>
        <time>2017-03-02T11:01:40Z</time>
      </trkpt>
      <trkpt lat="43.52445" lon="1.51861">
        <ele>135.2</ele>
        <time>2017-03-02T11:01:42Z</time>
      </trkpt>
      <trkpt lat="43.52438" lon="1.51866">
        <ele>136.3</ele>
        <time>2017-03-02T11:01:44Z</time>
      </trkpt>
      <trkpt lat="43.5243" lon="1.5187">
        <ele>137.6</ele>
        <time>2017-03-02T11:01:46Z</time>
      </trkpt>
      <trkpt lat="43.5242" lon="1.51873">
        <ele>139.5</ele>
        <time>2017-03-02T11:01:49Z</time>
      </trkpt>
      <trkpt lat="43.52412" lon="1.51877">
        <ele>140.6</ele>
        <time>2017-03-02T11:01:53Z</time>
      </trkpt>
      <trkpt lat="43.52403" lon="1.51879">
        <ele>144</ele>
        <time>2017-03-02T11:02:00Z</time>
      </trkpt>
      <trkpt lat="43.52392" lon="1.5188">
        <ele>144.6</ele>
        <time>2017-03-02T11:02:03Z</time>
      </trkpt>
      <trkpt lat="43.52382" lon="1.51881">
        <ele>144.8</ele>
        <time>2017-03-02T11:02:06Z</time>
      </trkpt>
      <trkpt lat="43.52373" lon="1.51885">
        <ele>144.8</ele>
        <time>2017-03-02T11:02:08Z</time>
      </trkpt>
      <trkpt lat="43.52365" lon="1.51886">
        <ele>144.8</ele>
        <time>2017-03-02T11:02:10Z</time>
      </trkpt>
      <trkpt lat="43.52357" lon="1.5189">
        <ele>146.1</ele>
        <time>2017-03-02T11:02:13Z</time>
      </trkpt>
      <trkpt lat="43.52349" lon="1.51893">
        <ele>146.8</ele>
        <time>2017-03-02T11:02:16Z</time>
      </trkpt>
      <trkpt lat="43.52342" lon="1.51898">
        <ele>147.9</ele>
        <time>2017-03-02T11:02:19Z</time>
      </trkpt>
      <trkpt lat="43.52334" lon="1.51904">
        <ele>148.5</ele>
        <time>2017-03-02T11:02:22Z</time>
      </trkpt>
      <trkpt lat="43.52324" lon="1.51908">
        <ele>148.3</ele>
        <time>2017-03-02T11:02:25Z</time>
      </trkpt>
      <trkpt lat="43.52317" lon="1.51911">
        <ele>148.4</ele>
        <time>2017-03-02T11:02:27Z</time>
      </trkpt>
      <trkpt lat="43.5231" lon="1.51914">
        <ele>148.8</ele>
        <time>2017-03-02T11:02:29Z</time>
      </trkpt>
      <trkpt lat="43.52301" lon="1.51917">
        <ele>148.7</ele>
        <time>2017-03-02T11:02:31Z</time>
      </trkpt>
      <trkpt lat="43.52292" lon="1.5192">
        <ele>149</ele>
        <time>2017-03-02T11:02:33Z</time>
      </trkpt>
      <trkpt lat="43.52284" lon="1.51923">
        <ele>149.3</ele>
        <time>2017-03-02T11:02:35Z</time>
      </trkpt>
      <trkpt lat="43.52277" lon="1.51927">
        <ele>149.4</ele>
        <time>2017-03-02T11:02:37Z</time>
      </trkpt>
      <trkpt lat="43.52269" lon="1.51931">
        <ele>149.1</ele>
        <time>2017-03-02T11:02:39Z</time>
      </trkpt>
      <trkpt lat="43.5226" lon="1.51933">
        <ele>148.7</ele>
        <time>2017-03-02T11:02:41Z</time>
      </trkpt>
      <trkpt lat="43.52252" lon="1.51937">
        <ele>148.4</ele>
        <time>2017-03-02T11:02:43Z</time>
      </trkpt>
      <trkpt lat="43.52242" lon="1.5194">
        <ele>147.9</ele>
        <time>2017-03-02T11:02:45Z</time>
      </trkpt>
      <trkpt lat="43.52232" lon="1.51943">
        <ele>147.8</ele>
        <time>2017-03-02T11:02:47Z</time>
      </trkpt>
      <trkpt lat="43.52222" lon="1.51945">
        <ele>147.4</ele>
        <time>2017-03-02T11:02:49Z</time>
      </trkpt>
      <trkpt lat="43.52213" lon="1.51948">
        <ele>147.3</ele>
        <time>2017-03-02T11:02:51Z</time>
      </trkpt>
      <trkpt lat="43.522" lon="1.51949">
        <ele>146.5</ele>
        <time>2017-03-02T11:02:53Z</time>
      </trkpt>
      <trkpt lat="43.52189" lon="1.5195">
        <ele>145.9</ele>
        <time>2017-03-02T11:02:55Z</time>
      </trkpt>
      <trkpt lat="43.52179" lon="1.5195">
        <ele>144.9</ele>
        <time>2017-03-02T11:02:57Z</time>
      </trkpt>
      <trkpt lat="43.52168" lon="1.51951">
        <ele>143.9</ele>
        <time>2017-03-02T11:02:59Z</time>
      </trkpt>
      <trkpt lat="43.52156" lon="1.51951">
        <ele>143.3</ele>
        <time>2017-03-02T11:03:01Z</time>
      </trkpt>
      <trkpt lat="43.52145" lon="1.51952">
        <ele>142.7</ele>
        <time>2017-03-02T11:03:03Z</time>
      </trkpt>
      <trkpt lat="43.52134" lon="1.51953">
        <ele>142</ele>
        <time>2017-03-02T11:03:05Z</time>
      </trkpt>
      <trkpt lat="43.52123" lon="1.51953">
        <ele>141.3</ele>
        <time>2017-03-02T11:03:07Z</time>
      </trkpt>
      <trkpt lat="43.52114" lon="1.51955">
        <ele>141.8</ele>
        <time>2017-03-02T11:03:09Z</time>
      </trkpt>
      <trkpt lat="43.52104" lon="1.51958">
        <ele>141.5</ele>
        <time>2017-03-02T11:03:11Z</time>
      </trkpt>
      <trkpt lat="43.52097" lon="1.51964">
        <ele>141.4</ele>
        <time>2017-03-02T11:03:13Z</time>
      </trkpt>
      <trkpt lat="43.52088" lon="1.51971">
        <ele>141.1</ele>
        <time>2017-03-02T11:03:15Z</time>
      </trkpt>
      <trkpt lat="43.52079" lon="1.51977">
        <ele>140.7</ele>
        <time>2017-03-02T11:03:17Z</time>
      </trkpt>
      <trkpt lat="43.5207" lon="1.51982">
        <ele>140.1</ele>
        <time>2017-03-02T11:03:19Z</time>
      </trkpt>
      <trkpt lat="43.52062" lon="1.51988">
        <ele>140.1</ele>
        <time>2017-03-02T11:03:21Z</time>
      </trkpt>
      <trkpt lat="43.52054" lon="1.51994">
        <ele>139.6</ele>
        <time>2017-03-02T11:03:23Z</time>
      </trkpt>
      <trkpt lat="43.52047" lon="1.52">
        <ele>139.2</ele>
        <time>2017-03-02T11:03:26Z</time>
      </trkpt>
      <trkpt lat="43.52038" lon="1.52005">
        <ele>138.7</ele>
        <time>2017-03-02T11:03:27Z</time>
      </trkpt>
      <trkpt lat="43.52028" lon="1.52009">
        <ele>138.4</ele>
        <time>2017-03-02T11:03:29Z</time>
      </trkpt>
      <trkpt lat="43.52016" lon="1.52012">
        <ele>138.3</ele>
        <time>2017-03-02T11:03:31Z</time>
      </trkpt>
      <trkpt lat="43.52005" lon="1.52014">
        <ele>138</ele>
        <time>2017-03-02T11:03:33Z</time>
      </trkpt>
      <trkpt lat="43.51994" lon="1.52016">
        <ele>137.7</ele>
        <time>2017-03-02T11:03:35Z</time>
      </trkpt>
      <trkpt lat="43.51982" lon="1.52017">
        <ele>137.9</ele>
        <time>2017-03-02T11:03:37Z</time>
      </trkpt>
      <trkpt lat="43.51971" lon="1.52018">
        <ele>137.5</ele>
        <time>2017-03-02T11:03:39Z</time>
      </trkpt>
      <trkpt lat="43.51959" lon="1.52018">
        <ele>137.7</ele>
        <time>2017-03-02T11:03:41Z</time>
      </trkpt>
      <trkpt lat="43.51947" lon="1.52017">
        <ele>137.9</ele>
        <time>2017-03-02T11:03:43Z</time>
      </trkpt>
      <trkpt lat="43.51935" lon="1.52015">
        <ele>138.2</ele>
        <time>2017-03-02T11:03:45Z</time>
      </trkpt>
      <trkpt lat="43.51923" lon="1.52012">
        <ele>138</ele>
        <time>2017-03-02T11:03:47Z</time>
      </trkpt>
      <trkpt lat="43.51911" lon="1.52007">
        <ele>137.9</ele>
        <time>2017-03-02T11:03:49Z</time>
      </trkpt>
      <trkpt lat="43.519" lon="1.52003">
        <ele>138</ele>
        <time>2017-03-02T11:03:51Z</time>
      </trkpt>
      <trkpt lat="43.5189" lon="1.51998">
        <ele>137.9</ele>
        <time>2017-03-02T11:03:53Z</time>
      </trkpt>
      <trkpt lat="43.5188" lon="1.51994">
        <ele>138</ele>
        <time>2017-03-02T11:03:55Z</time>
      </trkpt>
      <trkpt lat="43.5187" lon="1.51991">
        <ele>138.1</ele>
        <time>2017-03-02T11:03:57Z</time>
      </trkpt>
      <trkpt lat="43.5186" lon="1.51987">
        <ele>137.8</ele>
        <time>2017-03-02T11:03:59Z</time>
      </trkpt>
      <trkpt lat="43.51849" lon="1.51982">
        <ele>137.8</ele>
        <time>2017-03-02T11:04:01Z</time>
      </trkpt>
      <trkpt lat="43.51839" lon="1.51977">
        <ele>137.6</ele>
        <time>2017-03-02T11:04:03Z</time>
      </trkpt>
      <trkpt lat="43.5183" lon="1.51977">
        <ele>137.2</ele>
        <time>2017-03-02T11:04:05Z</time>
      </trkpt>
      <trkpt lat="43.51819" lon="1.51976">
        <ele>137.3</ele>
        <time>2017-03-02T11:04:07Z</time>
      </trkpt>
      <trkpt lat="43.51807" lon="1.51977">
        <ele>137.4</ele>
        <time>2017-03-02T11:04:09Z</time>
      </trkpt>
      <trkpt lat="43.51797" lon="1.5198">
        <ele>137.3</ele>
        <time>2017-03-02T11:04:11Z</time>
      </trkpt>
      <trkpt lat="43.51788" lon="1.51984">
        <ele>136.9</ele>
        <time>2017-03-02T11:04:13Z</time>
      </trkpt>
      <trkpt lat="43.51779" lon="1.51989">
        <ele>136.6</ele>
        <time>2017-03-02T11:04:15Z</time>
      </trkpt>
      <trkpt lat="43.51771" lon="1.51994">
        <ele>136.2</ele>
        <time>2017-03-02T11:04:17Z</time>
      </trkpt>
      <trkpt lat="43.51764" lon="1.51998">
        <ele>136</ele>
        <time>2017-03-02T11:04:19Z</time>
      </trkpt>
      <trkpt lat="43.51757" lon="1.52003">
        <ele>135.3</ele>
        <time>2017-03-02T11:04:21Z</time>
      </trkpt>
      <trkpt lat="43.51748" lon="1.52009">
        <ele>134.8</ele>
        <time>2017-03-02T11:04:23Z</time>
      </trkpt>
      <trkpt lat="43.51737" lon="1.52017">
        <ele>134.2</ele>
        <time>2017-03-02T11:04:25Z</time>
      </trkpt>
      <trkpt lat="43.51728" lon="1.52022">
        <ele>133.5</ele>
        <time>2017-03-02T11:04:27Z</time>
      </trkpt>
      <trkpt lat="43.51719" lon="1.52029">
        <ele>133.6</ele>
        <time>2017-03-02T11:04:29Z</time>
      </trkpt>
      <trkpt lat="43.5171" lon="1.52033">
        <ele>133.1</ele>
        <time>2017-03-02T11:04:31Z</time>
      </trkpt>
      <trkpt lat="43.51702" lon="1.52037">
        <ele>132.9</ele>
        <time>2017-03-02T11:04:33Z</time>
      </trkpt>
      <trkpt lat="43.51691" lon="1.52042">
        <ele>132.3</ele>
        <time>2017-03-02T11:04:35Z</time>
      </trkpt>
      <trkpt lat="43.5168" lon="1.52047">
        <ele>132.3</ele>
        <time>2017-03-02T11:04:37Z</time>
      </trkpt>
      <trkpt lat="43.51668" lon="1.52051">
        <ele>132.2</ele>
        <time>2017-03-02T11:04:39Z</time>
      </trkpt>
      <trkpt lat="43.51656" lon="1.52055">
        <ele>133</ele>
        <time>2017-03-02T11:04:41Z</time>
      </trkpt>
      <trkpt lat="43.51645" lon="1.52058">
        <ele>133.5</ele>
        <time>2017-03-02T11:04:43Z</time>
      </trkpt>
      <trkpt lat="43.51633" lon="1.52059">
        <ele>133.7</ele>
        <time>2017-03-02T11:04:45Z</time>
      </trkpt>
      <trkpt lat="43.51621" lon="1.52058">
        <ele>133.7</ele>
        <time>2017-03-02T11:04:47Z</time>
      </trkpt>
      <trkpt lat="43.51608" lon="1.52057">
        <ele>133.3</ele>
        <time>2017-03-02T11:04:49Z</time>
      </trkpt>
      <trkpt lat="43.51599" lon="1.52054">
        <ele>132.9</ele>
        <time>2017-03-02T11:04:51Z</time>
      </trkpt>
      <trkpt lat="43.51591" lon="1.52048">
        <ele>132.7</ele>
        <time>2017-03-02T11:04:53Z</time>
      </trkpt>
      <trkpt lat="43.51582" lon="1.52039">
        <ele>132.5</ele>
        <time>2017-03-02T11:04:55Z</time>
      </trkpt>
      <trkpt lat="43.51573" lon="1.5203">
        <ele>132.6</ele>
        <time>2017-03-02T11:04:57Z</time>
      </trkpt>
      <trkpt lat="43.51567" lon="1.5202">
        <ele>132.7</ele>
        <time>2017-03-02T11:04:59Z</time>
      </trkpt>
      <trkpt lat="43.51559" lon="1.52008">
        <ele>132.6</ele>
        <time>2017-03-02T11:05:01Z</time>
      </trkpt>
      <trkpt lat="43.51552" lon="1.51998">
        <ele>132.9</ele>
        <time>2017-03-02T11:05:03Z</time>
      </trkpt>
      <trkpt lat="43.51545" lon="1.51988">
        <ele>132.7</ele>
        <time>2017-03-02T11:05:05Z</time>
      </trkpt>
      <trkpt lat="43.51535" lon="1.51979">
        <ele>132.3</ele>
        <time>2017-03-02T11:05:07Z</time>
      </trkpt>
      <trkpt lat="43.51524" lon="1.51971">
        <ele>132.2</ele>
        <time>2017-03-02T11:05:09Z</time>
      </trkpt>
      <trkpt lat="43.51515" lon="1.51961">
        <ele>132.6</ele>
        <time>2017-03-02T11:05:11Z</time>
      </trkpt>
      <trkpt lat="43.51507" lon="1.51951">
        <ele>132.9</ele>
        <time>2017-03-02T11:05:13Z</time>
      </trkpt>
      <trkpt lat="43.51499" lon="1.51941">
        <ele>133</ele>
        <time>2017-03-02T11:05:15Z</time>
      </trkpt>
      <trkpt lat="43.51494" lon="1.51929">
        <ele>133.5</ele>
        <time>2017-03-02T11:05:18Z</time>
      </trkpt>
      <trkpt lat="43.5149" lon="1.51917">
        <ele>134.2</ele>
        <time>2017-03-02T11:05:19Z</time>
      </trkpt>
      <trkpt lat="43.51486" lon="1.51904">
        <ele>135</ele>
        <time>2017-03-02T11:05:21Z</time>
      </trkpt>
      <trkpt lat="43.51483" lon="1.51889">
        <ele>135.2</ele>
        <time>2017-03-02T11:05:23Z</time>
      </trkpt>
      <trkpt lat="43.51481" lon="1.51873">
        <ele>135.5</ele>
        <time>2017-03-02T11:05:25Z</time>
      </trkpt>
      <trkpt lat="43.51479" lon="1.51859">
        <ele>135.7</ele>
        <time>2017-03-02T11:05:27Z</time>
      </trkpt>
      <trkpt lat="43.51478" lon="1.51846">
        <ele>135.8</ele>
        <time>2017-03-02T11:05:29Z</time>
      </trkpt>
      <trkpt lat="43.51476" lon="1.51831">
        <ele>135.7</ele>
        <time>2017-03-02T11:05:31Z</time>
      </trkpt>
      <trkpt lat="43.51474" lon="1.51817">
        <ele>135.8</ele>
        <time>2017-03-02T11:05:33Z</time>
      </trkpt>
      <trkpt lat="43.51476" lon="1.51804">
        <ele>136</ele>
        <time>2017-03-02T11:05:35Z</time>
      </trkpt>
      <trkpt lat="43.51478" lon="1.51792">
        <ele>136.1</ele>
        <time>2017-03-02T11:05:37Z</time>
      </trkpt>
      <trkpt lat="43.5148" lon="1.51779">
        <ele>136.5</ele>
        <time>2017-03-02T11:05:39Z</time>
      </trkpt>
      <trkpt lat="43.51482" lon="1.51765">
        <ele>136.4</ele>
        <time>2017-03-02T11:05:41Z</time>
      </trkpt>
      <trkpt lat="43.51482" lon="1.5175">
        <ele>136.2</ele>
        <time>2017-03-02T11:05:43Z</time>
      </trkpt>
      <trkpt lat="43.5148" lon="1.51734">
        <ele>135.9</ele>
        <time>2017-03-02T11:05:45Z</time>
      </trkpt>
      <trkpt lat="43.51477" lon="1.5172">
        <ele>135.8</ele>
        <time>2017-03-02T11:05:47Z</time>
      </trkpt>
      <trkpt lat="43.51473" lon="1.51707">
        <ele>135.6</ele>
        <time>2017-03-02T11:05:49Z</time>
      </trkpt>
      <trkpt lat="43.51468" lon="1.51695">
        <ele>135.4</ele>
        <time>2017-03-02T11:05:51Z</time>
      </trkpt>
      <trkpt lat="43.51462" lon="1.51683">
        <ele>135.8</ele>
        <time>2017-03-02T11:05:53Z</time>
      </trkpt>
      <trkpt lat="43.51453" lon="1.51671">
        <ele>136.9</ele>
        <time>2017-03-02T11:05:55Z</time>
      </trkpt>
      <trkpt lat="43.51442" lon="1.51663">
        <ele>137.5</ele>
        <time>2017-03-02T11:05:57Z</time>
      </trkpt>
      <trkpt lat="43.5143" lon="1.51659">
        <ele>138.4</ele>
        <time>2017-03-02T11:05:59Z</time>
      </trkpt>
      <trkpt lat="43.51418" lon="1.51658">
        <ele>139.2</ele>
        <time>2017-03-02T11:06:01Z</time>
      </trkpt>
      <trkpt lat="43.51408" lon="1.5166">
        <ele>139.9</ele>
        <time>2017-03-02T11:06:03Z</time>
      </trkpt>
      <trkpt lat="43.51396" lon="1.51663">
        <ele>140.9</ele>
        <time>2017-03-02T11:06:05Z</time>
      </trkpt>
      <trkpt lat="43.51385" lon="1.51666">
        <ele>141.6</ele>
        <time>2017-03-02T11:06:07Z</time>
      </trkpt>
      <trkpt lat="43.51375" lon="1.51669">
        <ele>142.3</ele>
        <time>2017-03-02T11:06:09Z</time>
      </trkpt>
      <trkpt lat="43.51363" lon="1.51672">
        <ele>142.8</ele>
        <time>2017-03-02T11:06:11Z</time>
      </trkpt>
      <trkpt lat="43.51352" lon="1.51676">
        <ele>143.3</ele>
        <time>2017-03-02T11:06:13Z</time>
      </trkpt>
      <trkpt lat="43.5134" lon="1.51679">
        <ele>143.6</ele>
        <time>2017-03-02T11:06:15Z</time>
      </trkpt>
      <trkpt lat="43.51329" lon="1.51683">
        <ele>143.9</ele>
        <time>2017-03-02T11:06:17Z</time>
      </trkpt>
      <trkpt lat="43.51318" lon="1.51686">
        <ele>144.6</ele>
        <time>2017-03-02T11:06:19Z</time>
      </trkpt>
      <trkpt lat="43.51307" lon="1.51689">
        <ele>145</ele>
        <time>2017-03-02T11:06:21Z</time>
      </trkpt>
      <trkpt lat="43.51295" lon="1.51692">
        <ele>145.1</ele>
        <time>2017-03-02T11:06:23Z</time>
      </trkpt>
      <trkpt lat="43.51283" lon="1.51695">
        <ele>145.2</ele>
        <time>2017-03-02T11:06:25Z</time>
      </trkpt>
      <trkpt lat="43.51272" lon="1.517">
        <ele>145.6</ele>
        <time>2017-03-02T11:06:27Z</time>
      </trkpt>
      <trkpt lat="43.5126" lon="1.51703">
        <ele>145.6</ele>
        <time>2017-03-02T11:06:29Z</time>
      </trkpt>
      <trkpt lat="43.51249" lon="1.51707">
        <ele>145.7</ele>
        <time>2017-03-02T11:06:31Z</time>
      </trkpt>
      <trkpt lat="43.51238" lon="1.5171">
        <ele>146</ele>
        <time>2017-03-02T11:06:33Z</time>
      </trkpt>
      <trkpt lat="43.51226" lon="1.51712">
        <ele>146</ele>
        <time>2017-03-02T11:06:35Z</time>
      </trkpt>
      <trkpt lat="43.51216" lon="1.51715">
        <ele>145.4</ele>
        <time>2017-03-02T11:06:37Z</time>
      </trkpt>
      <trkpt lat="43.51205" lon="1.51718">
        <ele>145.4</ele>
        <time>2017-03-02T11:06:39Z</time>
      </trkpt>
      <trkpt lat="43.51195" lon="1.51721">
        <ele>145.5</ele>
        <time>2017-03-02T11:06:41Z</time>
      </trkpt>
      <trkpt lat="43.51185" lon="1.51724">
        <ele>145.6</ele>
        <time>2017-03-02T11:06:43Z</time>
      </trkpt>
      <trkpt lat="43.51175" lon="1.51727">
        <ele>145.8</ele>
        <time>2017-03-02T11:06:45Z</time>
      </trkpt>
      <trkpt lat="43.51164" lon="1.5173">
        <ele>145.9</ele>
        <time>2017-03-02T11:06:47Z</time>
      </trkpt>
      <trkpt lat="43.51153" lon="1.51733">
        <ele>145.8</ele>
        <time>2017-03-02T11:06:49Z</time>
      </trkpt>
      <trkpt lat="43.51144" lon="1.51735">
        <ele>146.3</ele>
        <time>2017-03-02T11:06:51Z</time>
      </trkpt>
      <trkpt lat="43.51136" lon="1.51736">
        <ele>146.6</ele>
        <time>2017-03-02T11:06:53Z</time>
      </trkpt>
      <trkpt lat="43.51129" lon="1.51738">
        <ele>147.8</ele>
        <time>2017-03-02T11:06:56Z</time>
      </trkpt>
      <trkpt lat="43.51121" lon="1.51743">
        <ele>149.2</ele>
        <time>2017-03-02T11:07:02Z</time>
      </trkpt>
      <trkpt lat="43.51114" lon="1.51748">
        <ele>149.4</ele>
        <time>2017-03-02T11:07:05Z</time>
      </trkpt>
      <trkpt lat="43.51106" lon="1.51753">
        <ele>149.3</ele>
        <time>2017-03-02T11:07:09Z</time>
      </trkpt>
      <trkpt lat="43.51097" lon="1.5175">
        <ele>149.4</ele>
        <time>2017-03-02T11:07:12Z</time>
      </trkpt>
      <trkpt lat="43.51088" lon="1.51752">
        <ele>149.2</ele>
        <time>2017-03-02T11:07:15Z</time>
      </trkpt>
      <trkpt lat="43.51079" lon="1.51753">
        <ele>148.4</ele>
        <time>2017-03-02T11:07:18Z</time>
      </trkpt>
      <trkpt lat="43.51069" lon="1.51756">
        <ele>148.2</ele>
        <time>2017-03-02T11:07:21Z</time>
      </trkpt>
      <trkpt lat="43.51062" lon="1.51759">
        <ele>147.8</ele>
        <time>2017-03-02T11:07:23Z</time>
      </trkpt>
      <trkpt lat="43.51053" lon="1.51763">
        <ele>149.1</ele>
        <time>2017-03-02T11:07:26Z</time>
      </trkpt>
      <trkpt lat="43.51046" lon="1.51767">
        <ele>149.5</ele>
        <time>2017-03-02T11:07:28Z</time>
      </trkpt>
      <trkpt lat="43.51038" lon="1.5177">
        <ele>149.5</ele>
        <time>2017-03-02T11:07:30Z</time>
      </trkpt>
      <trkpt lat="43.5103" lon="1.51772">
        <ele>149.9</ele>
        <time>2017-03-02T11:07:32Z</time>
      </trkpt>
      <trkpt lat="43.51022" lon="1.51775">
        <ele>149.7</ele>
        <time>2017-03-02T11:07:34Z</time>
      </trkpt>
      <trkpt lat="43.51014" lon="1.51779">
        <ele>149.6</ele>
        <time>2017-03-02T11:07:36Z</time>
      </trkpt>
      <trkpt lat="43.51006" lon="1.51782">
        <ele>149.8</ele>
        <time>2017-03-02T11:07:38Z</time>
      </trkpt>
      <trkpt lat="43.50998" lon="1.51786">
        <ele>149.6</ele>
        <time>2017-03-02T11:07:40Z</time>
      </trkpt>
      <trkpt lat="43.50988" lon="1.51789">
        <ele>149.1</ele>
        <time>2017-03-02T11:07:42Z</time>
      </trkpt>
      <trkpt lat="43.50978" lon="1.51793">
        <ele>148.6</ele>
        <time>2017-03-02T11:07:44Z</time>
      </trkpt>
      <trkpt lat="43.50968" lon="1.51798">
        <ele>148.4</ele>
        <time>2017-03-02T11:07:46Z</time>
      </trkpt>
      <trkpt lat="43.50957" lon="1.51805">
        <ele>148.2</ele>
        <time>2017-03-02T11:07:48Z</time>
      </trkpt>
      <trkpt lat="43.50948" lon="1.51813">
        <ele>147.8</ele>
        <time>2017-03-02T11:07:50Z</time>
      </trkpt>
      <trkpt lat="43.50939" lon="1.5182">
        <ele>147.6</ele>
        <time>2017-03-02T11:07:52Z</time>
      </trkpt>
      <trkpt lat="43.50931" lon="1.51827">
        <ele>147.7</ele>
        <time>2017-03-02T11:07:54Z</time>
      </trkpt>
      <trkpt lat="43.50922" lon="1.51836">
        <ele>147.6</ele>
        <time>2017-03-02T11:07:56Z</time>
      </trkpt>
      <trkpt lat="43.50913" lon="1.51844">
        <ele>147.7</ele>
        <time>2017-03-02T11:07:58Z</time>
      </trkpt>
      <trkpt lat="43.50905" lon="1.51853">
        <ele>147.5</ele>
        <time>2017-03-02T11:08:00Z</time>
      </trkpt>
      <trkpt lat="43.50896" lon="1.5186">
        <ele>147.3</ele>
        <time>2017-03-02T11:08:02Z</time>
      </trkpt>
      <trkpt lat="43.50889" lon="1.51869">
        <ele>147.1</ele>
        <time>2017-03-02T11:08:04Z</time>
      </trkpt>
      <trkpt lat="43.5088" lon="1.51877">
        <ele>147</ele>
        <time>2017-03-02T11:08:06Z</time>
      </trkpt>
      <trkpt lat="43.50872" lon="1.51885">
        <ele>147</ele>
        <time>2017-03-02T11:08:08Z</time>
      </trkpt>
      <trkpt lat="43.50864" lon="1.51893">
        <ele>146.6</ele>
        <time>2017-03-02T11:08:10Z</time>
      </trkpt>
      <trkpt lat="43.50857" lon="1.519">
        <ele>146.6</ele>
        <time>2017-03-02T11:08:12Z</time>
      </trkpt>
      <trkpt lat="43.50851" lon="1.51907">
        <ele>146.1</ele>
        <time>2017-03-02T11:08:14Z</time>
      </trkpt>
      <trkpt lat="43.50845" lon="1.51914">
        <ele>145.8</ele>
        <time>2017-03-02T11:08:16Z</time>
      </trkpt>
      <trkpt lat="43.50839" lon="1.5192">
        <ele>145.6</ele>
        <time>2017-03-02T11:08:19Z</time>
      </trkpt>
      <trkpt lat="43.50832" lon="1.51927">
        <ele>145.3</ele>
        <time>2017-03-02T11:08:20Z</time>
      </trkpt>
      <trkpt lat="43.50825" lon="1.51936">
        <ele>145</ele>
        <time>2017-03-02T11:08:22Z</time>
      </trkpt>
      <trkpt lat="43.50818" lon="1.51945">
        <ele>144.7</ele>
        <time>2017-03-02T11:08:24Z</time>
      </trkpt>
      <trkpt lat="43.5081" lon="1.51953">
        <ele>144.4</ele>
        <time>2017-03-02T11:08:26Z</time>
      </trkpt>
      <trkpt lat="43.50801" lon="1.51964">
        <ele>144.3</ele>
        <time>2017-03-02T11:08:28Z</time>
      </trkpt>
      <trkpt lat="43.50793" lon="1.51975">
        <ele>144.3</ele>
        <time>2017-03-02T11:08:30Z</time>
      </trkpt>
      <trkpt lat="43.50785" lon="1.51985">
        <ele>144.7</ele>
        <time>2017-03-02T11:08:32Z</time>
      </trkpt>
      <trkpt lat="43.50777" lon="1.51995">
        <ele>145</ele>
        <time>2017-03-02T11:08:34Z</time>
      </trkpt>
      <trkpt lat="43.50769" lon="1.52004">
        <ele>145.3</ele>
        <time>2017-03-02T11:08:36Z</time>
      </trkpt>
      <trkpt lat="43.50759" lon="1.52012">
        <ele>144.8</ele>
        <time>2017-03-02T11:08:38Z</time>
      </trkpt>
      <trkpt lat="43.50751" lon="1.5202">
        <ele>144.8</ele>
        <time>2017-03-02T11:08:40Z</time>
      </trkpt>
      <trkpt lat="43.50744" lon="1.52027">
        <ele>145</ele>
        <time>2017-03-02T11:08:42Z</time>
      </trkpt>
      <trkpt lat="43.50735" lon="1.52035">
        <ele>145.2</ele>
        <time>2017-03-02T11:08:44Z</time>
      </trkpt>
      <trkpt lat="43.50725" lon="1.52042">
        <ele>145</ele>
        <time>2017-03-02T11:08:46Z</time>
      </trkpt>
      <trkpt lat="43.50713" lon="1.52048">
        <ele>144.8</ele>
        <time>2017-03-02T11:08:48Z</time>
      </trkpt>
      <trkpt lat="43.50702" lon="1.52054">
        <ele>144.5</ele>
        <time>2017-03-02T11:08:50Z</time>
      </trkpt>
      <trkpt lat="43.5069" lon="1.52058">
        <ele>144.8</ele>
        <time>2017-03-02T11:08:52Z</time>
      </trkpt>
      <trkpt lat="43.50679" lon="1.52061">
        <ele>144.4</ele>
        <time>2017-03-02T11:08:54Z</time>
      </trkpt>
      <trkpt lat="43.50668" lon="1.52064">
        <ele>144.4</ele>
        <time>2017-03-02T11:08:56Z</time>
      </trkpt>
      <trkpt lat="43.50658" lon="1.52066">
        <ele>145.1</ele>
        <time>2017-03-02T11:08:58Z</time>
      </trkpt>
      <trkpt lat="43.50647" lon="1.52068">
        <ele>145.4</ele>
        <time>2017-03-02T11:09:00Z</time>
      </trkpt>
      <trkpt lat="43.50637" lon="1.5207">
        <ele>145.7</ele>
        <time>2017-03-02T11:09:02Z</time>
      </trkpt>
      <trkpt lat="43.50626" lon="1.52072">
        <ele>146.2</ele>
        <time>2017-03-02T11:09:04Z</time>
      </trkpt>
      <trkpt lat="43.50615" lon="1.52073">
        <ele>146.7</ele>
        <time>2017-03-02T11:09:06Z</time>
      </trkpt>
      <trkpt lat="43.50604" lon="1.52075">
        <ele>147</ele>
        <time>2017-03-02T11:09:08Z</time>
      </trkpt>
      <trkpt lat="43.50593" lon="1.52077">
        <ele>147.5</ele>
        <time>2017-03-02T11:09:10Z</time>
      </trkpt>
      <trkpt lat="43.50583" lon="1.52079">
        <ele>147.8</ele>
        <time>2017-03-02T11:09:12Z</time>
      </trkpt>
      <trkpt lat="43.50573" lon="1.5208">
        <ele>147.7</ele>
        <time>2017-03-02T11:09:14Z</time>
      </trkpt>
      <trkpt lat="43.50563" lon="1.52082">
        <ele>147.9</ele>
        <time>2017-03-02T11:09:16Z</time>
      </trkpt>
      <trkpt lat="43.50553" lon="1.52084">
        <ele>147.9</ele>
        <time>2017-03-02T11:09:18Z</time>
      </trkpt>
      <trkpt lat="43.50542" lon="1.52087">
        <ele>147.9</ele>
        <time>2017-03-02T11:09:20Z</time>
      </trkpt>
      <trkpt lat="43.50532" lon="1.5209">
        <ele>147.8</ele>
        <time>2017-03-02T11:09:22Z</time>
      </trkpt>
      <trkpt lat="43.50523" lon="1.52095">
        <ele>147.6</ele>
        <time>2017-03-02T11:09:24Z</time>
      </trkpt>
      <trkpt lat="43.50514" lon="1.52101">
        <ele>147.4</ele>
        <time>2017-03-02T11:09:26Z</time>
      </trkpt>
      <trkpt lat="43.50505" lon="1.52108">
        <ele>147.2</ele>
        <time>2017-03-02T11:09:28Z</time>
      </trkpt>
      <trkpt lat="43.50496" lon="1.52116">
        <ele>147.4</ele>
        <time>2017-03-02T11:09:30Z</time>
      </trkpt>
      <trkpt lat="43.50488" lon="1.52125">
        <ele>147.4</ele>
        <time>2017-03-02T11:09:32Z</time>
      </trkpt>
      <trkpt lat="43.50479" lon="1.52134">
        <ele>147.1</ele>
        <time>2017-03-02T11:09:34Z</time>
      </trkpt>
      <trkpt lat="43.50471" lon="1.52143">
        <ele>147</ele>
        <time>2017-03-02T11:09:36Z</time>
      </trkpt>
      <trkpt lat="43.50464" lon="1.52152">
        <ele>146.8</ele>
        <time>2017-03-02T11:09:38Z</time>
      </trkpt>
      <trkpt lat="43.50456" lon="1.52161">
        <ele>146.8</ele>
        <time>2017-03-02T11:09:40Z</time>
      </trkpt>
      <trkpt lat="43.5045" lon="1.5217">
        <ele>146.5</ele>
        <time>2017-03-02T11:09:42Z</time>
      </trkpt>
      <trkpt lat="43.50445" lon="1.5218">
        <ele>146.5</ele>
        <time>2017-03-02T11:09:44Z</time>
      </trkpt>
      <trkpt lat="43.50441" lon="1.52192">
        <ele>146.3</ele>
        <time>2017-03-02T11:09:46Z</time>
      </trkpt>
      <trkpt lat="43.50438" lon="1.52204">
        <ele>146</ele>
        <time>2017-03-02T11:09:48Z</time>
      </trkpt>
      <trkpt lat="43.50434" lon="1.5222">
        <ele>145.7</ele>
        <time>2017-03-02T11:09:50Z</time>
      </trkpt>
      <trkpt lat="43.50432" lon="1.52236">
        <ele>145.4</ele>
        <time>2017-03-02T11:09:52Z</time>
      </trkpt>
      <trkpt lat="43.50431" lon="1.52253">
        <ele>145.4</ele>
        <time>2017-03-02T11:09:54Z</time>
      </trkpt>
      <trkpt lat="43.5043" lon="1.52269">
        <ele>145.3</ele>
        <time>2017-03-02T11:09:56Z</time>
      </trkpt>
      <trkpt lat="43.50431" lon="1.52285">
        <ele>145</ele>
        <time>2017-03-02T11:09:58Z</time>
      </trkpt>
      <trkpt lat="43.5043" lon="1.523">
        <ele>144.1</ele>
        <time>2017-03-02T11:10:00Z</time>
      </trkpt>
      <trkpt lat="43.50428" lon="1.52315">
        <ele>143.6</ele>
        <time>2017-03-02T11:10:02Z</time>
      </trkpt>
      <trkpt lat="43.50426" lon="1.5233">
        <ele>142.9</ele>
        <time>2017-03-02T11:10:04Z</time>
      </trkpt>
      <trkpt lat="43.50424" lon="1.52345">
        <ele>142.7</ele>
        <time>2017-03-02T11:10:06Z</time>
      </trkpt>
      <trkpt lat="43.50423" lon="1.52358">
        <ele>142.4</ele>
        <time>2017-03-02T11:10:08Z</time>
      </trkpt>
      <trkpt lat="43.50423" lon="1.52373">
        <ele>142.1</ele>
        <time>2017-03-02T11:10:10Z</time>
      </trkpt>
      <trkpt lat="43.50423" lon="1.52388">
        <ele>141.9</ele>
        <time>2017-03-02T11:10:12Z</time>
      </trkpt>
      <trkpt lat="43.50423" lon="1.52402">
        <ele>141.3</ele>
        <time>2017-03-02T11:10:14Z</time>
      </trkpt>
      <trkpt lat="43.50422" lon="1.52417">
        <ele>141</ele>
        <time>2017-03-02T11:10:16Z</time>
      </trkpt>
      <trkpt lat="43.5042" lon="1.52429">
        <ele>140.3</ele>
        <time>2017-03-02T11:10:18Z</time>
      </trkpt>
      <trkpt lat="43.50418" lon="1.5244">
        <ele>140</ele>
        <time>2017-03-02T11:10:20Z</time>
      </trkpt>
      <trkpt lat="43.50416" lon="1.52452">
        <ele>139.4</ele>
        <time>2017-03-02T11:10:22Z</time>
      </trkpt>
      <trkpt lat="43.50413" lon="1.52464">
        <ele>139</ele>
        <time>2017-03-02T11:10:24Z</time>
      </trkpt>
      <trkpt lat="43.5041" lon="1.52476">
        <ele>138.5</ele>
        <time>2017-03-02T11:10:26Z</time>
      </trkpt>
      <trkpt lat="43.50408" lon="1.52488">
        <ele>138.2</ele>
        <time>2017-03-02T11:10:28Z</time>
      </trkpt>
      <trkpt lat="43.50407" lon="1.52502">
        <ele>138</ele>
        <time>2017-03-02T11:10:30Z</time>
      </trkpt>
      <trkpt lat="43.50404" lon="1.52516">
        <ele>137.5</ele>
        <time>2017-03-02T11:10:32Z</time>
      </trkpt>
      <trkpt lat="43.50403" lon="1.52531">
        <ele>137.4</ele>
        <time>2017-03-02T11:10:34Z</time>
      </trkpt>
      <trkpt lat="43.50402" lon="1.52545">
        <ele>136.6</ele>
        <time>2017-03-02T11:10:36Z</time>
      </trkpt>
      <trkpt lat="43.504" lon="1.52558">
        <ele>135.7</ele>
        <time>2017-03-02T11:10:38Z</time>
      </trkpt>
      <trkpt lat="43.50395" lon="1.52575">
        <ele>135</ele>
        <time>2017-03-02T11:10:40Z</time>
      </trkpt>
      <trkpt lat="43.5039" lon="1.52591">
        <ele>134.1</ele>
        <time>2017-03-02T11:10:42Z</time>
      </trkpt>
      <trkpt lat="43.50387" lon="1.52602">
        <ele>133.8</ele>
        <time>2017-03-02T11:10:44Z</time>
      </trkpt>
      <trkpt lat="43.50385" lon="1.52613">
        <ele>133.4</ele>
        <time>2017-03-02T11:10:46Z</time>
      </trkpt>
      <trkpt lat="43.50383" lon="1.52628">
        <ele>134.2</ele>
        <time>2017-03-02T11:10:48Z</time>
      </trkpt>
      <trkpt lat="43.5038" lon="1.52642">
        <ele>134.8</ele>
        <time>2017-03-02T11:10:50Z</time>
      </trkpt>
      <trkpt lat="43.50379" lon="1.52654">
        <ele>134.5</ele>
        <time>2017-03-02T11:10:52Z</time>
      </trkpt>
      <trkpt lat="43.50373" lon="1.52667">
        <ele>134.2</ele>
        <time>2017-03-02T11:10:54Z</time>
      </trkpt>
      <trkpt lat="43.50368" lon="1.52681">
        <ele>134</ele>
        <time>2017-03-02T11:10:56Z</time>
      </trkpt>
      <trkpt lat="43.50362" lon="1.52694">
        <ele>134</ele>
        <time>2017-03-02T11:10:58Z</time>
      </trkpt>
      <trkpt lat="43.50354" lon="1.52708">
        <ele>134</ele>
        <time>2017-03-02T11:11:00Z</time>
      </trkpt>
      <trkpt lat="43.50346" lon="1.52721">
        <ele>134.2</ele>
        <time>2017-03-02T11:11:02Z</time>
      </trkpt>
      <trkpt lat="43.50335" lon="1.52732">
        <ele>134.3</ele>
        <time>2017-03-02T11:11:04Z</time>
      </trkpt>
      <trkpt lat="43.50327" lon="1.52742">
        <ele>134.9</ele>
        <time>2017-03-02T11:11:06Z</time>
      </trkpt>
      <trkpt lat="43.50319" lon="1.52755">
        <ele>135.1</ele>
        <time>2017-03-02T11:11:08Z</time>
      </trkpt>
      <trkpt lat="43.50312" lon="1.52766">
        <ele>135.1</ele>
        <time>2017-03-02T11:11:10Z</time>
      </trkpt>
      <trkpt lat="43.50303" lon="1.52776">
        <ele>135.1</ele>
        <time>2017-03-02T11:11:12Z</time>
      </trkpt>
      <trkpt lat="43.50293" lon="1.52785">
        <ele>135.1</ele>
        <time>2017-03-02T11:11:14Z</time>
      </trkpt>
      <trkpt lat="43.50284" lon="1.52795">
        <ele>135.4</ele>
        <time>2017-03-02T11:11:16Z</time>
      </trkpt>
      <trkpt lat="43.50275" lon="1.52805">
        <ele>135.7</ele>
        <time>2017-03-02T11:11:18Z</time>
      </trkpt>
      <trkpt lat="43.50267" lon="1.52813">
        <ele>135.9</ele>
        <time>2017-03-02T11:11:20Z</time>
      </trkpt>
      <trkpt lat="43.50255" lon="1.52824">
        <ele>136.4</ele>
        <time>2017-03-02T11:11:22Z</time>
      </trkpt>
      <trkpt lat="43.50245" lon="1.52833">
        <ele>136.6</ele>
        <time>2017-03-02T11:11:24Z</time>
      </trkpt>
      <trkpt lat="43.50236" lon="1.5284">
        <ele>137</ele>
        <time>2017-03-02T11:11:26Z</time>
      </trkpt>
      <trkpt lat="43.50227" lon="1.52847">
        <ele>137.1</ele>
        <time>2017-03-02T11:11:28Z</time>
      </trkpt>
      <trkpt lat="43.50217" lon="1.52854">
        <ele>137.8</ele>
        <time>2017-03-02T11:11:30Z</time>
      </trkpt>
      <trkpt lat="43.50208" lon="1.52861">
        <ele>137.9</ele>
        <time>2017-03-02T11:11:32Z</time>
      </trkpt>
      <trkpt lat="43.502" lon="1.52868">
        <ele>138.1</ele>
        <time>2017-03-02T11:11:34Z</time>
      </trkpt>
      <trkpt lat="43.50191" lon="1.52874">
        <ele>138.3</ele>
        <time>2017-03-02T11:11:36Z</time>
      </trkpt>
      <trkpt lat="43.50182" lon="1.52881">
        <ele>138.5</ele>
        <time>2017-03-02T11:11:38Z</time>
      </trkpt>
      <trkpt lat="43.50173" lon="1.52887">
        <ele>138.8</ele>
        <time>2017-03-02T11:11:40Z</time>
      </trkpt>
      <trkpt lat="43.50165" lon="1.52896">
        <ele>139.3</ele>
        <time>2017-03-02T11:11:42Z</time>
      </trkpt>
      <trkpt lat="43.50156" lon="1.52904">
        <ele>139.5</ele>
        <time>2017-03-02T11:11:44Z</time>
      </trkpt>
      <trkpt lat="43.50146" lon="1.52913">
        <ele>140.1</ele>
        <time>2017-03-02T11:11:46Z</time>
      </trkpt>
      <trkpt lat="43.50137" lon="1.52921">
        <ele>140.4</ele>
        <time>2017-03-02T11:11:48Z</time>
      </trkpt>
      <trkpt lat="43.50127" lon="1.5293">
        <ele>140.5</ele>
        <time>2017-03-02T11:11:50Z</time>
      </trkpt>
      <trkpt lat="43.50118" lon="1.52941">
        <ele>140.8</ele>
        <time>2017-03-02T11:11:52Z</time>
      </trkpt>
      <trkpt lat="43.50109" lon="1.52951">
        <ele>141.2</ele>
        <time>2017-03-02T11:11:54Z</time>
      </trkpt>
      <trkpt lat="43.501" lon="1.52962">
        <ele>141.9</ele>
        <time>2017-03-02T11:11:56Z</time>
      </trkpt>
      <trkpt lat="43.50091" lon="1.52973">
        <ele>142</ele>
        <time>2017-03-02T11:11:58Z</time>
      </trkpt>
      <trkpt lat="43.50083" lon="1.52983">
        <ele>142.2</ele>
        <time>2017-03-02T11:12:00Z</time>
      </trkpt>
      <trkpt lat="43.50077" lon="1.5299">
        <ele>142.1</ele>
        <time>2017-03-02T11:12:02Z</time>
      </trkpt>
      <trkpt lat="43.50069" lon="1.53">
        <ele>141.9</ele>
        <time>2017-03-02T11:12:04Z</time>
      </trkpt>
      <trkpt lat="43.50062" lon="1.53008">
        <ele>141.9</ele>
        <time>2017-03-02T11:12:06Z</time>
      </trkpt>
      <trkpt lat="43.50054" lon="1.53018">
        <ele>141.8</ele>
        <time>2017-03-02T11:12:08Z</time>
      </trkpt>
      <trkpt lat="43.50046" lon="1.53027">
        <ele>141.6</ele>
        <time>2017-03-02T11:12:10Z</time>
      </trkpt>
      <trkpt lat="43.50039" lon="1.53035">
        <ele>141.7</ele>
        <time>2017-03-02T11:12:12Z</time>
      </trkpt>
      <trkpt lat="43.5003" lon="1.53046">
        <ele>141.8</ele>
        <time>2017-03-02T11:12:14Z</time>
      </trkpt>
      <trkpt lat="43.50024" lon="1.53055">
        <ele>141.8</ele>
        <time>2017-03-02T11:12:16Z</time>
      </trkpt>
      <trkpt lat="43.50016" lon="1.53064">
        <ele>141.8</ele>
        <time>2017-03-02T11:12:18Z</time>
      </trkpt>
      <trkpt lat="43.50009" lon="1.53071">
        <ele>142.1</ele>
        <time>2017-03-02T11:12:20Z</time>
      </trkpt>
      <trkpt lat="43.50001" lon="1.53076">
        <ele>142.4</ele>
        <time>2017-03-02T11:12:22Z</time>
      </trkpt>
      <trkpt lat="43.49994" lon="1.53083">
        <ele>142.8</ele>
        <time>2017-03-02T11:12:24Z</time>
      </trkpt>
      <trkpt lat="43.49987" lon="1.53088">
        <ele>143.1</ele>
        <time>2017-03-02T11:12:26Z</time>
      </trkpt>
      <trkpt lat="43.4998" lon="1.53093">
        <ele>143.2</ele>
        <time>2017-03-02T11:12:28Z</time>
      </trkpt>
      <trkpt lat="43.49972" lon="1.531">
        <ele>143.3</ele>
        <time>2017-03-02T11:12:30Z</time>
      </trkpt>
      <trkpt lat="43.49964" lon="1.53107">
        <ele>143.4</ele>
        <time>2017-03-02T11:12:32Z</time>
      </trkpt>
      <trkpt lat="43.49955" lon="1.53115">
        <ele>143.4</ele>
        <time>2017-03-02T11:12:34Z</time>
      </trkpt>
      <trkpt lat="43.49946" lon="1.53122">
        <ele>143.4</ele>
        <time>2017-03-02T11:12:36Z</time>
      </trkpt>
      <trkpt lat="43.49937" lon="1.5313">
        <ele>143.5</ele>
        <time>2017-03-02T11:12:38Z</time>
      </trkpt>
      <trkpt lat="43.49925" lon="1.53141">
        <ele>143.3</ele>
        <time>2017-03-02T11:12:40Z</time>
      </trkpt>
      <trkpt lat="43.4992" lon="1.53147">
        <ele>143.4</ele>
        <time>2017-03-02T11:12:41Z</time>
      </trkpt>
      <trkpt lat="43.49908" lon="1.53159">
        <ele>143.6</ele>
        <time>2017-03-02T11:12:43Z</time>
      </trkpt>
      <trkpt lat="43.49897" lon="1.5317">
        <ele>143.2</ele>
        <time>2017-03-02T11:12:45Z</time>
      </trkpt>
      <trkpt lat="43.49891" lon="1.53175">
        <ele>143.3</ele>
        <time>2017-03-02T11:12:46Z</time>
      </trkpt>
      <trkpt lat="43.49885" lon="1.53183">
        <ele>143.5</ele>
        <time>2017-03-02T11:12:47Z</time>
      </trkpt>
      <trkpt lat="43.49879" lon="1.53189">
        <ele>143.6</ele>
        <time>2017-03-02T11:12:48Z</time>
      </trkpt>
      <trkpt lat="43.49868" lon="1.53199">
        <ele>143.9</ele>
        <time>2017-03-02T11:12:50Z</time>
      </trkpt>
      <trkpt lat="43.49858" lon="1.5321">
        <ele>144.1</ele>
        <time>2017-03-02T11:12:52Z</time>
      </trkpt>
      <trkpt lat="43.49849" lon="1.53221">
        <ele>144.3</ele>
        <time>2017-03-02T11:12:54Z</time>
      </trkpt>
      <trkpt lat="43.49841" lon="1.5323">
        <ele>144.4</ele>
        <time>2017-03-02T11:12:56Z</time>
      </trkpt>
      <trkpt lat="43.49833" lon="1.53239">
        <ele>144.9</ele>
        <time>2017-03-02T11:12:58Z</time>
      </trkpt>
      <trkpt lat="43.49825" lon="1.53248">
        <ele>145.2</ele>
        <time>2017-03-02T11:13:00Z</time>
      </trkpt>
      <trkpt lat="43.49818" lon="1.53256">
        <ele>145.2</ele>
        <time>2017-03-02T11:13:02Z</time>
      </trkpt>
      <trkpt lat="43.49812" lon="1.53266">
        <ele>144.9</ele>
        <time>2017-03-02T11:13:05Z</time>
      </trkpt>
      <trkpt lat="43.49806" lon="1.53274">
        <ele>144.9</ele>
        <time>2017-03-02T11:13:07Z</time>
      </trkpt>
      <trkpt lat="43.498" lon="1.53284">
        <ele>145.2</ele>
        <time>2017-03-02T11:13:09Z</time>
      </trkpt>
      <trkpt lat="43.49793" lon="1.53294">
        <ele>145.6</ele>
        <time>2017-03-02T11:13:11Z</time>
      </trkpt>
      <trkpt lat="43.49787" lon="1.53302">
        <ele>145.9</ele>
        <time>2017-03-02T11:13:13Z</time>
      </trkpt>
      <trkpt lat="43.49783" lon="1.53311">
        <ele>146.1</ele>
        <time>2017-03-02T11:13:15Z</time>
      </trkpt>
      <trkpt lat="43.49779" lon="1.53319">
        <ele>145.9</ele>
        <time>2017-03-02T11:13:17Z</time>
      </trkpt>
      <trkpt lat="43.49776" lon="1.53329">
        <ele>145.9</ele>
        <time>2017-03-02T11:13:19Z</time>
      </trkpt>
      <trkpt lat="43.4977" lon="1.53342">
        <ele>145.9</ele>
        <time>2017-03-02T11:13:22Z</time>
      </trkpt>
      <trkpt lat="43.49765" lon="1.53352">
        <ele>145.9</ele>
        <time>2017-03-02T11:13:24Z</time>
      </trkpt>
      <trkpt lat="43.49759" lon="1.53363">
        <ele>145.9</ele>
        <time>2017-03-02T11:13:27Z</time>
      </trkpt>
      <trkpt lat="43.49756" lon="1.53373">
        <ele>145.8</ele>
        <time>2017-03-02T11:13:29Z</time>
      </trkpt>
      <trkpt lat="43.49751" lon="1.53383">
        <ele>145.7</ele>
        <time>2017-03-02T11:13:31Z</time>
      </trkpt>
      <trkpt lat="43.49747" lon="1.53393">
        <ele>145.7</ele>
        <time>2017-03-02T11:13:33Z</time>
      </trkpt>
      <trkpt lat="43.49742" lon="1.53403">
        <ele>145.8</ele>
        <time>2017-03-02T11:13:35Z</time>
      </trkpt>
      <trkpt lat="43.49736" lon="1.53413">
        <ele>145.7</ele>
        <time>2017-03-02T11:13:37Z</time>
      </trkpt>
      <trkpt lat="43.49726" lon="1.53425">
        <ele>145.6</ele>
        <time>2017-03-02T11:13:39Z</time>
      </trkpt>
      <trkpt lat="43.4972" lon="1.53433">
        <ele>145.5</ele>
        <time>2017-03-02T11:13:40Z</time>
      </trkpt>
      <trkpt lat="43.49714" lon="1.53439">
        <ele>145.5</ele>
        <time>2017-03-02T11:13:41Z</time>
      </trkpt>
      <trkpt lat="43.49707" lon="1.53449">
        <ele>145</ele>
        <time>2017-03-02T11:13:43Z</time>
      </trkpt>
      <trkpt lat="43.49698" lon="1.5346">
        <ele>144.4</ele>
        <time>2017-03-02T11:13:45Z</time>
      </trkpt>
      <trkpt lat="43.49692" lon="1.53469">
        <ele>144</ele>
        <time>2017-03-02T11:13:47Z</time>
      </trkpt>
      <trkpt lat="43.49686" lon="1.53478">
        <ele>143.4</ele>
        <time>2017-03-02T11:13:49Z</time>
      </trkpt>
      <trkpt lat="43.49677" lon="1.53489">
        <ele>143.4</ele>
        <time>2017-03-02T11:13:51Z</time>
      </trkpt>
      <trkpt lat="43.49666" lon="1.53502">
        <ele>143.4</ele>
        <time>2017-03-02T11:13:53Z</time>
      </trkpt>
      <trkpt lat="43.4966" lon="1.5351">
        <ele>143.5</ele>
        <time>2017-03-02T11:13:54Z</time>
      </trkpt>
      <trkpt lat="43.49654" lon="1.53518">
        <ele>143.3</ele>
        <time>2017-03-02T11:13:55Z</time>
      </trkpt>
      <trkpt lat="43.49643" lon="1.53529">
        <ele>143.2</ele>
        <time>2017-03-02T11:13:57Z</time>
      </trkpt>
      <trkpt lat="43.49632" lon="1.53542">
        <ele>143.8</ele>
        <time>2017-03-02T11:13:59Z</time>
      </trkpt>
      <trkpt lat="43.49626" lon="1.5355">
        <ele>144.4</ele>
        <time>2017-03-02T11:14:00Z</time>
      </trkpt>
      <trkpt lat="43.4962" lon="1.53556">
        <ele>144.3</ele>
        <time>2017-03-02T11:14:02Z</time>
      </trkpt>
      <trkpt lat="43.49613" lon="1.53562">
        <ele>144.4</ele>
        <time>2017-03-02T11:14:05Z</time>
      </trkpt>
      <trkpt lat="43.49607" lon="1.53569">
        <ele>145.2</ele>
        <time>2017-03-02T11:14:10Z</time>
      </trkpt>
      <trkpt lat="43.49602" lon="1.53573">
        <ele>145.1</ele>
        <time>2017-03-02T11:14:17Z</time>
      </trkpt>
      <trkpt lat="43.49595" lon="1.53578">
        <ele>144.6</ele>
        <time>2017-03-02T11:14:20Z</time>
      </trkpt>
      <trkpt lat="43.49588" lon="1.53583">
        <ele>143.8</ele>
        <time>2017-03-02T11:14:22Z</time>
      </trkpt>
      <trkpt lat="43.4958" lon="1.53585">
        <ele>143.6</ele>
        <time>2017-03-02T11:14:24Z</time>
      </trkpt>
      <trkpt lat="43.49572" lon="1.53589">
        <ele>144.3</ele>
        <time>2017-03-02T11:14:26Z</time>
      </trkpt>
      <trkpt lat="43.49563" lon="1.53594">
        <ele>144.3</ele>
        <time>2017-03-02T11:14:28Z</time>
      </trkpt>
      <trkpt lat="43.49554" lon="1.53597">
        <ele>144</ele>
        <time>2017-03-02T11:14:30Z</time>
      </trkpt>
      <trkpt lat="43.49545" lon="1.536">
        <ele>144.1</ele>
        <time>2017-03-02T11:14:32Z</time>
      </trkpt>
      <trkpt lat="43.49535" lon="1.53603">
        <ele>144.4</ele>
        <time>2017-03-02T11:14:34Z</time>
      </trkpt>
      <trkpt lat="43.49524" lon="1.53606">
        <ele>144.6</ele>
        <time>2017-03-02T11:14:36Z</time>
      </trkpt>
      <trkpt lat="43.49514" lon="1.5361">
        <ele>144.7</ele>
        <time>2017-03-02T11:14:38Z</time>
      </trkpt>
      <trkpt lat="43.49504" lon="1.53614">
        <ele>144.8</ele>
        <time>2017-03-02T11:14:40Z</time>
      </trkpt>
      <trkpt lat="43.49494" lon="1.53618">
        <ele>145</ele>
        <time>2017-03-02T11:14:42Z</time>
      </trkpt>
      <trkpt lat="43.49484" lon="1.53621">
        <ele>145.1</ele>
        <time>2017-03-02T11:14:44Z</time>
      </trkpt>
      <trkpt lat="43.49474" lon="1.53624">
        <ele>145.3</ele>
        <time>2017-03-02T11:14:46Z</time>
      </trkpt>
      <trkpt lat="43.49465" lon="1.53627">
        <ele>145.3</ele>
        <time>2017-03-02T11:14:48Z</time>
      </trkpt>
      <trkpt lat="43.49455" lon="1.53629">
        <ele>145.1</ele>
        <time>2017-03-02T11:14:50Z</time>
      </trkpt>
      <trkpt lat="43.49447" lon="1.53631">
        <ele>145.2</ele>
        <time>2017-03-02T11:14:52Z</time>
      </trkpt>
      <trkpt lat="43.49438" lon="1.53635">
        <ele>145.3</ele>
        <time>2017-03-02T11:14:54Z</time>
      </trkpt>
      <trkpt lat="43.49429" lon="1.53637">
        <ele>145.3</ele>
        <time>2017-03-02T11:14:56Z</time>
      </trkpt>
      <trkpt lat="43.49419" lon="1.53639">
        <ele>145</ele>
        <time>2017-03-02T11:14:58Z</time>
      </trkpt>
      <trkpt lat="43.4941" lon="1.53641">
        <ele>144.7</ele>
        <time>2017-03-02T11:15:00Z</time>
      </trkpt>
      <trkpt lat="43.494" lon="1.53643">
        <ele>144.5</ele>
        <time>2017-03-02T11:15:02Z</time>
      </trkpt>
      <trkpt lat="43.49391" lon="1.53645">
        <ele>144</ele>
        <time>2017-03-02T11:15:04Z</time>
      </trkpt>
      <trkpt lat="43.49381" lon="1.53647">
        <ele>143.6</ele>
        <time>2017-03-02T11:15:06Z</time>
      </trkpt>
      <trkpt lat="43.49371" lon="1.53649">
        <ele>143</ele>
        <time>2017-03-02T11:15:08Z</time>
      </trkpt>
      <trkpt lat="43.4936" lon="1.53651">
        <ele>142.7</ele>
        <time>2017-03-02T11:15:10Z</time>
      </trkpt>
      <trkpt lat="43.49347" lon="1.53654">
        <ele>142.5</ele>
        <time>2017-03-02T11:15:12Z</time>
      </trkpt>
      <trkpt lat="43.49336" lon="1.53655">
        <ele>142.3</ele>
        <time>2017-03-02T11:15:14Z</time>
      </trkpt>
      <trkpt lat="43.49327" lon="1.53656">
        <ele>142.1</ele>
        <time>2017-03-02T11:15:16Z</time>
      </trkpt>
      <trkpt lat="43.49318" lon="1.53658">
        <ele>142</ele>
        <time>2017-03-02T11:15:18Z</time>
      </trkpt>
      <trkpt lat="43.49311" lon="1.53659">
        <ele>141.6</ele>
        <time>2017-03-02T11:15:20Z</time>
      </trkpt>
      <trkpt lat="43.49302" lon="1.5366">
        <ele>141.5</ele>
        <time>2017-03-02T11:15:22Z</time>
      </trkpt>
      <trkpt lat="43.49292" lon="1.53661">
        <ele>141.3</ele>
        <time>2017-03-02T11:15:24Z</time>
      </trkpt>
      <trkpt lat="43.49281" lon="1.53663">
        <ele>141.3</ele>
        <time>2017-03-02T11:15:26Z</time>
      </trkpt>
      <trkpt lat="43.4927" lon="1.53664">
        <ele>141.1</ele>
        <time>2017-03-02T11:15:28Z</time>
      </trkpt>
      <trkpt lat="43.49259" lon="1.53665">
        <ele>141.5</ele>
        <time>2017-03-02T11:15:30Z</time>
      </trkpt>
      <trkpt lat="43.49248" lon="1.53665">
        <ele>141.9</ele>
        <time>2017-03-02T11:15:32Z</time>
      </trkpt>
      <trkpt lat="43.49237" lon="1.53664">
        <ele>142</ele>
        <time>2017-03-02T11:15:34Z</time>
      </trkpt>
      <trkpt lat="43.49225" lon="1.53663">
        <ele>142.1</ele>
        <time>2017-03-02T11:15:36Z</time>
      </trkpt>
      <trkpt lat="43.49213" lon="1.53661">
        <ele>142.3</ele>
        <time>2017-03-02T11:15:38Z</time>
      </trkpt>
      <trkpt lat="43.49203" lon="1.5366">
        <ele>142.6</ele>
        <time>2017-03-02T11:15:40Z</time>
      </trkpt>
      <trkpt lat="43.49192" lon="1.5366">
        <ele>143.1</ele>
        <time>2017-03-02T11:15:43Z</time>
      </trkpt>
      <trkpt lat="43.49181" lon="1.53659">
        <ele>143.7</ele>
        <time>2017-03-02T11:15:44Z</time>
      </trkpt>
      <trkpt lat="43.4917" lon="1.53658">
        <ele>144.3</ele>
        <time>2017-03-02T11:15:46Z</time>
      </trkpt>
      <trkpt lat="43.49159" lon="1.53656">
        <ele>144.8</ele>
        <time>2017-03-02T11:15:48Z</time>
      </trkpt>
      <trkpt lat="43.49146" lon="1.53654">
        <ele>144.8</ele>
        <time>2017-03-02T11:15:50Z</time>
      </trkpt>
      <trkpt lat="43.49133" lon="1.5365">
        <ele>144.8</ele>
        <time>2017-03-02T11:15:52Z</time>
      </trkpt>
      <trkpt lat="43.49121" lon="1.53647">
        <ele>145</ele>
        <time>2017-03-02T11:15:54Z</time>
      </trkpt>
      <trkpt lat="43.4911" lon="1.53643">
        <ele>145</ele>
        <time>2017-03-02T11:15:56Z</time>
      </trkpt>
      <trkpt lat="43.49098" lon="1.53639">
        <ele>144.9</ele>
        <time>2017-03-02T11:15:58Z</time>
      </trkpt>
      <trkpt lat="43.49086" lon="1.53636">
        <ele>145.3</ele>
        <time>2017-03-02T11:16:00Z</time>
      </trkpt>
      <trkpt lat="43.49075" lon="1.53632">
        <ele>145.2</ele>
        <time>2017-03-02T11:16:02Z</time>
      </trkpt>
      <trkpt lat="43.49064" lon="1.53629">
        <ele>145.7</ele>
        <time>2017-03-02T11:16:04Z</time>
      </trkpt>
      <trkpt lat="43.49052" lon="1.53625">
        <ele>145.5</ele>
        <time>2017-03-02T11:16:06Z</time>
      </trkpt>
      <trkpt lat="43.49041" lon="1.53622">
        <ele>145.4</ele>
        <time>2017-03-02T11:16:09Z</time>
      </trkpt>
      <trkpt lat="43.4903" lon="1.53622">
        <ele>144.8</ele>
        <time>2017-03-02T11:16:10Z</time>
      </trkpt>
      <trkpt lat="43.49019" lon="1.53626">
        <ele>145.9</ele>
        <time>2017-03-02T11:16:12Z</time>
      </trkpt>
      <trkpt lat="43.49009" lon="1.53631">
        <ele>146</ele>
        <time>2017-03-02T11:16:14Z</time>
      </trkpt>
      <trkpt lat="43.49001" lon="1.53636">
        <ele>146.3</ele>
        <time>2017-03-02T11:16:16Z</time>
      </trkpt>
      <trkpt lat="43.48993" lon="1.53645">
        <ele>146.4</ele>
        <time>2017-03-02T11:16:18Z</time>
      </trkpt>
      <trkpt lat="43.48986" lon="1.53653">
        <ele>146.4</ele>
        <time>2017-03-02T11:16:20Z</time>
      </trkpt>
      <trkpt lat="43.48979" lon="1.53663">
        <ele>146.2</ele>
        <time>2017-03-02T11:16:22Z</time>
      </trkpt>
      <trkpt lat="43.48973" lon="1.53674">
        <ele>145.6</ele>
        <time>2017-03-02T11:16:24Z</time>
      </trkpt>
      <trkpt lat="43.48969" lon="1.53685">
        <ele>145.4</ele>
        <time>2017-03-02T11:16:26Z</time>
      </trkpt>
      <trkpt lat="43.48965" lon="1.53699">
        <ele>145.1</ele>
        <time>2017-03-02T11:16:28Z</time>
      </trkpt>
      <trkpt lat="43.48963" lon="1.53714">
        <ele>145</ele>
        <time>2017-03-02T11:16:30Z</time>
      </trkpt>
      <trkpt lat="43.4896" lon="1.53729">
        <ele>144.6</ele>
        <time>2017-03-02T11:16:32Z</time>
      </trkpt>
      <trkpt lat="43.48959" lon="1.53744">
        <ele>144.7</ele>
        <time>2017-03-02T11:16:34Z</time>
      </trkpt>
      <trkpt lat="43.48959" lon="1.53758">
        <ele>144.6</ele>
        <time>2017-03-02T11:16:36Z</time>
      </trkpt>
      <trkpt lat="43.48959" lon="1.53773">
        <ele>144.6</ele>
        <time>2017-03-02T11:16:38Z</time>
      </trkpt>
      <trkpt lat="43.4896" lon="1.53787">
        <ele>144.4</ele>
        <time>2017-03-02T11:16:40Z</time>
      </trkpt>
      <trkpt lat="43.48961" lon="1.538">
        <ele>144.4</ele>
        <time>2017-03-02T11:16:42Z</time>
      </trkpt>
      <trkpt lat="43.48962" lon="1.53813">
        <ele>143.9</ele>
        <time>2017-03-02T11:16:44Z</time>
      </trkpt>
      <trkpt lat="43.48963" lon="1.53827">
        <ele>143.5</ele>
        <time>2017-03-02T11:16:46Z</time>
      </trkpt>
      <trkpt lat="43.48965" lon="1.53841">
        <ele>142.9</ele>
        <time>2017-03-02T11:16:48Z</time>
      </trkpt>
      <trkpt lat="43.48966" lon="1.53856">
        <ele>142.6</ele>
        <time>2017-03-02T11:16:50Z</time>
      </trkpt>
      <trkpt lat="43.48968" lon="1.53871">
        <ele>142.3</ele>
        <time>2017-03-02T11:16:52Z</time>
      </trkpt>
      <trkpt lat="43.4897" lon="1.53887">
        <ele>141.9</ele>
        <time>2017-03-02T11:16:54Z</time>
      </trkpt>
      <trkpt lat="43.48971" lon="1.53902">
        <ele>141.2</ele>
        <time>2017-03-02T11:16:56Z</time>
      </trkpt>
      <trkpt lat="43.48973" lon="1.53916">
        <ele>140.7</ele>
        <time>2017-03-02T11:16:58Z</time>
      </trkpt>
      <trkpt lat="43.48974" lon="1.5393">
        <ele>140.3</ele>
        <time>2017-03-02T11:17:00Z</time>
      </trkpt>
      <trkpt lat="43.48974" lon="1.53945">
        <ele>139.7</ele>
        <time>2017-03-02T11:17:02Z</time>
      </trkpt>
      <trkpt lat="43.48975" lon="1.53959">
        <ele>139.5</ele>
        <time>2017-03-02T11:17:04Z</time>
      </trkpt>
      <trkpt lat="43.48977" lon="1.53974">
        <ele>139.4</ele>
        <time>2017-03-02T11:17:06Z</time>
      </trkpt>
      <trkpt lat="43.48976" lon="1.5399">
        <ele>139.1</ele>
        <time>2017-03-02T11:17:08Z</time>
      </trkpt>
      <trkpt lat="43.48975" lon="1.54005">
        <ele>139</ele>
        <time>2017-03-02T11:17:10Z</time>
      </trkpt>
      <trkpt lat="43.48975" lon="1.5402">
        <ele>139</ele>
        <time>2017-03-02T11:17:12Z</time>
      </trkpt>
      <trkpt lat="43.48974" lon="1.54035">
        <ele>138.9</ele>
        <time>2017-03-02T11:17:14Z</time>
      </trkpt>
      <trkpt lat="43.48974" lon="1.5405">
        <ele>139.2</ele>
        <time>2017-03-02T11:17:16Z</time>
      </trkpt>
      <trkpt lat="43.48973" lon="1.54064">
        <ele>139.3</ele>
        <time>2017-03-02T11:17:18Z</time>
      </trkpt>
      <trkpt lat="43.48971" lon="1.54078">
        <ele>139.4</ele>
        <time>2017-03-02T11:17:20Z</time>
      </trkpt>
      <trkpt lat="43.48971" lon="1.54093">
        <ele>139.6</ele>
        <time>2017-03-02T11:17:22Z</time>
      </trkpt>
      <trkpt lat="43.48969" lon="1.54107">
        <ele>139.8</ele>
        <time>2017-03-02T11:17:24Z</time>
      </trkpt>
      <trkpt lat="43.48969" lon="1.5412">
        <ele>139.8</ele>
        <time>2017-03-02T11:17:26Z</time>
      </trkpt>
      <trkpt lat="43.48967" lon="1.54134">
        <ele>139.7</ele>
        <time>2017-03-02T11:17:28Z</time>
      </trkpt>
      <trkpt lat="43.48964" lon="1.54149">
        <ele>139.4</ele>
        <time>2017-03-02T11:17:30Z</time>
      </trkpt>
      <trkpt lat="43.48962" lon="1.54163">
        <ele>139.4</ele>
        <time>2017-03-02T11:17:32Z</time>
      </trkpt>
      <trkpt lat="43.48959" lon="1.54176">
        <ele>139.3</ele>
        <time>2017-03-02T11:17:34Z</time>
      </trkpt>
      <trkpt lat="43.48957" lon="1.54187">
        <ele>139.1</ele>
        <time>2017-03-02T11:17:36Z</time>
      </trkpt>
      <trkpt lat="43.48955" lon="1.54198">
        <ele>139.1</ele>
        <time>2017-03-02T11:17:38Z</time>
      </trkpt>
      <trkpt lat="43.48953" lon="1.5421">
        <ele>138.8</ele>
        <time>2017-03-02T11:17:40Z</time>
      </trkpt>
      <trkpt lat="43.48951" lon="1.54223">
        <ele>138.3</ele>
        <time>2017-03-02T11:17:42Z</time>
      </trkpt>
      <trkpt lat="43.48946" lon="1.54236">
        <ele>137.5</ele>
        <time>2017-03-02T11:17:44Z</time>
      </trkpt>
      <trkpt lat="43.48939" lon="1.5425">
        <ele>136.9</ele>
        <time>2017-03-02T11:17:46Z</time>
      </trkpt>
      <trkpt lat="43.48932" lon="1.54264">
        <ele>136.3</ele>
        <time>2017-03-02T11:17:48Z</time>
      </trkpt>
      <trkpt lat="43.48924" lon="1.54277">
        <ele>135.6</ele>
        <time>2017-03-02T11:17:50Z</time>
      </trkpt>
      <trkpt lat="43.48916" lon="1.54288">
        <ele>135.2</ele>
        <time>2017-03-02T11:17:52Z</time>
      </trkpt>
      <trkpt lat="43.48909" lon="1.54298">
        <ele>134.7</ele>
        <time>2017-03-02T11:17:54Z</time>
      </trkpt>
      <trkpt lat="43.489" lon="1.54309">
        <ele>134.3</ele>
        <time>2017-03-02T11:17:56Z</time>
      </trkpt>
      <trkpt lat="43.48894" lon="1.54317">
        <ele>134.3</ele>
        <time>2017-03-02T11:17:57Z</time>
      </trkpt>
      <trkpt lat="43.48885" lon="1.54329">
        <ele>134.1</ele>
        <time>2017-03-02T11:17:59Z</time>
      </trkpt>
      <trkpt lat="43.48877" lon="1.5434">
        <ele>133.9</ele>
        <time>2017-03-02T11:18:01Z</time>
      </trkpt>
      <trkpt lat="43.48869" lon="1.54351">
        <ele>133.4</ele>
        <time>2017-03-02T11:18:03Z</time>
      </trkpt>
      <trkpt lat="43.48861" lon="1.54361">
        <ele>133.2</ele>
        <time>2017-03-02T11:18:05Z</time>
      </trkpt>
      <trkpt lat="43.48852" lon="1.54373">
        <ele>133</ele>
        <time>2017-03-02T11:18:07Z</time>
      </trkpt>
      <trkpt lat="43.48844" lon="1.54385">
        <ele>132.5</ele>
        <time>2017-03-02T11:18:09Z</time>
      </trkpt>
      <trkpt lat="43.48838" lon="1.54394">
        <ele>131.8</ele>
        <time>2017-03-02T11:18:11Z</time>
      </trkpt>
      <trkpt lat="43.48833" lon="1.54403">
        <ele>131.4</ele>
        <time>2017-03-02T11:18:13Z</time>
      </trkpt>
      <trkpt lat="43.48827" lon="1.54412">
        <ele>131.3</ele>
        <time>2017-03-02T11:18:15Z</time>
      </trkpt>
      <trkpt lat="43.48822" lon="1.5442">
        <ele>131</ele>
        <time>2017-03-02T11:18:17Z</time>
      </trkpt>
      <trkpt lat="43.48813" lon="1.54431">
        <ele>130.4</ele>
        <time>2017-03-02T11:18:19Z</time>
      </trkpt>
      <trkpt lat="43.48808" lon="1.54439">
        <ele>130.1</ele>
        <time>2017-03-02T11:18:21Z</time>
      </trkpt>
      <trkpt lat="43.488" lon="1.5445">
        <ele>129.5</ele>
        <time>2017-03-02T11:18:23Z</time>
      </trkpt>
      <trkpt lat="43.48795" lon="1.54458">
        <ele>129.1</ele>
        <time>2017-03-02T11:18:25Z</time>
      </trkpt>
      <trkpt lat="43.4879" lon="1.54467">
        <ele>128.4</ele>
        <time>2017-03-02T11:18:27Z</time>
      </trkpt>
      <trkpt lat="43.48782" lon="1.54479">
        <ele>127.8</ele>
        <time>2017-03-02T11:18:29Z</time>
      </trkpt>
      <trkpt lat="43.48774" lon="1.54492">
        <ele>127.4</ele>
        <time>2017-03-02T11:18:31Z</time>
      </trkpt>
      <trkpt lat="43.48766" lon="1.54503">
        <ele>127</ele>
        <time>2017-03-02T11:18:33Z</time>
      </trkpt>
      <trkpt lat="43.48755" lon="1.54515">
        <ele>126.8</ele>
        <time>2017-03-02T11:18:35Z</time>
      </trkpt>
      <trkpt lat="43.48745" lon="1.54526">
        <ele>126.5</ele>
        <time>2017-03-02T11:18:37Z</time>
      </trkpt>
      <trkpt lat="43.48735" lon="1.54537">
        <ele>126.5</ele>
        <time>2017-03-02T11:18:39Z</time>
      </trkpt>
      <trkpt lat="43.48725" lon="1.54545">
        <ele>126.1</ele>
        <time>2017-03-02T11:18:41Z</time>
      </trkpt>
      <trkpt lat="43.48716" lon="1.54553">
        <ele>126</ele>
        <time>2017-03-02T11:18:43Z</time>
      </trkpt>
      <trkpt lat="43.48707" lon="1.54562">
        <ele>125.6</ele>
        <time>2017-03-02T11:18:45Z</time>
      </trkpt>
      <trkpt lat="43.48699" lon="1.54571">
        <ele>125.1</ele>
        <time>2017-03-02T11:18:47Z</time>
      </trkpt>
      <trkpt lat="43.48687" lon="1.54581">
        <ele>124.7</ele>
        <time>2017-03-02T11:18:49Z</time>
      </trkpt>
      <trkpt lat="43.48677" lon="1.54588">
        <ele>124.1</ele>
        <time>2017-03-02T11:18:51Z</time>
      </trkpt>
      <trkpt lat="43.48664" lon="1.54597">
        <ele>124</ele>
        <time>2017-03-02T11:18:53Z</time>
      </trkpt>
      <trkpt lat="43.48657" lon="1.546">
        <ele>124.2</ele>
        <time>2017-03-02T11:18:54Z</time>
      </trkpt>
      <trkpt lat="43.48651" lon="1.54606">
        <ele>124.9</ele>
        <time>2017-03-02T11:18:55Z</time>
      </trkpt>
      <trkpt lat="43.48639" lon="1.54612">
        <ele>125.9</ele>
        <time>2017-03-02T11:18:57Z</time>
      </trkpt>
      <trkpt lat="43.48627" lon="1.54619">
        <ele>126.9</ele>
        <time>2017-03-02T11:18:59Z</time>
      </trkpt>
      <trkpt lat="43.48616" lon="1.54623">
        <ele>126.8</ele>
        <time>2017-03-02T11:19:01Z</time>
      </trkpt>
      <trkpt lat="43.48605" lon="1.54625">
        <ele>127.1</ele>
        <time>2017-03-02T11:19:03Z</time>
      </trkpt>
      <trkpt lat="43.48593" lon="1.54628">
        <ele>127.3</ele>
        <time>2017-03-02T11:19:05Z</time>
      </trkpt>
      <trkpt lat="43.48582" lon="1.5463">
        <ele>127.1</ele>
        <time>2017-03-02T11:19:07Z</time>
      </trkpt>
      <trkpt lat="43.4857" lon="1.54632">
        <ele>126.9</ele>
        <time>2017-03-02T11:19:09Z</time>
      </trkpt>
      <trkpt lat="43.48557" lon="1.54633">
        <ele>127.1</ele>
        <time>2017-03-02T11:19:11Z</time>
      </trkpt>
      <trkpt lat="43.48544" lon="1.54634">
        <ele>126.8</ele>
        <time>2017-03-02T11:19:13Z</time>
      </trkpt>
      <trkpt lat="43.48532" lon="1.54636">
        <ele>126.9</ele>
        <time>2017-03-02T11:19:15Z</time>
      </trkpt>
      <trkpt lat="43.48522" lon="1.54636">
        <ele>127</ele>
        <time>2017-03-02T11:19:17Z</time>
      </trkpt>
      <trkpt lat="43.4851" lon="1.54639">
        <ele>126.9</ele>
        <time>2017-03-02T11:19:19Z</time>
      </trkpt>
      <trkpt lat="43.485" lon="1.54643">
        <ele>127.2</ele>
        <time>2017-03-02T11:19:21Z</time>
      </trkpt>
      <trkpt lat="43.48488" lon="1.54646">
        <ele>127.5</ele>
        <time>2017-03-02T11:19:23Z</time>
      </trkpt>
      <trkpt lat="43.48478" lon="1.54651">
        <ele>127.6</ele>
        <time>2017-03-02T11:19:25Z</time>
      </trkpt>
      <trkpt lat="43.48468" lon="1.54657">
        <ele>127.7</ele>
        <time>2017-03-02T11:19:27Z</time>
      </trkpt>
      <trkpt lat="43.48459" lon="1.54661">
        <ele>127.9</ele>
        <time>2017-03-02T11:19:29Z</time>
      </trkpt>
      <trkpt lat="43.48448" lon="1.54667">
        <ele>128.4</ele>
        <time>2017-03-02T11:19:31Z</time>
      </trkpt>
      <trkpt lat="43.48438" lon="1.54673">
        <ele>128.7</ele>
        <time>2017-03-02T11:19:33Z</time>
      </trkpt>
      <trkpt lat="43.48428" lon="1.54679">
        <ele>129.2</ele>
        <time>2017-03-02T11:19:35Z</time>
      </trkpt>
      <trkpt lat="43.48416" lon="1.54682">
        <ele>129.4</ele>
        <time>2017-03-02T11:19:37Z</time>
      </trkpt>
      <trkpt lat="43.48404" lon="1.54685">
        <ele>129.7</ele>
        <time>2017-03-02T11:19:39Z</time>
      </trkpt>
      <trkpt lat="43.48393" lon="1.54686">
        <ele>130</ele>
        <time>2017-03-02T11:19:41Z</time>
      </trkpt>
      <trkpt lat="43.48382" lon="1.54686">
        <ele>130.3</ele>
        <time>2017-03-02T11:19:43Z</time>
      </trkpt>
      <trkpt lat="43.48372" lon="1.54683">
        <ele>130.4</ele>
        <time>2017-03-02T11:19:45Z</time>
      </trkpt>
      <trkpt lat="43.48362" lon="1.5468">
        <ele>130.7</ele>
        <time>2017-03-02T11:19:47Z</time>
      </trkpt>
      <trkpt lat="43.4835" lon="1.54676">
        <ele>131.2</ele>
        <time>2017-03-02T11:19:49Z</time>
      </trkpt>
      <trkpt lat="43.4834" lon="1.54672">
        <ele>131.3</ele>
        <time>2017-03-02T11:19:51Z</time>
      </trkpt>
      <trkpt lat="43.48328" lon="1.54669">
        <ele>131.5</ele>
        <time>2017-03-02T11:19:53Z</time>
      </trkpt>
      <trkpt lat="43.48317" lon="1.54668">
        <ele>131.2</ele>
        <time>2017-03-02T11:19:55Z</time>
      </trkpt>
      <trkpt lat="43.48306" lon="1.54667">
        <ele>131.2</ele>
        <time>2017-03-02T11:19:57Z</time>
      </trkpt>
      <trkpt lat="43.48296" lon="1.54668">
        <ele>130.9</ele>
        <time>2017-03-02T11:19:59Z</time>
      </trkpt>
      <trkpt lat="43.48287" lon="1.54671">
        <ele>130.8</ele>
        <time>2017-03-02T11:20:01Z</time>
      </trkpt>
      <trkpt lat="43.48277" lon="1.54676">
        <ele>130.4</ele>
        <time>2017-03-02T11:20:03Z</time>
      </trkpt>
      <trkpt lat="43.48268" lon="1.54683">
        <ele>129.9</ele>
        <time>2017-03-02T11:20:05Z</time>
      </trkpt>
      <trkpt lat="43.48262" lon="1.54693">
        <ele>129.7</ele>
        <time>2017-03-02T11:20:07Z</time>
      </trkpt>
      <trkpt lat="43.48257" lon="1.54702">
        <ele>129.8</ele>
        <time>2017-03-02T11:20:09Z</time>
      </trkpt>
      <trkpt lat="43.4825" lon="1.54708">
        <ele>129.7</ele>
        <time>2017-03-02T11:20:11Z</time>
      </trkpt>
      <trkpt lat="43.48239" lon="1.54718">
        <ele>130.1</ele>
        <time>2017-03-02T11:20:13Z</time>
      </trkpt>
      <trkpt lat="43.48228" lon="1.54728">
        <ele>130</ele>
        <time>2017-03-02T11:20:15Z</time>
      </trkpt>
      <trkpt lat="43.48219" lon="1.54735">
        <ele>129.4</ele>
        <time>2017-03-02T11:20:17Z</time>
      </trkpt>
      <trkpt lat="43.48209" lon="1.54744">
        <ele>129.5</ele>
        <time>2017-03-02T11:20:19Z</time>
      </trkpt>
      <trkpt lat="43.482" lon="1.54749">
        <ele>129.1</ele>
        <time>2017-03-02T11:20:21Z</time>
      </trkpt>
      <trkpt lat="43.4819" lon="1.54757">
        <ele>128.8</ele>
        <time>2017-03-02T11:20:23Z</time>
      </trkpt>
      <trkpt lat="43.48181" lon="1.54766">
        <ele>128.9</ele>
        <time>2017-03-02T11:20:25Z</time>
      </trkpt>
      <trkpt lat="43.4817" lon="1.54773">
        <ele>128.9</ele>
        <time>2017-03-02T11:20:27Z</time>
      </trkpt>
      <trkpt lat="43.48158" lon="1.5478">
        <ele>128.7</ele>
        <time>2017-03-02T11:20:29Z</time>
      </trkpt>
      <trkpt lat="43.48145" lon="1.54789">
        <ele>128.5</ele>
        <time>2017-03-02T11:20:31Z</time>
      </trkpt>
      <trkpt lat="43.48134" lon="1.54794">
        <ele>127.6</ele>
        <time>2017-03-02T11:20:33Z</time>
      </trkpt>
      <trkpt lat="43.4812" lon="1.54796">
        <ele>127.6</ele>
        <time>2017-03-02T11:20:35Z</time>
      </trkpt>
      <trkpt lat="43.48109" lon="1.54803">
        <ele>127.3</ele>
        <time>2017-03-02T11:20:37Z</time>
      </trkpt>
      <trkpt lat="43.48097" lon="1.54812">
        <ele>127.3</ele>
        <time>2017-03-02T11:20:39Z</time>
      </trkpt>
      <trkpt lat="43.48086" lon="1.54821">
        <ele>127.2</ele>
        <time>2017-03-02T11:20:41Z</time>
      </trkpt>
      <trkpt lat="43.48079" lon="1.54833">
        <ele>127</ele>
        <time>2017-03-02T11:20:43Z</time>
      </trkpt>
      <trkpt lat="43.48073" lon="1.54847">
        <ele>126.5</ele>
        <time>2017-03-02T11:20:45Z</time>
      </trkpt>
      <trkpt lat="43.4807" lon="1.54861">
        <ele>126.2</ele>
        <time>2017-03-02T11:20:47Z</time>
      </trkpt>
      <trkpt lat="43.48068" lon="1.54875">
        <ele>125.6</ele>
        <time>2017-03-02T11:20:49Z</time>
      </trkpt>
      <trkpt lat="43.48069" lon="1.54888">
        <ele>125.7</ele>
        <time>2017-03-02T11:20:51Z</time>
      </trkpt>
      <trkpt lat="43.48067" lon="1.54901">
        <ele>125.8</ele>
        <time>2017-03-02T11:20:53Z</time>
      </trkpt>
      <trkpt lat="43.48065" lon="1.54913">
        <ele>125.9</ele>
        <time>2017-03-02T11:20:55Z</time>
      </trkpt>
      <trkpt lat="43.48063" lon="1.54925">
        <ele>126.1</ele>
        <time>2017-03-02T11:20:57Z</time>
      </trkpt>
      <trkpt lat="43.48062" lon="1.54939">
        <ele>126</ele>
        <time>2017-03-02T11:20:59Z</time>
      </trkpt>
      <trkpt lat="43.48058" lon="1.54955">
        <ele>126.1</ele>
        <time>2017-03-02T11:21:01Z</time>
      </trkpt>
      <trkpt lat="43.48055" lon="1.54969">
        <ele>125.9</ele>
        <time>2017-03-02T11:21:03Z</time>
      </trkpt>
      <trkpt lat="43.48052" lon="1.5498">
        <ele>125.8</ele>
        <time>2017-03-02T11:21:05Z</time>
      </trkpt>
      <trkpt lat="43.48047" lon="1.54991">
        <ele>125.4</ele>
        <time>2017-03-02T11:21:07Z</time>
      </trkpt>
      <trkpt lat="43.4804" lon="1.55002">
        <ele>124.9</ele>
        <time>2017-03-02T11:21:09Z</time>
      </trkpt>
      <trkpt lat="43.48032" lon="1.55012">
        <ele>124.4</ele>
        <time>2017-03-02T11:21:11Z</time>
      </trkpt>
      <trkpt lat="43.48026" lon="1.55022">
        <ele>123.9</ele>
        <time>2017-03-02T11:21:13Z</time>
      </trkpt>
      <trkpt lat="43.48017" lon="1.55033">
        <ele>123.9</ele>
        <time>2017-03-02T11:21:15Z</time>
      </trkpt>
      <trkpt lat="43.48005" lon="1.55043">
        <ele>123.5</ele>
        <time>2017-03-02T11:21:17Z</time>
      </trkpt>
      <trkpt lat="43.47999" lon="1.55049">
        <ele>123.5</ele>
        <time>2017-03-02T11:21:18Z</time>
      </trkpt>
      <trkpt lat="43.4799" lon="1.55062">
        <ele>124</ele>
        <time>2017-03-02T11:21:20Z</time>
      </trkpt>
      <trkpt lat="43.47982" lon="1.55069">
        <ele>123.6</ele>
        <time>2017-03-02T11:21:22Z</time>
      </trkpt>
      <trkpt lat="43.47974" lon="1.55077">
        <ele>123</ele>
        <time>2017-03-02T11:21:24Z</time>
      </trkpt>
      <trkpt lat="43.47963" lon="1.55086">
        <ele>123.2</ele>
        <time>2017-03-02T11:21:26Z</time>
      </trkpt>
      <trkpt lat="43.47951" lon="1.55092">
        <ele>122.4</ele>
        <time>2017-03-02T11:21:28Z</time>
      </trkpt>
      <trkpt lat="43.4794" lon="1.55098">
        <ele>122</ele>
        <time>2017-03-02T11:21:30Z</time>
      </trkpt>
      <trkpt lat="43.47929" lon="1.55105">
        <ele>121.8</ele>
        <time>2017-03-02T11:21:32Z</time>
      </trkpt>
      <trkpt lat="43.47917" lon="1.5511">
        <ele>121.3</ele>
        <time>2017-03-02T11:21:34Z</time>
      </trkpt>
      <trkpt lat="43.47906" lon="1.55116">
        <ele>120.9</ele>
        <time>2017-03-02T11:21:36Z</time>
      </trkpt>
      <trkpt lat="43.47894" lon="1.55124">
        <ele>120.4</ele>
        <time>2017-03-02T11:21:38Z</time>
      </trkpt>
      <trkpt lat="43.47883" lon="1.55132">
        <ele>120.1</ele>
        <time>2017-03-02T11:21:40Z</time>
      </trkpt>
      <trkpt lat="43.47872" lon="1.55138">
        <ele>119.8</ele>
        <time>2017-03-02T11:21:42Z</time>
      </trkpt>
      <trkpt lat="43.47863" lon="1.55146">
        <ele>119.4</ele>
        <time>2017-03-02T11:21:44Z</time>
      </trkpt>
      <trkpt lat="43.47853" lon="1.55152">
        <ele>119</ele>
        <time>2017-03-02T11:21:46Z</time>
      </trkpt>
      <trkpt lat="43.47843" lon="1.55161">
        <ele>118.8</ele>
        <time>2017-03-02T11:21:48Z</time>
      </trkpt>
      <trkpt lat="43.47835" lon="1.55169">
        <ele>118.4</ele>
        <time>2017-03-02T11:21:50Z</time>
      </trkpt>
      <trkpt lat="43.47827" lon="1.55178">
        <ele>118.1</ele>
        <time>2017-03-02T11:21:52Z</time>
      </trkpt>
      <trkpt lat="43.47822" lon="1.55185">
        <ele>117.7</ele>
        <time>2017-03-02T11:21:54Z</time>
      </trkpt>
      <trkpt lat="43.47817" lon="1.55193">
        <ele>117.4</ele>
        <time>2017-03-02T11:21:56Z</time>
      </trkpt>
      <trkpt lat="43.4781" lon="1.55201">
        <ele>117</ele>
        <time>2017-03-02T11:21:58Z</time>
      </trkpt>
      <trkpt lat="43.47803" lon="1.5521">
        <ele>116.4</ele>
        <time>2017-03-02T11:22:00Z</time>
      </trkpt>
      <trkpt lat="43.47794" lon="1.55222">
        <ele>115.8</ele>
        <time>2017-03-02T11:22:02Z</time>
      </trkpt>
      <trkpt lat="43.47789" lon="1.55229">
        <ele>115.4</ele>
        <time>2017-03-02T11:22:03Z</time>
      </trkpt>
      <trkpt lat="43.47783" lon="1.55237">
        <ele>115.1</ele>
        <time>2017-03-02T11:22:04Z</time>
      </trkpt>
      <trkpt lat="43.47776" lon="1.55249">
        <ele>116.9</ele>
        <time>2017-03-02T11:22:05Z</time>
      </trkpt>
      <trkpt lat="43.47766" lon="1.55259">
        <ele>117.4</ele>
        <time>2017-03-02T11:22:07Z</time>
      </trkpt>
      <trkpt lat="43.47759" lon="1.55266">
        <ele>117.5</ele>
        <time>2017-03-02T11:22:09Z</time>
      </trkpt>
      <trkpt lat="43.47753" lon="1.55273">
        <ele>118.2</ele>
        <time>2017-03-02T11:22:12Z</time>
      </trkpt>
      <trkpt lat="43.47747" lon="1.5528">
        <ele>119.7</ele>
        <time>2017-03-02T11:22:17Z</time>
      </trkpt>
      <trkpt lat="43.47739" lon="1.55288">
        <ele>120.4</ele>
        <time>2017-03-02T11:22:21Z</time>
      </trkpt>
      <trkpt lat="43.47732" lon="1.55297">
        <ele>120.2</ele>
        <time>2017-03-02T11:22:23Z</time>
      </trkpt>
      <trkpt lat="43.47724" lon="1.55306">
        <ele>120.1</ele>
        <time>2017-03-02T11:22:25Z</time>
      </trkpt>
      <trkpt lat="43.47715" lon="1.55317">
        <ele>120.1</ele>
        <time>2017-03-02T11:22:27Z</time>
      </trkpt>
      <trkpt lat="43.47706" lon="1.55327">
        <ele>120.1</ele>
        <time>2017-03-02T11:22:29Z</time>
      </trkpt>
      <trkpt lat="43.47696" lon="1.55337">
        <ele>120</ele>
        <time>2017-03-02T11:22:31Z</time>
      </trkpt>
      <trkpt lat="43.47687" lon="1.55346">
        <ele>119.9</ele>
        <time>2017-03-02T11:22:33Z</time>
      </trkpt>
      <trkpt lat="43.47676" lon="1.55355">
        <ele>119.6</ele>
        <time>2017-03-02T11:22:35Z</time>
      </trkpt>
      <trkpt lat="43.47667" lon="1.55363">
        <ele>119.5</ele>
        <time>2017-03-02T11:22:37Z</time>
      </trkpt>
      <trkpt lat="43.47659" lon="1.55369">
        <ele>119.2</ele>
        <time>2017-03-02T11:22:39Z</time>
      </trkpt>
      <trkpt lat="43.47651" lon="1.55376">
        <ele>119</ele>
        <time>2017-03-02T11:22:41Z</time>
      </trkpt>
      <trkpt lat="43.47641" lon="1.55381">
        <ele>118.6</ele>
        <time>2017-03-02T11:22:43Z</time>
      </trkpt>
      <trkpt lat="43.47633" lon="1.55388">
        <ele>118.2</ele>
        <time>2017-03-02T11:22:45Z</time>
      </trkpt>
      <trkpt lat="43.47624" lon="1.55395">
        <ele>117.8</ele>
        <time>2017-03-02T11:22:47Z</time>
      </trkpt>
      <trkpt lat="43.47616" lon="1.55402">
        <ele>117.3</ele>
        <time>2017-03-02T11:22:49Z</time>
      </trkpt>
      <trkpt lat="43.47606" lon="1.55412">
        <ele>116.9</ele>
        <time>2017-03-02T11:22:51Z</time>
      </trkpt>
      <trkpt lat="43.47599" lon="1.55417">
        <ele>116.5</ele>
        <time>2017-03-02T11:22:52Z</time>
      </trkpt>
      <trkpt lat="43.4759" lon="1.55427">
        <ele>116</ele>
        <time>2017-03-02T11:22:54Z</time>
      </trkpt>
      <trkpt lat="43.47583" lon="1.55434">
        <ele>116.2</ele>
        <time>2017-03-02T11:22:55Z</time>
      </trkpt>
      <trkpt lat="43.47574" lon="1.55443">
        <ele>116.2</ele>
        <time>2017-03-02T11:22:57Z</time>
      </trkpt>
      <trkpt lat="43.47566" lon="1.5545">
        <ele>115.7</ele>
        <time>2017-03-02T11:22:59Z</time>
      </trkpt>
      <trkpt lat="43.47558" lon="1.55457">
        <ele>115.3</ele>
        <time>2017-03-02T11:23:01Z</time>
      </trkpt>
      <trkpt lat="43.47549" lon="1.55467">
        <ele>115.5</ele>
        <time>2017-03-02T11:23:03Z</time>
      </trkpt>
      <trkpt lat="43.4754" lon="1.55474">
        <ele>115.3</ele>
        <time>2017-03-02T11:23:05Z</time>
      </trkpt>
      <trkpt lat="43.47531" lon="1.55483">
        <ele>115.3</ele>
        <time>2017-03-02T11:23:07Z</time>
      </trkpt>
      <trkpt lat="43.47522" lon="1.55491">
        <ele>115.1</ele>
        <time>2017-03-02T11:23:09Z</time>
      </trkpt>
      <trkpt lat="43.47512" lon="1.55502">
        <ele>115.1</ele>
        <time>2017-03-02T11:23:11Z</time>
      </trkpt>
      <trkpt lat="43.47504" lon="1.55512">
        <ele>115.4</ele>
        <time>2017-03-02T11:23:13Z</time>
      </trkpt>
      <trkpt lat="43.47496" lon="1.55519">
        <ele>115.3</ele>
        <time>2017-03-02T11:23:15Z</time>
      </trkpt>
      <trkpt lat="43.47486" lon="1.55528">
        <ele>115.6</ele>
        <time>2017-03-02T11:23:17Z</time>
      </trkpt>
      <trkpt lat="43.47478" lon="1.55537">
        <ele>115.6</ele>
        <time>2017-03-02T11:23:19Z</time>
      </trkpt>
      <trkpt lat="43.4747" lon="1.55544">
        <ele>115.5</ele>
        <time>2017-03-02T11:23:21Z</time>
      </trkpt>
      <trkpt lat="43.47461" lon="1.55554">
        <ele>115.7</ele>
        <time>2017-03-02T11:23:23Z</time>
      </trkpt>
      <trkpt lat="43.47454" lon="1.55562">
        <ele>115.7</ele>
        <time>2017-03-02T11:23:25Z</time>
      </trkpt>
      <trkpt lat="43.47444" lon="1.55572">
        <ele>115.7</ele>
        <time>2017-03-02T11:23:27Z</time>
      </trkpt>
      <trkpt lat="43.47436" lon="1.5558">
        <ele>115.6</ele>
        <time>2017-03-02T11:23:29Z</time>
      </trkpt>
      <trkpt lat="43.47427" lon="1.55589">
        <ele>115.7</ele>
        <time>2017-03-02T11:23:31Z</time>
      </trkpt>
      <trkpt lat="43.47417" lon="1.55598">
        <ele>115.8</ele>
        <time>2017-03-02T11:23:33Z</time>
      </trkpt>
      <trkpt lat="43.47407" lon="1.55608">
        <ele>116</ele>
        <time>2017-03-02T11:23:35Z</time>
      </trkpt>
      <trkpt lat="43.47394" lon="1.55616">
        <ele>115.9</ele>
        <time>2017-03-02T11:23:37Z</time>
      </trkpt>
      <trkpt lat="43.47382" lon="1.55622">
        <ele>115.9</ele>
        <time>2017-03-02T11:23:39Z</time>
      </trkpt>
      <trkpt lat="43.47371" lon="1.55627">
        <ele>116</ele>
        <time>2017-03-02T11:23:41Z</time>
      </trkpt>
      <trkpt lat="43.47359" lon="1.55633">
        <ele>116.6</ele>
        <time>2017-03-02T11:23:43Z</time>
      </trkpt>
      <trkpt lat="43.47347" lon="1.55639">
        <ele>117.2</ele>
        <time>2017-03-02T11:23:45Z</time>
      </trkpt>
      <trkpt lat="43.47336" lon="1.55643">
        <ele>117.6</ele>
        <time>2017-03-02T11:23:47Z</time>
      </trkpt>
      <trkpt lat="43.47327" lon="1.55648">
        <ele>117.9</ele>
        <time>2017-03-02T11:23:49Z</time>
      </trkpt>
      <trkpt lat="43.47317" lon="1.55653">
        <ele>118.3</ele>
        <time>2017-03-02T11:23:51Z</time>
      </trkpt>
      <trkpt lat="43.47307" lon="1.55657">
        <ele>118.3</ele>
        <time>2017-03-02T11:23:53Z</time>
      </trkpt>
      <trkpt lat="43.47296" lon="1.55664">
        <ele>118.6</ele>
        <time>2017-03-02T11:23:55Z</time>
      </trkpt>
      <trkpt lat="43.47285" lon="1.5567">
        <ele>118.9</ele>
        <time>2017-03-02T11:23:57Z</time>
      </trkpt>
      <trkpt lat="43.47275" lon="1.55676">
        <ele>118.7</ele>
        <time>2017-03-02T11:23:59Z</time>
      </trkpt>
      <trkpt lat="43.47264" lon="1.55681">
        <ele>118.7</ele>
        <time>2017-03-02T11:24:02Z</time>
      </trkpt>
      <trkpt lat="43.47253" lon="1.55686">
        <ele>118.9</ele>
        <time>2017-03-02T11:24:03Z</time>
      </trkpt>
      <trkpt lat="43.47242" lon="1.55691">
        <ele>119</ele>
        <time>2017-03-02T11:24:05Z</time>
      </trkpt>
      <trkpt lat="43.47232" lon="1.55696">
        <ele>119</ele>
        <time>2017-03-02T11:24:07Z</time>
      </trkpt>
      <trkpt lat="43.47221" lon="1.55701">
        <ele>119.3</ele>
        <time>2017-03-02T11:24:09Z</time>
      </trkpt>
      <trkpt lat="43.4721" lon="1.55705">
        <ele>119.6</ele>
        <time>2017-03-02T11:24:11Z</time>
      </trkpt>
      <trkpt lat="43.472" lon="1.55708">
        <ele>119.9</ele>
        <time>2017-03-02T11:24:13Z</time>
      </trkpt>
      <trkpt lat="43.47189" lon="1.55711">
        <ele>119.9</ele>
        <time>2017-03-02T11:24:15Z</time>
      </trkpt>
      <trkpt lat="43.47178" lon="1.55713">
        <ele>120</ele>
        <time>2017-03-02T11:24:17Z</time>
      </trkpt>
      <trkpt lat="43.47167" lon="1.55715">
        <ele>120</ele>
        <time>2017-03-02T11:24:19Z</time>
      </trkpt>
      <trkpt lat="43.47156" lon="1.55716">
        <ele>120.2</ele>
        <time>2017-03-02T11:24:21Z</time>
      </trkpt>
      <trkpt lat="43.47146" lon="1.55718">
        <ele>120.4</ele>
        <time>2017-03-02T11:24:23Z</time>
      </trkpt>
      <trkpt lat="43.47136" lon="1.55721">
        <ele>120.8</ele>
        <time>2017-03-02T11:24:25Z</time>
      </trkpt>
      <trkpt lat="43.47125" lon="1.55724">
        <ele>121.1</ele>
        <time>2017-03-02T11:24:27Z</time>
      </trkpt>
      <trkpt lat="43.47114" lon="1.55727">
        <ele>121.6</ele>
        <time>2017-03-02T11:24:29Z</time>
      </trkpt>
      <trkpt lat="43.47103" lon="1.55731">
        <ele>122.4</ele>
        <time>2017-03-02T11:24:31Z</time>
      </trkpt>
      <trkpt lat="43.47092" lon="1.55734">
        <ele>122.6</ele>
        <time>2017-03-02T11:24:33Z</time>
      </trkpt>
      <trkpt lat="43.4708" lon="1.55737">
        <ele>122.5</ele>
        <time>2017-03-02T11:24:35Z</time>
      </trkpt>
      <trkpt lat="43.4707" lon="1.5574">
        <ele>122.8</ele>
        <time>2017-03-02T11:24:37Z</time>
      </trkpt>
      <trkpt lat="43.4706" lon="1.55742">
        <ele>123.1</ele>
        <time>2017-03-02T11:24:39Z</time>
      </trkpt>
      <trkpt lat="43.4705" lon="1.55747">
        <ele>123.7</ele>
        <time>2017-03-02T11:24:41Z</time>
      </trkpt>
      <trkpt lat="43.4704" lon="1.55754">
        <ele>125.1</ele>
        <time>2017-03-02T11:24:43Z</time>
      </trkpt>
      <trkpt lat="43.47031" lon="1.55759">
        <ele>125.5</ele>
        <time>2017-03-02T11:24:45Z</time>
      </trkpt>
      <trkpt lat="43.47021" lon="1.55763">
        <ele>126.2</ele>
        <time>2017-03-02T11:24:47Z</time>
      </trkpt>
      <trkpt lat="43.47011" lon="1.55769">
        <ele>126.1</ele>
        <time>2017-03-02T11:24:49Z</time>
      </trkpt>
      <trkpt lat="43.47003" lon="1.55775">
        <ele>126.1</ele>
        <time>2017-03-02T11:24:51Z</time>
      </trkpt>
      <trkpt lat="43.46995" lon="1.5578">
        <ele>125.8</ele>
        <time>2017-03-02T11:24:53Z</time>
      </trkpt>
      <trkpt lat="43.46988" lon="1.55787">
        <ele>125.7</ele>
        <time>2017-03-02T11:24:55Z</time>
      </trkpt>
      <trkpt lat="43.46982" lon="1.55794">
        <ele>125.4</ele>
        <time>2017-03-02T11:24:57Z</time>
      </trkpt>
      <trkpt lat="43.46974" lon="1.55803">
        <ele>125.1</ele>
        <time>2017-03-02T11:24:59Z</time>
      </trkpt>
      <trkpt lat="43.46967" lon="1.55811">
        <ele>124.9</ele>
        <time>2017-03-02T11:25:01Z</time>
      </trkpt>
      <trkpt lat="43.46961" lon="1.5582">
        <ele>124.5</ele>
        <time>2017-03-02T11:25:03Z</time>
      </trkpt>
      <trkpt lat="43.46956" lon="1.55829">
        <ele>123.9</ele>
        <time>2017-03-02T11:25:05Z</time>
      </trkpt>
      <trkpt lat="43.46951" lon="1.55838">
        <ele>123.2</ele>
        <time>2017-03-02T11:25:07Z</time>
      </trkpt>
      <trkpt lat="43.46946" lon="1.55847">
        <ele>122.7</ele>
        <time>2017-03-02T11:25:09Z</time>
      </trkpt>
      <trkpt lat="43.46943" lon="1.55856">
        <ele>122.1</ele>
        <time>2017-03-02T11:25:11Z</time>
      </trkpt>
      <trkpt lat="43.46938" lon="1.55866">
        <ele>121.6</ele>
        <time>2017-03-02T11:25:13Z</time>
      </trkpt>
      <trkpt lat="43.46932" lon="1.55878">
        <ele>120.7</ele>
        <time>2017-03-02T11:25:15Z</time>
      </trkpt>
      <trkpt lat="43.46929" lon="1.55887">
        <ele>120.1</ele>
        <time>2017-03-02T11:25:17Z</time>
      </trkpt>
      <trkpt lat="43.46924" lon="1.55897">
        <ele>119.5</ele>
        <time>2017-03-02T11:25:19Z</time>
      </trkpt>
      <trkpt lat="43.46918" lon="1.55907">
        <ele>118.9</ele>
        <time>2017-03-02T11:25:21Z</time>
      </trkpt>
      <trkpt lat="43.46913" lon="1.55917">
        <ele>118.2</ele>
        <time>2017-03-02T11:25:23Z</time>
      </trkpt>
      <trkpt lat="43.46907" lon="1.55928">
        <ele>117.6</ele>
        <time>2017-03-02T11:25:25Z</time>
      </trkpt>
      <trkpt lat="43.469" lon="1.5594">
        <ele>117</ele>
        <time>2017-03-02T11:25:27Z</time>
      </trkpt>
      <trkpt lat="43.46894" lon="1.55952">
        <ele>116.5</ele>
        <time>2017-03-02T11:25:29Z</time>
      </trkpt>
      <trkpt lat="43.46889" lon="1.55964">
        <ele>116.1</ele>
        <time>2017-03-02T11:25:31Z</time>
      </trkpt>
      <trkpt lat="43.46883" lon="1.55975">
        <ele>115.8</ele>
        <time>2017-03-02T11:25:33Z</time>
      </trkpt>
      <trkpt lat="43.46878" lon="1.55986">
        <ele>115.6</ele>
        <time>2017-03-02T11:25:35Z</time>
      </trkpt>
      <trkpt lat="43.46871" lon="1.55999">
        <ele>115.4</ele>
        <time>2017-03-02T11:25:37Z</time>
      </trkpt>
      <trkpt lat="43.46865" lon="1.56011">
        <ele>115.1</ele>
        <time>2017-03-02T11:25:39Z</time>
      </trkpt>
      <trkpt lat="43.4686" lon="1.56023">
        <ele>114.8</ele>
        <time>2017-03-02T11:25:41Z</time>
      </trkpt>
      <trkpt lat="43.46853" lon="1.56035">
        <ele>114.3</ele>
        <time>2017-03-02T11:25:43Z</time>
      </trkpt>
      <trkpt lat="43.46845" lon="1.56049">
        <ele>113.9</ele>
        <time>2017-03-02T11:25:45Z</time>
      </trkpt>
      <trkpt lat="43.46838" lon="1.56061">
        <ele>113.5</ele>
        <time>2017-03-02T11:25:47Z</time>
      </trkpt>
      <trkpt lat="43.46833" lon="1.56072">
        <ele>113.3</ele>
        <time>2017-03-02T11:25:49Z</time>
      </trkpt>
      <trkpt lat="43.46827" lon="1.56084">
        <ele>112.9</ele>
        <time>2017-03-02T11:25:51Z</time>
      </trkpt>
      <trkpt lat="43.46823" lon="1.56091">
        <ele>112.7</ele>
        <time>2017-03-02T11:25:52Z</time>
      </trkpt>
      <trkpt lat="43.46816" lon="1.56105">
        <ele>112.8</ele>
        <time>2017-03-02T11:25:54Z</time>
      </trkpt>
      <trkpt lat="43.46808" lon="1.56121">
        <ele>113.3</ele>
        <time>2017-03-02T11:25:56Z</time>
      </trkpt>
      <trkpt lat="43.46804" lon="1.5613">
        <ele>113.6</ele>
        <time>2017-03-02T11:25:57Z</time>
      </trkpt>
      <trkpt lat="43.46799" lon="1.56138">
        <ele>114</ele>
        <time>2017-03-02T11:25:58Z</time>
      </trkpt>
      <trkpt lat="43.46793" lon="1.56151">
        <ele>114.5</ele>
        <time>2017-03-02T11:26:00Z</time>
      </trkpt>
      <trkpt lat="43.46789" lon="1.56161">
        <ele>114.7</ele>
        <time>2017-03-02T11:26:02Z</time>
      </trkpt>
      <trkpt lat="43.46785" lon="1.56172">
        <ele>114.6</ele>
        <time>2017-03-02T11:26:04Z</time>
      </trkpt>
      <trkpt lat="43.46781" lon="1.56183">
        <ele>114.7</ele>
        <time>2017-03-02T11:26:06Z</time>
      </trkpt>
      <trkpt lat="43.46778" lon="1.56192">
        <ele>114.9</ele>
        <time>2017-03-02T11:26:08Z</time>
      </trkpt>
      <trkpt lat="43.46775" lon="1.56202">
        <ele>115</ele>
        <time>2017-03-02T11:26:10Z</time>
      </trkpt>
      <trkpt lat="43.46772" lon="1.56213">
        <ele>115.2</ele>
        <time>2017-03-02T11:26:12Z</time>
      </trkpt>
      <trkpt lat="43.46766" lon="1.56223">
        <ele>115.3</ele>
        <time>2017-03-02T11:26:14Z</time>
      </trkpt>
      <trkpt lat="43.46759" lon="1.56236">
        <ele>115.3</ele>
        <time>2017-03-02T11:26:16Z</time>
      </trkpt>
      <trkpt lat="43.46753" lon="1.56248">
        <ele>115.2</ele>
        <time>2017-03-02T11:26:18Z</time>
      </trkpt>
      <trkpt lat="43.46747" lon="1.56262">
        <ele>115.3</ele>
        <time>2017-03-02T11:26:20Z</time>
      </trkpt>
      <trkpt lat="43.46742" lon="1.56274">
        <ele>115.3</ele>
        <time>2017-03-02T11:26:22Z</time>
      </trkpt>
      <trkpt lat="43.46735" lon="1.56286">
        <ele>115.4</ele>
        <time>2017-03-02T11:26:24Z</time>
      </trkpt>
      <trkpt lat="43.46731" lon="1.56296">
        <ele>115.4</ele>
        <time>2017-03-02T11:26:26Z</time>
      </trkpt>
      <trkpt lat="43.46725" lon="1.56308">
        <ele>115.4</ele>
        <time>2017-03-02T11:26:28Z</time>
      </trkpt>
      <trkpt lat="43.46721" lon="1.56319">
        <ele>115.5</ele>
        <time>2017-03-02T11:26:30Z</time>
      </trkpt>
      <trkpt lat="43.46715" lon="1.5633">
        <ele>115.7</ele>
        <time>2017-03-02T11:26:32Z</time>
      </trkpt>
      <trkpt lat="43.4671" lon="1.56342">
        <ele>115.8</ele>
        <time>2017-03-02T11:26:34Z</time>
      </trkpt>
      <trkpt lat="43.46703" lon="1.56356">
        <ele>115.9</ele>
        <time>2017-03-02T11:26:36Z</time>
      </trkpt>
      <trkpt lat="43.46697" lon="1.56369">
        <ele>115.9</ele>
        <time>2017-03-02T11:26:38Z</time>
      </trkpt>
      <trkpt lat="43.46694" lon="1.56381">
        <ele>115.8</ele>
        <time>2017-03-02T11:26:40Z</time>
      </trkpt>
      <trkpt lat="43.46689" lon="1.56393">
        <ele>115.8</ele>
        <time>2017-03-02T11:26:42Z</time>
      </trkpt>
      <trkpt lat="43.46683" lon="1.56407">
        <ele>116</ele>
        <time>2017-03-02T11:26:44Z</time>
      </trkpt>
      <trkpt lat="43.46678" lon="1.56422">
        <ele>116.1</ele>
        <time>2017-03-02T11:26:46Z</time>
      </trkpt>
      <trkpt lat="43.46673" lon="1.56435">
        <ele>116.1</ele>
        <time>2017-03-02T11:26:48Z</time>
      </trkpt>
      <trkpt lat="43.46668" lon="1.56448">
        <ele>116.3</ele>
        <time>2017-03-02T11:26:50Z</time>
      </trkpt>
      <trkpt lat="43.46665" lon="1.5646">
        <ele>116.3</ele>
        <time>2017-03-02T11:26:52Z</time>
      </trkpt>
      <trkpt lat="43.46659" lon="1.56473">
        <ele>116.3</ele>
        <time>2017-03-02T11:26:54Z</time>
      </trkpt>
      <trkpt lat="43.46658" lon="1.56484">
        <ele>116.2</ele>
        <time>2017-03-02T11:26:56Z</time>
      </trkpt>
      <trkpt lat="43.46655" lon="1.56496">
        <ele>116.3</ele>
        <time>2017-03-02T11:26:58Z</time>
      </trkpt>
      <trkpt lat="43.4665" lon="1.5651">
        <ele>116.5</ele>
        <time>2017-03-02T11:27:00Z</time>
      </trkpt>
      <trkpt lat="43.46645" lon="1.56524">
        <ele>116.6</ele>
        <time>2017-03-02T11:27:02Z</time>
      </trkpt>
      <trkpt lat="43.46638" lon="1.56538">
        <ele>116.9</ele>
        <time>2017-03-02T11:27:04Z</time>
      </trkpt>
      <trkpt lat="43.46633" lon="1.56551">
        <ele>117</ele>
        <time>2017-03-02T11:27:06Z</time>
      </trkpt>
      <trkpt lat="43.46627" lon="1.56564">
        <ele>117.1</ele>
        <time>2017-03-02T11:27:08Z</time>
      </trkpt>
      <trkpt lat="43.46623" lon="1.56576">
        <ele>117.2</ele>
        <time>2017-03-02T11:27:10Z</time>
      </trkpt>
      <trkpt lat="43.46617" lon="1.56591">
        <ele>117.1</ele>
        <time>2017-03-02T11:27:12Z</time>
      </trkpt>
      <trkpt lat="43.46612" lon="1.56605">
        <ele>117.1</ele>
        <time>2017-03-02T11:27:14Z</time>
      </trkpt>
      <trkpt lat="43.46608" lon="1.56616">
        <ele>117.1</ele>
        <time>2017-03-02T11:27:16Z</time>
      </trkpt>
      <trkpt lat="43.46604" lon="1.56627">
        <ele>117</ele>
        <time>2017-03-02T11:27:18Z</time>
      </trkpt>
      <trkpt lat="43.46599" lon="1.5664">
        <ele>116.9</ele>
        <time>2017-03-02T11:27:20Z</time>
      </trkpt>
      <trkpt lat="43.46595" lon="1.5665">
        <ele>116.7</ele>
        <time>2017-03-02T11:27:22Z</time>
      </trkpt>
      <trkpt lat="43.46589" lon="1.56663">
        <ele>116.6</ele>
        <time>2017-03-02T11:27:24Z</time>
      </trkpt>
      <trkpt lat="43.46583" lon="1.56674">
        <ele>116.6</ele>
        <time>2017-03-02T11:27:26Z</time>
      </trkpt>
      <trkpt lat="43.46576" lon="1.56688">
        <ele>116.2</ele>
        <time>2017-03-02T11:27:28Z</time>
      </trkpt>
      <trkpt lat="43.4657" lon="1.56701">
        <ele>115.8</ele>
        <time>2017-03-02T11:27:30Z</time>
      </trkpt>
      <trkpt lat="43.46565" lon="1.56711">
        <ele>115.5</ele>
        <time>2017-03-02T11:27:32Z</time>
      </trkpt>
      <trkpt lat="43.46559" lon="1.56722">
        <ele>115.2</ele>
        <time>2017-03-02T11:27:34Z</time>
      </trkpt>
      <trkpt lat="43.46553" lon="1.56734">
        <ele>114.9</ele>
        <time>2017-03-02T11:27:36Z</time>
      </trkpt>
      <trkpt lat="43.46547" lon="1.56748">
        <ele>114.9</ele>
        <time>2017-03-02T11:27:38Z</time>
      </trkpt>
      <trkpt lat="43.4654" lon="1.5676">
        <ele>114.9</ele>
        <time>2017-03-02T11:27:40Z</time>
      </trkpt>
      <trkpt lat="43.46535" lon="1.56771">
        <ele>114.9</ele>
        <time>2017-03-02T11:27:42Z</time>
      </trkpt>
      <trkpt lat="43.4653" lon="1.56783">
        <ele>114.9</ele>
        <time>2017-03-02T11:27:44Z</time>
      </trkpt>
      <trkpt lat="43.46524" lon="1.56794">
        <ele>115</ele>
        <time>2017-03-02T11:27:46Z</time>
      </trkpt>
      <trkpt lat="43.46517" lon="1.56806">
        <ele>115</ele>
        <time>2017-03-02T11:27:48Z</time>
      </trkpt>
      <trkpt lat="43.46512" lon="1.56817">
        <ele>114.9</ele>
        <time>2017-03-02T11:27:50Z</time>
      </trkpt>
      <trkpt lat="43.46505" lon="1.56829">
        <ele>114.8</ele>
        <time>2017-03-02T11:27:52Z</time>
      </trkpt>
      <trkpt lat="43.465" lon="1.56838">
        <ele>114.7</ele>
        <time>2017-03-02T11:27:54Z</time>
      </trkpt>
      <trkpt lat="43.46493" lon="1.56849">
        <ele>114.4</ele>
        <time>2017-03-02T11:27:56Z</time>
      </trkpt>
      <trkpt lat="43.46489" lon="1.5686">
        <ele>114.2</ele>
        <time>2017-03-02T11:27:58Z</time>
      </trkpt>
      <trkpt lat="43.46483" lon="1.56872">
        <ele>114</ele>
        <time>2017-03-02T11:28:01Z</time>
      </trkpt>
      <trkpt lat="43.46476" lon="1.56883">
        <ele>114.1</ele>
        <time>2017-03-02T11:28:03Z</time>
      </trkpt>
      <trkpt lat="43.46467" lon="1.56893">
        <ele>114.1</ele>
        <time>2017-03-02T11:28:05Z</time>
      </trkpt>
      <trkpt lat="43.46459" lon="1.56904">
        <ele>114</ele>
        <time>2017-03-02T11:28:07Z</time>
      </trkpt>
      <trkpt lat="43.46453" lon="1.56911">
        <ele>113.7</ele>
        <time>2017-03-02T11:28:09Z</time>
      </trkpt>
      <trkpt lat="43.46448" lon="1.56921">
        <ele>113.9</ele>
        <time>2017-03-02T11:28:11Z</time>
      </trkpt>
      <trkpt lat="43.46443" lon="1.5693">
        <ele>114</ele>
        <time>2017-03-02T11:28:14Z</time>
      </trkpt>
      <trkpt lat="43.46438" lon="1.56939">
        <ele>114</ele>
        <time>2017-03-02T11:28:18Z</time>
      </trkpt>
      <trkpt lat="43.46431" lon="1.56952">
        <ele>114.2</ele>
        <time>2017-03-02T11:28:21Z</time>
      </trkpt>
      <trkpt lat="43.46424" lon="1.56962">
        <ele>114.3</ele>
        <time>2017-03-02T11:28:23Z</time>
      </trkpt>
      <trkpt lat="43.46417" lon="1.56971">
        <ele>114.3</ele>
        <time>2017-03-02T11:28:25Z</time>
      </trkpt>
      <trkpt lat="43.46411" lon="1.56977">
        <ele>114.5</ele>
        <time>2017-03-02T11:28:26Z</time>
      </trkpt>
      <trkpt lat="43.46402" lon="1.56987">
        <ele>114.4</ele>
        <time>2017-03-02T11:28:28Z</time>
      </trkpt>
      <trkpt lat="43.46392" lon="1.56996">
        <ele>114.4</ele>
        <time>2017-03-02T11:28:30Z</time>
      </trkpt>
      <trkpt lat="43.46384" lon="1.57007">
        <ele>114.4</ele>
        <time>2017-03-02T11:28:32Z</time>
      </trkpt>
      <trkpt lat="43.46375" lon="1.57017">
        <ele>114.7</ele>
        <time>2017-03-02T11:28:34Z</time>
      </trkpt>
      <trkpt lat="43.46367" lon="1.57025">
        <ele>114.3</ele>
        <time>2017-03-02T11:28:36Z</time>
      </trkpt>
      <trkpt lat="43.4636" lon="1.57031">
        <ele>114.3</ele>
        <time>2017-03-02T11:28:38Z</time>
      </trkpt>
      <trkpt lat="43.46354" lon="1.57039">
        <ele>114.1</ele>
        <time>2017-03-02T11:28:40Z</time>
      </trkpt>
      <trkpt lat="43.46347" lon="1.57045">
        <ele>114.1</ele>
        <time>2017-03-02T11:28:42Z</time>
      </trkpt>
      <trkpt lat="43.4634" lon="1.57051">
        <ele>114.1</ele>
        <time>2017-03-02T11:28:44Z</time>
      </trkpt>
      <trkpt lat="43.46332" lon="1.57059">
        <ele>115</ele>
        <time>2017-03-02T11:28:46Z</time>
      </trkpt>
      <trkpt lat="43.46323" lon="1.57065">
        <ele>115.5</ele>
        <time>2017-03-02T11:28:48Z</time>
      </trkpt>
      <trkpt lat="43.46315" lon="1.57071">
        <ele>116.3</ele>
        <time>2017-03-02T11:28:50Z</time>
      </trkpt>
      <trkpt lat="43.46307" lon="1.57075">
        <ele>117</ele>
        <time>2017-03-02T11:28:52Z</time>
      </trkpt>
      <trkpt lat="43.46298" lon="1.57076">
        <ele>117.7</ele>
        <time>2017-03-02T11:28:54Z</time>
      </trkpt>
      <trkpt lat="43.46288" lon="1.57079">
        <ele>119.2</ele>
        <time>2017-03-02T11:28:57Z</time>
      </trkpt>
      <trkpt lat="43.4628" lon="1.57083">
        <ele>121.2</ele>
        <time>2017-03-02T11:29:03Z</time>
      </trkpt>
      <trkpt lat="43.46273" lon="1.57089">
        <ele>122.5</ele>
        <time>2017-03-02T11:29:08Z</time>
      </trkpt>
      <trkpt lat="43.46265" lon="1.57095">
        <ele>123</ele>
        <time>2017-03-02T11:29:11Z</time>
      </trkpt>
      <trkpt lat="43.46257" lon="1.57105">
        <ele>123.8</ele>
        <time>2017-03-02T11:29:14Z</time>
      </trkpt>
      <trkpt lat="43.4625" lon="1.57111">
        <ele>124.1</ele>
        <time>2017-03-02T11:29:16Z</time>
      </trkpt>
      <trkpt lat="43.46244" lon="1.57118">
        <ele>124.5</ele>
        <time>2017-03-02T11:29:18Z</time>
      </trkpt>
      <trkpt lat="43.46237" lon="1.57124">
        <ele>125</ele>
        <time>2017-03-02T11:29:20Z</time>
      </trkpt>
      <trkpt lat="43.46231" lon="1.57131">
        <ele>125.7</ele>
        <time>2017-03-02T11:29:22Z</time>
      </trkpt>
      <trkpt lat="43.46223" lon="1.57137">
        <ele>126</ele>
        <time>2017-03-02T11:29:24Z</time>
      </trkpt>
      <trkpt lat="43.46216" lon="1.57143">
        <ele>126.3</ele>
        <time>2017-03-02T11:29:26Z</time>
      </trkpt>
      <trkpt lat="43.46209" lon="1.5715">
        <ele>126.2</ele>
        <time>2017-03-02T11:29:29Z</time>
      </trkpt>
      <trkpt lat="43.46203" lon="1.57158">
        <ele>126.2</ele>
        <time>2017-03-02T11:29:32Z</time>
      </trkpt>
      <trkpt lat="43.46196" lon="1.57164">
        <ele>126.7</ele>
        <time>2017-03-02T11:29:35Z</time>
      </trkpt>
      <trkpt lat="43.46188" lon="1.57173">
        <ele>126.8</ele>
        <time>2017-03-02T11:29:38Z</time>
      </trkpt>
      <trkpt lat="43.46183" lon="1.57179">
        <ele>126.8</ele>
        <time>2017-03-02T11:29:40Z</time>
      </trkpt>
      <trkpt lat="43.46177" lon="1.57187">
        <ele>126.8</ele>
        <time>2017-03-02T11:29:42Z</time>
      </trkpt>
      <trkpt lat="43.46172" lon="1.57196">
        <ele>126.9</ele>
        <time>2017-03-02T11:29:44Z</time>
      </trkpt>
      <trkpt lat="43.46166" lon="1.57206">
        <ele>126.8</ele>
        <time>2017-03-02T11:29:46Z</time>
      </trkpt>
      <trkpt lat="43.46158" lon="1.57219">
        <ele>126.6</ele>
        <time>2017-03-02T11:29:49Z</time>
      </trkpt>
      <trkpt lat="43.46152" lon="1.5723">
        <ele>126.8</ele>
        <time>2017-03-02T11:29:51Z</time>
      </trkpt>
      <trkpt lat="43.46146" lon="1.57241">
        <ele>126.8</ele>
        <time>2017-03-02T11:29:53Z</time>
      </trkpt>
      <trkpt lat="43.46139" lon="1.57252">
        <ele>126.9</ele>
        <time>2017-03-02T11:29:55Z</time>
      </trkpt>
      <trkpt lat="43.46132" lon="1.57263">
        <ele>127.1</ele>
        <time>2017-03-02T11:29:57Z</time>
      </trkpt>
      <trkpt lat="43.46124" lon="1.57274">
        <ele>127.5</ele>
        <time>2017-03-02T11:29:59Z</time>
      </trkpt>
      <trkpt lat="43.46118" lon="1.57287">
        <ele>127.7</ele>
        <time>2017-03-02T11:30:01Z</time>
      </trkpt>
      <trkpt lat="43.46112" lon="1.57295">
        <ele>127.8</ele>
        <time>2017-03-02T11:30:03Z</time>
      </trkpt>
      <trkpt lat="43.46106" lon="1.57306">
        <ele>127.8</ele>
        <time>2017-03-02T11:30:05Z</time>
      </trkpt>
      <trkpt lat="43.46098" lon="1.57318">
        <ele>127.7</ele>
        <time>2017-03-02T11:30:07Z</time>
      </trkpt>
      <trkpt lat="43.4609" lon="1.5733">
        <ele>127.8</ele>
        <time>2017-03-02T11:30:09Z</time>
      </trkpt>
      <trkpt lat="43.46083" lon="1.57342">
        <ele>127.5</ele>
        <time>2017-03-02T11:30:11Z</time>
      </trkpt>
      <trkpt lat="43.46078" lon="1.57352">
        <ele>127.5</ele>
        <time>2017-03-02T11:30:13Z</time>
      </trkpt>
      <trkpt lat="43.46072" lon="1.57361">
        <ele>127.6</ele>
        <time>2017-03-02T11:30:15Z</time>
      </trkpt>
      <trkpt lat="43.46066" lon="1.57372">
        <ele>127.7</ele>
        <time>2017-03-02T11:30:17Z</time>
      </trkpt>
      <trkpt lat="43.4606" lon="1.57384">
        <ele>127.6</ele>
        <time>2017-03-02T11:30:19Z</time>
      </trkpt>
      <trkpt lat="43.46052" lon="1.57397">
        <ele>127.2</ele>
        <time>2017-03-02T11:30:21Z</time>
      </trkpt>
      <trkpt lat="43.46045" lon="1.5741">
        <ele>127.1</ele>
        <time>2017-03-02T11:30:23Z</time>
      </trkpt>
      <trkpt lat="43.46038" lon="1.57424">
        <ele>126.8</ele>
        <time>2017-03-02T11:30:25Z</time>
      </trkpt>
      <trkpt lat="43.46032" lon="1.57437">
        <ele>126.7</ele>
        <time>2017-03-02T11:30:27Z</time>
      </trkpt>
      <trkpt lat="43.46026" lon="1.57449">
        <ele>126.3</ele>
        <time>2017-03-02T11:30:29Z</time>
      </trkpt>
      <trkpt lat="43.4602" lon="1.57462">
        <ele>126.1</ele>
        <time>2017-03-02T11:30:31Z</time>
      </trkpt>
      <trkpt lat="43.46013" lon="1.57474">
        <ele>125.9</ele>
        <time>2017-03-02T11:30:33Z</time>
      </trkpt>
      <trkpt lat="43.46005" lon="1.57486">
        <ele>125.8</ele>
        <time>2017-03-02T11:30:35Z</time>
      </trkpt>
      <trkpt lat="43.45999" lon="1.57498">
        <ele>125.7</ele>
        <time>2017-03-02T11:30:37Z</time>
      </trkpt>
      <trkpt lat="43.45992" lon="1.57512">
        <ele>125.6</ele>
        <time>2017-03-02T11:30:39Z</time>
      </trkpt>
      <trkpt lat="43.45986" lon="1.57527">
        <ele>125.1</ele>
        <time>2017-03-02T11:30:41Z</time>
      </trkpt>
      <trkpt lat="43.45981" lon="1.57535">
        <ele>125</ele>
        <time>2017-03-02T11:30:42Z</time>
      </trkpt>
      <trkpt lat="43.45973" lon="1.57548">
        <ele>124.7</ele>
        <time>2017-03-02T11:30:44Z</time>
      </trkpt>
      <trkpt lat="43.45966" lon="1.57561">
        <ele>124.6</ele>
        <time>2017-03-02T11:30:46Z</time>
      </trkpt>
      <trkpt lat="43.45959" lon="1.57575">
        <ele>124.1</ele>
        <time>2017-03-02T11:30:48Z</time>
      </trkpt>
      <trkpt lat="43.45954" lon="1.57588">
        <ele>124</ele>
        <time>2017-03-02T11:30:50Z</time>
      </trkpt>
      <trkpt lat="43.45947" lon="1.57602">
        <ele>123.8</ele>
        <time>2017-03-02T11:30:52Z</time>
      </trkpt>
      <trkpt lat="43.4594" lon="1.57616">
        <ele>123.7</ele>
        <time>2017-03-02T11:30:54Z</time>
      </trkpt>
      <trkpt lat="43.45933" lon="1.57629">
        <ele>123.5</ele>
        <time>2017-03-02T11:30:56Z</time>
      </trkpt>
      <trkpt lat="43.45927" lon="1.57641">
        <ele>123.3</ele>
        <time>2017-03-02T11:30:58Z</time>
      </trkpt>
      <trkpt lat="43.4592" lon="1.57654">
        <ele>123.1</ele>
        <time>2017-03-02T11:31:00Z</time>
      </trkpt>
      <trkpt lat="43.45912" lon="1.57668">
        <ele>122.9</ele>
        <time>2017-03-02T11:31:02Z</time>
      </trkpt>
      <trkpt lat="43.45907" lon="1.57681">
        <ele>122.9</ele>
        <time>2017-03-02T11:31:04Z</time>
      </trkpt>
      <trkpt lat="43.45902" lon="1.57693">
        <ele>123</ele>
        <time>2017-03-02T11:31:06Z</time>
      </trkpt>
      <trkpt lat="43.45898" lon="1.57706">
        <ele>122.9</ele>
        <time>2017-03-02T11:31:08Z</time>
      </trkpt>
      <trkpt lat="43.45892" lon="1.5772">
        <ele>122.5</ele>
        <time>2017-03-02T11:31:10Z</time>
      </trkpt>
      <trkpt lat="43.45888" lon="1.57732">
        <ele>122.4</ele>
        <time>2017-03-02T11:31:12Z</time>
      </trkpt>
      <trkpt lat="43.45884" lon="1.57742">
        <ele>122.4</ele>
        <time>2017-03-02T11:31:13Z</time>
      </trkpt>
      <trkpt lat="43.45879" lon="1.57753">
        <ele>122.6</ele>
        <time>2017-03-02T11:31:14Z</time>
      </trkpt>
      <trkpt lat="43.45875" lon="1.57767">
        <ele>122.4</ele>
        <time>2017-03-02T11:31:16Z</time>
      </trkpt>
      <trkpt lat="43.45869" lon="1.57782">
        <ele>122.2</ele>
        <time>2017-03-02T11:31:18Z</time>
      </trkpt>
      <trkpt lat="43.45864" lon="1.57796">
        <ele>122.1</ele>
        <time>2017-03-02T11:31:20Z</time>
      </trkpt>
      <trkpt lat="43.4586" lon="1.5781">
        <ele>121.8</ele>
        <time>2017-03-02T11:31:22Z</time>
      </trkpt>
      <trkpt lat="43.45855" lon="1.5782">
        <ele>121.8</ele>
        <time>2017-03-02T11:31:23Z</time>
      </trkpt>
      <trkpt lat="43.45849" lon="1.57836">
        <ele>121.7</ele>
        <time>2017-03-02T11:31:25Z</time>
      </trkpt>
      <trkpt lat="43.45845" lon="1.5785">
        <ele>121.1</ele>
        <time>2017-03-02T11:31:27Z</time>
      </trkpt>
      <trkpt lat="43.45841" lon="1.57862">
        <ele>120.7</ele>
        <time>2017-03-02T11:31:29Z</time>
      </trkpt>
      <trkpt lat="43.45837" lon="1.57874">
        <ele>120.2</ele>
        <time>2017-03-02T11:31:31Z</time>
      </trkpt>
      <trkpt lat="43.45833" lon="1.57887">
        <ele>119.7</ele>
        <time>2017-03-02T11:31:33Z</time>
      </trkpt>
      <trkpt lat="43.45829" lon="1.579">
        <ele>119.2</ele>
        <time>2017-03-02T11:31:35Z</time>
      </trkpt>
      <trkpt lat="43.45823" lon="1.57916">
        <ele>118.8</ele>
        <time>2017-03-02T11:31:37Z</time>
      </trkpt>
      <trkpt lat="43.45816" lon="1.5793">
        <ele>118.4</ele>
        <time>2017-03-02T11:31:39Z</time>
      </trkpt>
      <trkpt lat="43.4581" lon="1.57943">
        <ele>117.9</ele>
        <time>2017-03-02T11:31:41Z</time>
      </trkpt>
      <trkpt lat="43.45804" lon="1.57956">
        <ele>117.5</ele>
        <time>2017-03-02T11:31:43Z</time>
      </trkpt>
      <trkpt lat="43.45797" lon="1.57969">
        <ele>117.1</ele>
        <time>2017-03-02T11:31:45Z</time>
      </trkpt>
      <trkpt lat="43.4579" lon="1.5798">
        <ele>116.7</ele>
        <time>2017-03-02T11:31:47Z</time>
      </trkpt>
      <trkpt lat="43.45781" lon="1.57994">
        <ele>116.2</ele>
        <time>2017-03-02T11:31:49Z</time>
      </trkpt>
      <trkpt lat="43.45775" lon="1.58006">
        <ele>115.7</ele>
        <time>2017-03-02T11:31:51Z</time>
      </trkpt>
      <trkpt lat="43.45769" lon="1.58015">
        <ele>115.6</ele>
        <time>2017-03-02T11:31:52Z</time>
      </trkpt>
      <trkpt lat="43.45764" lon="1.58022">
        <ele>115.5</ele>
        <time>2017-03-02T11:31:53Z</time>
      </trkpt>
      <trkpt lat="43.45758" lon="1.58029">
        <ele>115.4</ele>
        <time>2017-03-02T11:31:54Z</time>
      </trkpt>
      <trkpt lat="43.45752" lon="1.58036">
        <ele>115.3</ele>
        <time>2017-03-02T11:31:55Z</time>
      </trkpt>
      <trkpt lat="43.45742" lon="1.58047">
        <ele>115</ele>
        <time>2017-03-02T11:31:57Z</time>
      </trkpt>
      <trkpt lat="43.45734" lon="1.58058">
        <ele>114.8</ele>
        <time>2017-03-02T11:31:59Z</time>
      </trkpt>
      <trkpt lat="43.45727" lon="1.58069">
        <ele>114.5</ele>
        <time>2017-03-02T11:32:01Z</time>
      </trkpt>
      <trkpt lat="43.4572" lon="1.5808">
        <ele>114.3</ele>
        <time>2017-03-02T11:32:03Z</time>
      </trkpt>
      <trkpt lat="43.45713" lon="1.58089">
        <ele>114.2</ele>
        <time>2017-03-02T11:32:05Z</time>
      </trkpt>
      <trkpt lat="43.45709" lon="1.58099">
        <ele>114</ele>
        <time>2017-03-02T11:32:07Z</time>
      </trkpt>
      <trkpt lat="43.45702" lon="1.5811">
        <ele>113.8</ele>
        <time>2017-03-02T11:32:09Z</time>
      </trkpt>
      <trkpt lat="43.45693" lon="1.58122">
        <ele>113.9</ele>
        <time>2017-03-02T11:32:11Z</time>
      </trkpt>
      <trkpt lat="43.45686" lon="1.58133">
        <ele>114</ele>
        <time>2017-03-02T11:32:13Z</time>
      </trkpt>
      <trkpt lat="43.45679" lon="1.58144">
        <ele>114.1</ele>
        <time>2017-03-02T11:32:15Z</time>
      </trkpt>
      <trkpt lat="43.45671" lon="1.58157">
        <ele>114</ele>
        <time>2017-03-02T11:32:17Z</time>
      </trkpt>
      <trkpt lat="43.45666" lon="1.58167">
        <ele>114.2</ele>
        <time>2017-03-02T11:32:19Z</time>
      </trkpt>
      <trkpt lat="43.45658" lon="1.58177">
        <ele>114.2</ele>
        <time>2017-03-02T11:32:21Z</time>
      </trkpt>
      <trkpt lat="43.45652" lon="1.58186">
        <ele>114.2</ele>
        <time>2017-03-02T11:32:23Z</time>
      </trkpt>
      <trkpt lat="43.45647" lon="1.58193">
        <ele>114.3</ele>
        <time>2017-03-02T11:32:24Z</time>
      </trkpt>
      <trkpt lat="43.45641" lon="1.58201">
        <ele>114.3</ele>
        <time>2017-03-02T11:32:25Z</time>
      </trkpt>
      <trkpt lat="43.45636" lon="1.58208">
        <ele>114.4</ele>
        <time>2017-03-02T11:32:26Z</time>
      </trkpt>
      <trkpt lat="43.45629" lon="1.58216">
        <ele>114.3</ele>
        <time>2017-03-02T11:32:27Z</time>
      </trkpt>
      <trkpt lat="43.45622" lon="1.58227">
        <ele>114.4</ele>
        <time>2017-03-02T11:32:28Z</time>
      </trkpt>
      <trkpt lat="43.45616" lon="1.58236">
        <ele>114.5</ele>
        <time>2017-03-02T11:32:29Z</time>
      </trkpt>
      <trkpt lat="43.4561" lon="1.58247">
        <ele>114.5</ele>
        <time>2017-03-02T11:32:31Z</time>
      </trkpt>
      <trkpt lat="43.45606" lon="1.58258">
        <ele>114.6</ele>
        <time>2017-03-02T11:32:33Z</time>
      </trkpt>
      <trkpt lat="43.45602" lon="1.58269">
        <ele>114.4</ele>
        <time>2017-03-02T11:32:35Z</time>
      </trkpt>
      <trkpt lat="43.45597" lon="1.58282">
        <ele>114.3</ele>
        <time>2017-03-02T11:32:37Z</time>
      </trkpt>
      <trkpt lat="43.45593" lon="1.58296">
        <ele>114.3</ele>
        <time>2017-03-02T11:32:39Z</time>
      </trkpt>
      <trkpt lat="43.45589" lon="1.58311">
        <ele>114.3</ele>
        <time>2017-03-02T11:32:41Z</time>
      </trkpt>
      <trkpt lat="43.45586" lon="1.58325">
        <ele>114.2</ele>
        <time>2017-03-02T11:32:43Z</time>
      </trkpt>
      <trkpt lat="43.45584" lon="1.58339">
        <ele>114.1</ele>
        <time>2017-03-02T11:32:45Z</time>
      </trkpt>
      <trkpt lat="43.4558" lon="1.58355">
        <ele>113.9</ele>
        <time>2017-03-02T11:32:47Z</time>
      </trkpt>
      <trkpt lat="43.45575" lon="1.58372">
        <ele>113.6</ele>
        <time>2017-03-02T11:32:49Z</time>
      </trkpt>
      <trkpt lat="43.45571" lon="1.58388">
        <ele>113.4</ele>
        <time>2017-03-02T11:32:51Z</time>
      </trkpt>
      <trkpt lat="43.45568" lon="1.58405">
        <ele>113.3</ele>
        <time>2017-03-02T11:32:53Z</time>
      </trkpt>
      <trkpt lat="43.45565" lon="1.58423">
        <ele>113</ele>
        <time>2017-03-02T11:32:55Z</time>
      </trkpt>
      <trkpt lat="43.45562" lon="1.58433">
        <ele>112.9</ele>
        <time>2017-03-02T11:32:56Z</time>
      </trkpt>
      <trkpt lat="43.45559" lon="1.58452">
        <ele>112.6</ele>
        <time>2017-03-02T11:32:58Z</time>
      </trkpt>
      <trkpt lat="43.45556" lon="1.58474">
        <ele>112.7</ele>
        <time>2017-03-02T11:33:00Z</time>
      </trkpt>
      <trkpt lat="43.45553" lon="1.58486">
        <ele>112.8</ele>
        <time>2017-03-02T11:33:01Z</time>
      </trkpt>
      <trkpt lat="43.45552" lon="1.58506">
        <ele>112.9</ele>
        <time>2017-03-02T11:33:03Z</time>
      </trkpt>
      <trkpt lat="43.45552" lon="1.58518">
        <ele>113.1</ele>
        <time>2017-03-02T11:33:04Z</time>
      </trkpt>
      <trkpt lat="43.45552" lon="1.58538">
        <ele>113.3</ele>
        <time>2017-03-02T11:33:06Z</time>
      </trkpt>
      <trkpt lat="43.45551" lon="1.58555">
        <ele>113.2</ele>
        <time>2017-03-02T11:33:08Z</time>
      </trkpt>
      <trkpt lat="43.45551" lon="1.58572">
        <ele>113.5</ele>
        <time>2017-03-02T11:33:10Z</time>
      </trkpt>
      <trkpt lat="43.45553" lon="1.5859">
        <ele>113.6</ele>
        <time>2017-03-02T11:33:12Z</time>
      </trkpt>
      <trkpt lat="43.45557" lon="1.58606">
        <ele>113.7</ele>
        <time>2017-03-02T11:33:14Z</time>
      </trkpt>
      <trkpt lat="43.45559" lon="1.58622">
        <ele>114</ele>
        <time>2017-03-02T11:33:16Z</time>
      </trkpt>
      <trkpt lat="43.45559" lon="1.58639">
        <ele>114.3</ele>
        <time>2017-03-02T11:33:18Z</time>
      </trkpt>
      <trkpt lat="43.45561" lon="1.58655">
        <ele>114.2</ele>
        <time>2017-03-02T11:33:20Z</time>
      </trkpt>
      <trkpt lat="43.45562" lon="1.58671">
        <ele>114.4</ele>
        <time>2017-03-02T11:33:22Z</time>
      </trkpt>
      <trkpt lat="43.45563" lon="1.58687">
        <ele>114.4</ele>
        <time>2017-03-02T11:33:24Z</time>
      </trkpt>
      <trkpt lat="43.45563" lon="1.58702">
        <ele>114.3</ele>
        <time>2017-03-02T11:33:26Z</time>
      </trkpt>
      <trkpt lat="43.45564" lon="1.58717">
        <ele>114.7</ele>
        <time>2017-03-02T11:33:28Z</time>
      </trkpt>
      <trkpt lat="43.45566" lon="1.58732">
        <ele>115</ele>
        <time>2017-03-02T11:33:30Z</time>
      </trkpt>
      <trkpt lat="43.45567" lon="1.58746">
        <ele>115.2</ele>
        <time>2017-03-02T11:33:32Z</time>
      </trkpt>
      <trkpt lat="43.45568" lon="1.58761">
        <ele>115.5</ele>
        <time>2017-03-02T11:33:34Z</time>
      </trkpt>
      <trkpt lat="43.4557" lon="1.58775">
        <ele>115.9</ele>
        <time>2017-03-02T11:33:36Z</time>
      </trkpt>
      <trkpt lat="43.4557" lon="1.58789">
        <ele>116.1</ele>
        <time>2017-03-02T11:33:38Z</time>
      </trkpt>
      <trkpt lat="43.4557" lon="1.58805">
        <ele>116.1</ele>
        <time>2017-03-02T11:33:40Z</time>
      </trkpt>
      <trkpt lat="43.4557" lon="1.5882">
        <ele>116</ele>
        <time>2017-03-02T11:33:42Z</time>
      </trkpt>
      <trkpt lat="43.4557" lon="1.58834">
        <ele>116.3</ele>
        <time>2017-03-02T11:33:44Z</time>
      </trkpt>
      <trkpt lat="43.4557" lon="1.5885">
        <ele>116.4</ele>
        <time>2017-03-02T11:33:46Z</time>
      </trkpt>
      <trkpt lat="43.45569" lon="1.58866">
        <ele>116.7</ele>
        <time>2017-03-02T11:33:48Z</time>
      </trkpt>
      <trkpt lat="43.45568" lon="1.58881">
        <ele>116.8</ele>
        <time>2017-03-02T11:33:50Z</time>
      </trkpt>
      <trkpt lat="43.45567" lon="1.58897">
        <ele>117</ele>
        <time>2017-03-02T11:33:52Z</time>
      </trkpt>
      <trkpt lat="43.45567" lon="1.58911">
        <ele>117.1</ele>
        <time>2017-03-02T11:33:54Z</time>
      </trkpt>
      <trkpt lat="43.45567" lon="1.58924">
        <ele>117.3</ele>
        <time>2017-03-02T11:33:56Z</time>
      </trkpt>
      <trkpt lat="43.45566" lon="1.58937">
        <ele>117.4</ele>
        <time>2017-03-02T11:33:58Z</time>
      </trkpt>
      <trkpt lat="43.45566" lon="1.58949">
        <ele>117.2</ele>
        <time>2017-03-02T11:34:00Z</time>
      </trkpt>
      <trkpt lat="43.45565" lon="1.58962">
        <ele>117.1</ele>
        <time>2017-03-02T11:34:02Z</time>
      </trkpt>
      <trkpt lat="43.45564" lon="1.58976">
        <ele>117.3</ele>
        <time>2017-03-02T11:34:04Z</time>
      </trkpt>
      <trkpt lat="43.45562" lon="1.58994">
        <ele>117.9</ele>
        <time>2017-03-02T11:34:06Z</time>
      </trkpt>
      <trkpt lat="43.4556" lon="1.59011">
        <ele>118.8</ele>
        <time>2017-03-02T11:34:08Z</time>
      </trkpt>
      <trkpt lat="43.45558" lon="1.59028">
        <ele>119.8</ele>
        <time>2017-03-02T11:34:10Z</time>
      </trkpt>
      <trkpt lat="43.45557" lon="1.59043">
        <ele>120.8</ele>
        <time>2017-03-02T11:34:12Z</time>
      </trkpt>
      <trkpt lat="43.45556" lon="1.59055">
        <ele>121.8</ele>
        <time>2017-03-02T11:34:14Z</time>
      </trkpt>
      <trkpt lat="43.45557" lon="1.59066">
        <ele>122.6</ele>
        <time>2017-03-02T11:34:16Z</time>
      </trkpt>
      <trkpt lat="43.45557" lon="1.5908">
        <ele>124.4</ele>
        <time>2017-03-02T11:34:19Z</time>
      </trkpt>
      <trkpt lat="43.4556" lon="1.5909">
        <ele>126.2</ele>
        <time>2017-03-02T11:34:22Z</time>
      </trkpt>
      <trkpt lat="43.45562" lon="1.591">
        <ele>128.9</ele>
        <time>2017-03-02T11:34:29Z</time>
      </trkpt>
      <trkpt lat="43.45555" lon="1.59098">
        <ele>130.2</ele>
        <time>2017-03-02T11:34:34Z</time>
      </trkpt>
      <trkpt lat="43.4555" lon="1.59103">
        <ele>132.9</ele>
        <time>2017-03-02T11:34:41Z</time>
      </trkpt>
      <trkpt lat="43.45552" lon="1.59115">
        <ele>134.5</ele>
        <time>2017-03-02T11:34:44Z</time>
      </trkpt>
      <trkpt lat="43.45553" lon="1.5913">
        <ele>134.9</ele>
        <time>2017-03-02T11:34:47Z</time>
      </trkpt>
      <trkpt lat="43.4555" lon="1.59143">
        <ele>135.3</ele>
        <time>2017-03-02T11:34:49Z</time>
      </trkpt>
      <trkpt lat="43.45545" lon="1.59157">
        <ele>135.8</ele>
        <time>2017-03-02T11:34:51Z</time>
      </trkpt>
      <trkpt lat="43.45543" lon="1.5917">
        <ele>136.1</ele>
        <time>2017-03-02T11:34:53Z</time>
      </trkpt>
      <trkpt lat="43.45542" lon="1.5918">
        <ele>136.2</ele>
        <time>2017-03-02T11:34:55Z</time>
      </trkpt>
      <trkpt lat="43.45539" lon="1.59191">
        <ele>136.3</ele>
        <time>2017-03-02T11:34:57Z</time>
      </trkpt>
      <trkpt lat="43.45535" lon="1.592">
        <ele>136.3</ele>
        <time>2017-03-02T11:34:59Z</time>
      </trkpt>
      <trkpt lat="43.45532" lon="1.5921">
        <ele>136.5</ele>
        <time>2017-03-02T11:35:01Z</time>
      </trkpt>
      <trkpt lat="43.45528" lon="1.59219">
        <ele>136.7</ele>
        <time>2017-03-02T11:35:03Z</time>
      </trkpt>
      <trkpt lat="43.45522" lon="1.59228">
        <ele>136.4</ele>
        <time>2017-03-02T11:35:05Z</time>
      </trkpt>
      <trkpt lat="43.45517" lon="1.59236">
        <ele>136.4</ele>
        <time>2017-03-02T11:35:06Z</time>
      </trkpt>
      <trkpt lat="43.4551" lon="1.59244">
        <ele>136.4</ele>
        <time>2017-03-02T11:35:08Z</time>
      </trkpt>
      <trkpt lat="43.45502" lon="1.59255">
        <ele>136.3</ele>
        <time>2017-03-02T11:35:10Z</time>
      </trkpt>
      <trkpt lat="43.45493" lon="1.59265">
        <ele>136.4</ele>
        <time>2017-03-02T11:35:12Z</time>
      </trkpt>
      <trkpt lat="43.45487" lon="1.59272">
        <ele>136.5</ele>
        <time>2017-03-02T11:35:13Z</time>
      </trkpt>
      <trkpt lat="43.45481" lon="1.59278">
        <ele>136.5</ele>
        <time>2017-03-02T11:35:14Z</time>
      </trkpt>
      <trkpt lat="43.45474" lon="1.59283">
        <ele>136.6</ele>
        <time>2017-03-02T11:35:15Z</time>
      </trkpt>
      <trkpt lat="43.45461" lon="1.59291">
        <ele>136.5</ele>
        <time>2017-03-02T11:35:17Z</time>
      </trkpt>
      <trkpt lat="43.45454" lon="1.59296">
        <ele>136.5</ele>
        <time>2017-03-02T11:35:18Z</time>
      </trkpt>
      <trkpt lat="43.45442" lon="1.593">
        <ele>136.2</ele>
        <time>2017-03-02T11:35:20Z</time>
      </trkpt>
      <trkpt lat="43.45429" lon="1.59304">
        <ele>136.3</ele>
        <time>2017-03-02T11:35:22Z</time>
      </trkpt>
      <trkpt lat="43.45415" lon="1.59308">
        <ele>136.3</ele>
        <time>2017-03-02T11:35:24Z</time>
      </trkpt>
      <trkpt lat="43.45403" lon="1.59311">
        <ele>136.1</ele>
        <time>2017-03-02T11:35:26Z</time>
      </trkpt>
      <trkpt lat="43.4539" lon="1.59315">
        <ele>135.9</ele>
        <time>2017-03-02T11:35:28Z</time>
      </trkpt>
      <trkpt lat="43.45379" lon="1.59321">
        <ele>136</ele>
        <time>2017-03-02T11:35:30Z</time>
      </trkpt>
      <trkpt lat="43.45366" lon="1.59325">
        <ele>136</ele>
        <time>2017-03-02T11:35:32Z</time>
      </trkpt>
      <trkpt lat="43.45354" lon="1.59328">
        <ele>135.8</ele>
        <time>2017-03-02T11:35:34Z</time>
      </trkpt>
      <trkpt lat="43.45342" lon="1.59332">
        <ele>136</ele>
        <time>2017-03-02T11:35:36Z</time>
      </trkpt>
      <trkpt lat="43.4533" lon="1.59336">
        <ele>135.9</ele>
        <time>2017-03-02T11:35:38Z</time>
      </trkpt>
      <trkpt lat="43.45317" lon="1.59341">
        <ele>135.9</ele>
        <time>2017-03-02T11:35:40Z</time>
      </trkpt>
      <trkpt lat="43.45305" lon="1.59344">
        <ele>135.8</ele>
        <time>2017-03-02T11:35:42Z</time>
      </trkpt>
      <trkpt lat="43.45295" lon="1.59348">
        <ele>135.4</ele>
        <time>2017-03-02T11:35:44Z</time>
      </trkpt>
      <trkpt lat="43.45285" lon="1.59354">
        <ele>134.8</ele>
        <time>2017-03-02T11:35:46Z</time>
      </trkpt>
      <trkpt lat="43.45273" lon="1.59361">
        <ele>134.8</ele>
        <time>2017-03-02T11:35:48Z</time>
      </trkpt>
      <trkpt lat="43.45263" lon="1.59366">
        <ele>134.3</ele>
        <time>2017-03-02T11:35:50Z</time>
      </trkpt>
      <trkpt lat="43.4525" lon="1.59372">
        <ele>134.2</ele>
        <time>2017-03-02T11:35:52Z</time>
      </trkpt>
      <trkpt lat="43.45239" lon="1.59379">
        <ele>134.2</ele>
        <time>2017-03-02T11:35:54Z</time>
      </trkpt>
      <trkpt lat="43.45228" lon="1.59385">
        <ele>134.2</ele>
        <time>2017-03-02T11:35:56Z</time>
      </trkpt>
      <trkpt lat="43.4522" lon="1.59394">
        <ele>133.9</ele>
        <time>2017-03-02T11:35:58Z</time>
      </trkpt>
      <trkpt lat="43.45212" lon="1.59405">
        <ele>133.6</ele>
        <time>2017-03-02T11:36:00Z</time>
      </trkpt>
      <trkpt lat="43.45204" lon="1.59413">
        <ele>133.2</ele>
        <time>2017-03-02T11:36:02Z</time>
      </trkpt>
      <trkpt lat="43.45195" lon="1.5942">
        <ele>132.9</ele>
        <time>2017-03-02T11:36:04Z</time>
      </trkpt>
      <trkpt lat="43.45187" lon="1.59428">
        <ele>132.5</ele>
        <time>2017-03-02T11:36:06Z</time>
      </trkpt>
      <trkpt lat="43.4518" lon="1.59437">
        <ele>132.2</ele>
        <time>2017-03-02T11:36:08Z</time>
      </trkpt>
      <trkpt lat="43.45173" lon="1.59446">
        <ele>132</ele>
        <time>2017-03-02T11:36:10Z</time>
      </trkpt>
      <trkpt lat="43.45165" lon="1.59454">
        <ele>131.7</ele>
        <time>2017-03-02T11:36:12Z</time>
      </trkpt>
      <trkpt lat="43.45158" lon="1.59461">
        <ele>131.3</ele>
        <time>2017-03-02T11:36:14Z</time>
      </trkpt>
      <trkpt lat="43.45151" lon="1.59469">
        <ele>131.1</ele>
        <time>2017-03-02T11:36:16Z</time>
      </trkpt>
      <trkpt lat="43.45143" lon="1.59479">
        <ele>130.9</ele>
        <time>2017-03-02T11:36:18Z</time>
      </trkpt>
      <trkpt lat="43.45136" lon="1.59491">
        <ele>130.6</ele>
        <time>2017-03-02T11:36:20Z</time>
      </trkpt>
      <trkpt lat="43.45128" lon="1.59503">
        <ele>130.3</ele>
        <time>2017-03-02T11:36:22Z</time>
      </trkpt>
      <trkpt lat="43.45123" lon="1.59514">
        <ele>129.8</ele>
        <time>2017-03-02T11:36:24Z</time>
      </trkpt>
      <trkpt lat="43.45117" lon="1.59528">
        <ele>129.7</ele>
        <time>2017-03-02T11:36:26Z</time>
      </trkpt>
      <trkpt lat="43.45113" lon="1.5954">
        <ele>129.5</ele>
        <time>2017-03-02T11:36:28Z</time>
      </trkpt>
      <trkpt lat="43.45111" lon="1.59552">
        <ele>129.3</ele>
        <time>2017-03-02T11:36:30Z</time>
      </trkpt>
      <trkpt lat="43.45107" lon="1.59565">
        <ele>128.9</ele>
        <time>2017-03-02T11:36:32Z</time>
      </trkpt>
      <trkpt lat="43.45104" lon="1.59578">
        <ele>128.7</ele>
        <time>2017-03-02T11:36:34Z</time>
      </trkpt>
      <trkpt lat="43.451" lon="1.59589">
        <ele>128.4</ele>
        <time>2017-03-02T11:36:36Z</time>
      </trkpt>
      <trkpt lat="43.45096" lon="1.59602">
        <ele>128.2</ele>
        <time>2017-03-02T11:36:38Z</time>
      </trkpt>
      <trkpt lat="43.45091" lon="1.59616">
        <ele>127.9</ele>
        <time>2017-03-02T11:36:40Z</time>
      </trkpt>
      <trkpt lat="43.45087" lon="1.59632">
        <ele>127.6</ele>
        <time>2017-03-02T11:36:42Z</time>
      </trkpt>
      <trkpt lat="43.45083" lon="1.59641">
        <ele>127.5</ele>
        <time>2017-03-02T11:36:43Z</time>
      </trkpt>
      <trkpt lat="43.4508" lon="1.5965">
        <ele>127.1</ele>
        <time>2017-03-02T11:36:44Z</time>
      </trkpt>
      <trkpt lat="43.45074" lon="1.59666">
        <ele>126.8</ele>
        <time>2017-03-02T11:36:46Z</time>
      </trkpt>
      <trkpt lat="43.45067" lon="1.59679">
        <ele>126.6</ele>
        <time>2017-03-02T11:36:48Z</time>
      </trkpt>
      <trkpt lat="43.45061" lon="1.59691">
        <ele>126.3</ele>
        <time>2017-03-02T11:36:50Z</time>
      </trkpt>
      <trkpt lat="43.45055" lon="1.59703">
        <ele>126.1</ele>
        <time>2017-03-02T11:36:52Z</time>
      </trkpt>
      <trkpt lat="43.45049" lon="1.59714">
        <ele>125.7</ele>
        <time>2017-03-02T11:36:54Z</time>
      </trkpt>
      <trkpt lat="43.4504" lon="1.59728">
        <ele>125.4</ele>
        <time>2017-03-02T11:36:56Z</time>
      </trkpt>
      <trkpt lat="43.45031" lon="1.59739">
        <ele>125.2</ele>
        <time>2017-03-02T11:36:58Z</time>
      </trkpt>
      <trkpt lat="43.45024" lon="1.59751">
        <ele>124.7</ele>
        <time>2017-03-02T11:37:00Z</time>
      </trkpt>
      <trkpt lat="43.45017" lon="1.59761">
        <ele>124.2</ele>
        <time>2017-03-02T11:37:02Z</time>
      </trkpt>
      <trkpt lat="43.45008" lon="1.59775">
        <ele>124</ele>
        <time>2017-03-02T11:37:04Z</time>
      </trkpt>
      <trkpt lat="43.45001" lon="1.59786">
        <ele>123.9</ele>
        <time>2017-03-02T11:37:06Z</time>
      </trkpt>
      <trkpt lat="43.44992" lon="1.59798">
        <ele>123.6</ele>
        <time>2017-03-02T11:37:08Z</time>
      </trkpt>
      <trkpt lat="43.44983" lon="1.5981">
        <ele>122.9</ele>
        <time>2017-03-02T11:37:10Z</time>
      </trkpt>
      <trkpt lat="43.44973" lon="1.5982">
        <ele>122.8</ele>
        <time>2017-03-02T11:37:12Z</time>
      </trkpt>
      <trkpt lat="43.44962" lon="1.5983">
        <ele>122.8</ele>
        <time>2017-03-02T11:37:14Z</time>
      </trkpt>
      <trkpt lat="43.44956" lon="1.59837">
        <ele>122.8</ele>
        <time>2017-03-02T11:37:15Z</time>
      </trkpt>
      <trkpt lat="43.44946" lon="1.59849">
        <ele>122.9</ele>
        <time>2017-03-02T11:37:17Z</time>
      </trkpt>
      <trkpt lat="43.44938" lon="1.59859">
        <ele>123</ele>
        <time>2017-03-02T11:37:19Z</time>
      </trkpt>
      <trkpt lat="43.44929" lon="1.59864">
        <ele>122.8</ele>
        <time>2017-03-02T11:37:21Z</time>
      </trkpt>
      <trkpt lat="43.4492" lon="1.59872">
        <ele>122.5</ele>
        <time>2017-03-02T11:37:23Z</time>
      </trkpt>
      <trkpt lat="43.4491" lon="1.59876">
        <ele>122.3</ele>
        <time>2017-03-02T11:37:25Z</time>
      </trkpt>
      <trkpt lat="43.449" lon="1.59881">
        <ele>122.1</ele>
        <time>2017-03-02T11:37:27Z</time>
      </trkpt>
      <trkpt lat="43.44887" lon="1.59884">
        <ele>121.6</ele>
        <time>2017-03-02T11:37:29Z</time>
      </trkpt>
      <trkpt lat="43.4488" lon="1.59887">
        <ele>121.8</ele>
        <time>2017-03-02T11:37:30Z</time>
      </trkpt>
      <trkpt lat="43.44867" lon="1.59891">
        <ele>121.8</ele>
        <time>2017-03-02T11:37:32Z</time>
      </trkpt>
      <trkpt lat="43.44856" lon="1.59894">
        <ele>121.6</ele>
        <time>2017-03-02T11:37:34Z</time>
      </trkpt>
      <trkpt lat="43.44844" lon="1.59898">
        <ele>121.5</ele>
        <time>2017-03-02T11:37:36Z</time>
      </trkpt>
      <trkpt lat="43.44833" lon="1.59902">
        <ele>121.2</ele>
        <time>2017-03-02T11:37:38Z</time>
      </trkpt>
      <trkpt lat="43.44822" lon="1.59905">
        <ele>121.3</ele>
        <time>2017-03-02T11:37:40Z</time>
      </trkpt>
      <trkpt lat="43.44812" lon="1.59907">
        <ele>120.7</ele>
        <time>2017-03-02T11:37:42Z</time>
      </trkpt>
      <trkpt lat="43.44802" lon="1.59909">
        <ele>120.4</ele>
        <time>2017-03-02T11:37:44Z</time>
      </trkpt>
      <trkpt lat="43.44791" lon="1.59914">
        <ele>120.1</ele>
        <time>2017-03-02T11:37:46Z</time>
      </trkpt>
      <trkpt lat="43.4478" lon="1.59918">
        <ele>119.8</ele>
        <time>2017-03-02T11:37:48Z</time>
      </trkpt>
      <trkpt lat="43.44768" lon="1.59921">
        <ele>119.2</ele>
        <time>2017-03-02T11:37:50Z</time>
      </trkpt>
      <trkpt lat="43.44755" lon="1.59923">
        <ele>118.6</ele>
        <time>2017-03-02T11:37:52Z</time>
      </trkpt>
      <trkpt lat="43.44741" lon="1.59925">
        <ele>117.7</ele>
        <time>2017-03-02T11:37:54Z</time>
      </trkpt>
      <trkpt lat="43.44734" lon="1.59928">
        <ele>117.5</ele>
        <time>2017-03-02T11:37:55Z</time>
      </trkpt>
      <trkpt lat="43.44722" lon="1.59928">
        <ele>117.1</ele>
        <time>2017-03-02T11:37:57Z</time>
      </trkpt>
      <trkpt lat="43.44713" lon="1.5993">
        <ele>116.6</ele>
        <time>2017-03-02T11:37:59Z</time>
      </trkpt>
      <trkpt lat="43.44705" lon="1.59929">
        <ele>116.8</ele>
        <time>2017-03-02T11:38:01Z</time>
      </trkpt>
      <trkpt lat="43.44696" lon="1.5993">
        <ele>116.4</ele>
        <time>2017-03-02T11:38:04Z</time>
      </trkpt>
      <trkpt lat="43.44686" lon="1.59931">
        <ele>115.8</ele>
        <time>2017-03-02T11:38:07Z</time>
      </trkpt>
      <trkpt lat="43.44677" lon="1.59932">
        <ele>115.5</ele>
        <time>2017-03-02T11:38:11Z</time>
      </trkpt>
      <trkpt lat="43.44668" lon="1.59935">
        <ele>116.8</ele>
        <time>2017-03-02T11:38:16Z</time>
      </trkpt>
      <trkpt lat="43.44661" lon="1.59938">
        <ele>116.8</ele>
        <time>2017-03-02T11:38:19Z</time>
      </trkpt>
      <trkpt lat="43.44651" lon="1.59942">
        <ele>117</ele>
        <time>2017-03-02T11:38:22Z</time>
      </trkpt>
      <trkpt lat="43.44643" lon="1.59947">
        <ele>117</ele>
        <time>2017-03-02T11:38:25Z</time>
      </trkpt>
      <trkpt lat="43.44636" lon="1.59946">
        <ele>116.9</ele>
        <time>2017-03-02T11:38:28Z</time>
      </trkpt>
      <trkpt lat="43.44628" lon="1.59949">
        <ele>117.2</ele>
        <time>2017-03-02T11:38:31Z</time>
      </trkpt>
      <trkpt lat="43.44619" lon="1.59952">
        <ele>117.7</ele>
        <time>2017-03-02T11:38:33Z</time>
      </trkpt>
      <trkpt lat="43.44611" lon="1.59955">
        <ele>117.5</ele>
        <time>2017-03-02T11:38:35Z</time>
      </trkpt>
      <trkpt lat="43.44602" lon="1.5996">
        <ele>117.4</ele>
        <time>2017-03-02T11:38:37Z</time>
      </trkpt>
      <trkpt lat="43.44595" lon="1.59967">
        <ele>117.1</ele>
        <time>2017-03-02T11:38:39Z</time>
      </trkpt>
      <trkpt lat="43.44587" lon="1.59974">
        <ele>116.8</ele>
        <time>2017-03-02T11:38:41Z</time>
      </trkpt>
      <trkpt lat="43.44581" lon="1.59982">
        <ele>116.3</ele>
        <time>2017-03-02T11:38:43Z</time>
      </trkpt>
      <trkpt lat="43.44572" lon="1.59991">
        <ele>115.6</ele>
        <time>2017-03-02T11:38:45Z</time>
      </trkpt>
      <trkpt lat="43.44564" lon="1.6">
        <ele>115.2</ele>
        <time>2017-03-02T11:38:47Z</time>
      </trkpt>
      <trkpt lat="43.44557" lon="1.6001">
        <ele>114.5</ele>
        <time>2017-03-02T11:38:49Z</time>
      </trkpt>
      <trkpt lat="43.4455" lon="1.60018">
        <ele>114.1</ele>
        <time>2017-03-02T11:38:51Z</time>
      </trkpt>
      <trkpt lat="43.44544" lon="1.60027">
        <ele>113.8</ele>
        <time>2017-03-02T11:38:53Z</time>
      </trkpt>
      <trkpt lat="43.44538" lon="1.60039">
        <ele>113.7</ele>
        <time>2017-03-02T11:38:55Z</time>
      </trkpt>
      <trkpt lat="43.44534" lon="1.60052">
        <ele>113.4</ele>
        <time>2017-03-02T11:38:57Z</time>
      </trkpt>
      <trkpt lat="43.44529" lon="1.60063">
        <ele>115.7</ele>
        <time>2017-03-02T11:38:59Z</time>
      </trkpt>
      <trkpt lat="43.44526" lon="1.60072">
        <ele>115.7</ele>
        <time>2017-03-02T11:39:01Z</time>
      </trkpt>
      <trkpt lat="43.44521" lon="1.60085">
        <ele>115.5</ele>
        <time>2017-03-02T11:39:04Z</time>
      </trkpt>
      <trkpt lat="43.44518" lon="1.60098">
        <ele>115.2</ele>
        <time>2017-03-02T11:39:06Z</time>
      </trkpt>
      <trkpt lat="43.44516" lon="1.60111">
        <ele>115.8</ele>
        <time>2017-03-02T11:39:08Z</time>
      </trkpt>
      <trkpt lat="43.44515" lon="1.60127">
        <ele>116</ele>
        <time>2017-03-02T11:39:10Z</time>
      </trkpt>
      <trkpt lat="43.44515" lon="1.60143">
        <ele>116.1</ele>
        <time>2017-03-02T11:39:12Z</time>
      </trkpt>
      <trkpt lat="43.44513" lon="1.60158">
        <ele>116.8</ele>
        <time>2017-03-02T11:39:14Z</time>
      </trkpt>
      <trkpt lat="43.44514" lon="1.60172">
        <ele>117.4</ele>
        <time>2017-03-02T11:39:16Z</time>
      </trkpt>
      <trkpt lat="43.44515" lon="1.60185">
        <ele>117.5</ele>
        <time>2017-03-02T11:39:18Z</time>
      </trkpt>
      <trkpt lat="43.44517" lon="1.60197">
        <ele>118</ele>
        <time>2017-03-02T11:39:20Z</time>
      </trkpt>
      <trkpt lat="43.44522" lon="1.60208">
        <ele>118.9</ele>
        <time>2017-03-02T11:39:22Z</time>
      </trkpt>
      <trkpt lat="43.44525" lon="1.6022">
        <ele>119.8</ele>
        <time>2017-03-02T11:39:24Z</time>
      </trkpt>
      <trkpt lat="43.44528" lon="1.60233">
        <ele>120.4</ele>
        <time>2017-03-02T11:39:26Z</time>
      </trkpt>
      <trkpt lat="43.4453" lon="1.60247">
        <ele>121.1</ele>
        <time>2017-03-02T11:39:28Z</time>
      </trkpt>
      <trkpt lat="43.44533" lon="1.6026">
        <ele>121.8</ele>
        <time>2017-03-02T11:39:30Z</time>
      </trkpt>
      <trkpt lat="43.44535" lon="1.60274">
        <ele>122.6</ele>
        <time>2017-03-02T11:39:32Z</time>
      </trkpt>
      <trkpt lat="43.44538" lon="1.60288">
        <ele>123.6</ele>
        <time>2017-03-02T11:39:34Z</time>
      </trkpt>
      <trkpt lat="43.44542" lon="1.60302">
        <ele>124.4</ele>
        <time>2017-03-02T11:39:36Z</time>
      </trkpt>
      <trkpt lat="43.44546" lon="1.60316">
        <ele>124.9</ele>
        <time>2017-03-02T11:39:38Z</time>
      </trkpt>
      <trkpt lat="43.44548" lon="1.60331">
        <ele>125.5</ele>
        <time>2017-03-02T11:39:40Z</time>
      </trkpt>
      <trkpt lat="43.44551" lon="1.60346">
        <ele>126.3</ele>
        <time>2017-03-02T11:39:42Z</time>
      </trkpt>
      <trkpt lat="43.44554" lon="1.60362">
        <ele>127.2</ele>
        <time>2017-03-02T11:39:44Z</time>
      </trkpt>
      <trkpt lat="43.44556" lon="1.60376">
        <ele>127.7</ele>
        <time>2017-03-02T11:39:46Z</time>
      </trkpt>
      <trkpt lat="43.44557" lon="1.60391">
        <ele>128.7</ele>
        <time>2017-03-02T11:39:48Z</time>
      </trkpt>
      <trkpt lat="43.44559" lon="1.60406">
        <ele>129.4</ele>
        <time>2017-03-02T11:39:50Z</time>
      </trkpt>
      <trkpt lat="43.4456" lon="1.60421">
        <ele>130.2</ele>
        <time>2017-03-02T11:39:52Z</time>
      </trkpt>
      <trkpt lat="43.44559" lon="1.60436">
        <ele>131</ele>
        <time>2017-03-02T11:39:54Z</time>
      </trkpt>
      <trkpt lat="43.44557" lon="1.6045">
        <ele>131.8</ele>
        <time>2017-03-02T11:39:56Z</time>
      </trkpt>
      <trkpt lat="43.44555" lon="1.60465">
        <ele>132.5</ele>
        <time>2017-03-02T11:39:58Z</time>
      </trkpt>
      <trkpt lat="43.44551" lon="1.6048">
        <ele>133.4</ele>
        <time>2017-03-02T11:40:00Z</time>
      </trkpt>
      <trkpt lat="43.44545" lon="1.60496">
        <ele>133.8</ele>
        <time>2017-03-02T11:40:02Z</time>
      </trkpt>
      <trkpt lat="43.44539" lon="1.60509">
        <ele>134.2</ele>
        <time>2017-03-02T11:40:04Z</time>
      </trkpt>
      <trkpt lat="43.44533" lon="1.60521">
        <ele>134.4</ele>
        <time>2017-03-02T11:40:06Z</time>
      </trkpt>
      <trkpt lat="43.44527" lon="1.60533">
        <ele>134.5</ele>
        <time>2017-03-02T11:40:08Z</time>
      </trkpt>
      <trkpt lat="43.4452" lon="1.60543">
        <ele>134.8</ele>
        <time>2017-03-02T11:40:10Z</time>
      </trkpt>
      <trkpt lat="43.44513" lon="1.60553">
        <ele>135.2</ele>
        <time>2017-03-02T11:40:12Z</time>
      </trkpt>
      <trkpt lat="43.44507" lon="1.60562">
        <ele>135.4</ele>
        <time>2017-03-02T11:40:14Z</time>
      </trkpt>
      <trkpt lat="43.44501" lon="1.60571">
        <ele>135.2</ele>
        <time>2017-03-02T11:40:16Z</time>
      </trkpt>
      <trkpt lat="43.44495" lon="1.60579">
        <ele>135.1</ele>
        <time>2017-03-02T11:40:18Z</time>
      </trkpt>
      <trkpt lat="43.44488" lon="1.60588">
        <ele>135.1</ele>
        <time>2017-03-02T11:40:20Z</time>
      </trkpt>
      <trkpt lat="43.4448" lon="1.60597">
        <ele>135.1</ele>
        <time>2017-03-02T11:40:22Z</time>
      </trkpt>
      <trkpt lat="43.44473" lon="1.60608">
        <ele>135.1</ele>
        <time>2017-03-02T11:40:24Z</time>
      </trkpt>
      <trkpt lat="43.44465" lon="1.60617">
        <ele>135</ele>
        <time>2017-03-02T11:40:26Z</time>
      </trkpt>
      <trkpt lat="43.44458" lon="1.60627">
        <ele>134.9</ele>
        <time>2017-03-02T11:40:28Z</time>
      </trkpt>
      <trkpt lat="43.44453" lon="1.60634">
        <ele>134.7</ele>
        <time>2017-03-02T11:40:30Z</time>
      </trkpt>
      <trkpt lat="43.44445" lon="1.60644">
        <ele>134.1</ele>
        <time>2017-03-02T11:40:33Z</time>
      </trkpt>
      <trkpt lat="43.44439" lon="1.60652">
        <ele>133.7</ele>
        <time>2017-03-02T11:40:35Z</time>
      </trkpt>
      <trkpt lat="43.4443" lon="1.60661">
        <ele>133.3</ele>
        <time>2017-03-02T11:40:37Z</time>
      </trkpt>
      <trkpt lat="43.44421" lon="1.60671">
        <ele>133.1</ele>
        <time>2017-03-02T11:40:39Z</time>
      </trkpt>
      <trkpt lat="43.44411" lon="1.6068">
        <ele>132.8</ele>
        <time>2017-03-02T11:40:41Z</time>
      </trkpt>
      <trkpt lat="43.444" lon="1.60688">
        <ele>132.5</ele>
        <time>2017-03-02T11:40:43Z</time>
      </trkpt>
      <trkpt lat="43.44389" lon="1.60698">
        <ele>132.5</ele>
        <time>2017-03-02T11:40:45Z</time>
      </trkpt>
      <trkpt lat="43.44383" lon="1.60706">
        <ele>132.7</ele>
        <time>2017-03-02T11:40:46Z</time>
      </trkpt>
      <trkpt lat="43.44371" lon="1.60714">
        <ele>132.5</ele>
        <time>2017-03-02T11:40:48Z</time>
      </trkpt>
      <trkpt lat="43.44364" lon="1.60722">
        <ele>132.5</ele>
        <time>2017-03-02T11:40:50Z</time>
      </trkpt>
      <trkpt lat="43.44353" lon="1.60733">
        <ele>132.3</ele>
        <time>2017-03-02T11:40:52Z</time>
      </trkpt>
      <trkpt lat="43.44347" lon="1.60739">
        <ele>132.3</ele>
        <time>2017-03-02T11:40:53Z</time>
      </trkpt>
      <trkpt lat="43.44337" lon="1.60747">
        <ele>131.9</ele>
        <time>2017-03-02T11:40:55Z</time>
      </trkpt>
      <trkpt lat="43.44328" lon="1.60753">
        <ele>131.6</ele>
        <time>2017-03-02T11:40:57Z</time>
      </trkpt>
      <trkpt lat="43.44318" lon="1.60762">
        <ele>131.1</ele>
        <time>2017-03-02T11:40:59Z</time>
      </trkpt>
      <trkpt lat="43.44307" lon="1.60771">
        <ele>131</ele>
        <time>2017-03-02T11:41:01Z</time>
      </trkpt>
      <trkpt lat="43.44296" lon="1.6078">
        <ele>130.8</ele>
        <time>2017-03-02T11:41:03Z</time>
      </trkpt>
      <trkpt lat="43.4429" lon="1.60786">
        <ele>130.7</ele>
        <time>2017-03-02T11:41:04Z</time>
      </trkpt>
      <trkpt lat="43.44284" lon="1.60791">
        <ele>130.6</ele>
        <time>2017-03-02T11:41:05Z</time>
      </trkpt>
      <trkpt lat="43.44272" lon="1.608">
        <ele>130.2</ele>
        <time>2017-03-02T11:41:07Z</time>
      </trkpt>
      <trkpt lat="43.44264" lon="1.60808">
        <ele>129.8</ele>
        <time>2017-03-02T11:41:09Z</time>
      </trkpt>
      <trkpt lat="43.44258" lon="1.60815">
        <ele>129.8</ele>
        <time>2017-03-02T11:41:11Z</time>
      </trkpt>
      <trkpt lat="43.44251" lon="1.60823">
        <ele>129.8</ele>
        <time>2017-03-02T11:41:13Z</time>
      </trkpt>
      <trkpt lat="43.44244" lon="1.60832">
        <ele>129.7</ele>
        <time>2017-03-02T11:41:15Z</time>
      </trkpt>
      <trkpt lat="43.44236" lon="1.60841">
        <ele>129.6</ele>
        <time>2017-03-02T11:41:17Z</time>
      </trkpt>
      <trkpt lat="43.44229" lon="1.6085">
        <ele>129.4</ele>
        <time>2017-03-02T11:41:19Z</time>
      </trkpt>
      <trkpt lat="43.4422" lon="1.60861">
        <ele>128.8</ele>
        <time>2017-03-02T11:41:21Z</time>
      </trkpt>
      <trkpt lat="43.44215" lon="1.6087">
        <ele>128.5</ele>
        <time>2017-03-02T11:41:23Z</time>
      </trkpt>
      <trkpt lat="43.44209" lon="1.6088">
        <ele>128.1</ele>
        <time>2017-03-02T11:41:25Z</time>
      </trkpt>
      <trkpt lat="43.44202" lon="1.60892">
        <ele>127.4</ele>
        <time>2017-03-02T11:41:27Z</time>
      </trkpt>
      <trkpt lat="43.44194" lon="1.60904">
        <ele>127.2</ele>
        <time>2017-03-02T11:41:29Z</time>
      </trkpt>
      <trkpt lat="43.44188" lon="1.60915">
        <ele>126.9</ele>
        <time>2017-03-02T11:41:31Z</time>
      </trkpt>
      <trkpt lat="43.44181" lon="1.60929">
        <ele>126.8</ele>
        <time>2017-03-02T11:41:33Z</time>
      </trkpt>
      <trkpt lat="43.44175" lon="1.60942">
        <ele>126.8</ele>
        <time>2017-03-02T11:41:35Z</time>
      </trkpt>
      <trkpt lat="43.44169" lon="1.60956">
        <ele>126.4</ele>
        <time>2017-03-02T11:41:37Z</time>
      </trkpt>
      <trkpt lat="43.44163" lon="1.60971">
        <ele>126.2</ele>
        <time>2017-03-02T11:41:39Z</time>
      </trkpt>
      <trkpt lat="43.44156" lon="1.60986">
        <ele>126.2</ele>
        <time>2017-03-02T11:41:41Z</time>
      </trkpt>
      <trkpt lat="43.44151" lon="1.61">
        <ele>126.1</ele>
        <time>2017-03-02T11:41:43Z</time>
      </trkpt>
      <trkpt lat="43.44146" lon="1.61014">
        <ele>125.8</ele>
        <time>2017-03-02T11:41:45Z</time>
      </trkpt>
      <trkpt lat="43.4414" lon="1.6103">
        <ele>125.7</ele>
        <time>2017-03-02T11:41:47Z</time>
      </trkpt>
      <trkpt lat="43.44136" lon="1.61042">
        <ele>125.6</ele>
        <time>2017-03-02T11:41:49Z</time>
      </trkpt>
      <trkpt lat="43.44132" lon="1.61055">
        <ele>125.6</ele>
        <time>2017-03-02T11:41:51Z</time>
      </trkpt>
      <trkpt lat="43.44125" lon="1.6107">
        <ele>125.4</ele>
        <time>2017-03-02T11:41:53Z</time>
      </trkpt>
      <trkpt lat="43.44121" lon="1.61081">
        <ele>125.4</ele>
        <time>2017-03-02T11:41:55Z</time>
      </trkpt>
      <trkpt lat="43.44118" lon="1.61094">
        <ele>125.3</ele>
        <time>2017-03-02T11:41:58Z</time>
      </trkpt>
      <trkpt lat="43.44115" lon="1.61104">
        <ele>125.4</ele>
        <time>2017-03-02T11:42:00Z</time>
      </trkpt>
      <trkpt lat="43.4411" lon="1.61116">
        <ele>125.5</ele>
        <time>2017-03-02T11:42:02Z</time>
      </trkpt>
      <trkpt lat="43.44104" lon="1.61126">
        <ele>125.6</ele>
        <time>2017-03-02T11:42:04Z</time>
      </trkpt>
      <trkpt lat="43.44097" lon="1.61138">
        <ele>125.4</ele>
        <time>2017-03-02T11:42:06Z</time>
      </trkpt>
      <trkpt lat="43.4409" lon="1.61148">
        <ele>125.6</ele>
        <time>2017-03-02T11:42:08Z</time>
      </trkpt>
      <trkpt lat="43.44084" lon="1.61157">
        <ele>125.8</ele>
        <time>2017-03-02T11:42:10Z</time>
      </trkpt>
      <trkpt lat="43.44075" lon="1.61166">
        <ele>126.3</ele>
        <time>2017-03-02T11:42:12Z</time>
      </trkpt>
      <trkpt lat="43.44067" lon="1.61174">
        <ele>126.5</ele>
        <time>2017-03-02T11:42:14Z</time>
      </trkpt>
      <trkpt lat="43.44057" lon="1.61185">
        <ele>126.8</ele>
        <time>2017-03-02T11:42:16Z</time>
      </trkpt>
      <trkpt lat="43.44048" lon="1.61194">
        <ele>127.1</ele>
        <time>2017-03-02T11:42:18Z</time>
      </trkpt>
      <trkpt lat="43.44039" lon="1.61203">
        <ele>127.2</ele>
        <time>2017-03-02T11:42:20Z</time>
      </trkpt>
      <trkpt lat="43.44033" lon="1.6121">
        <ele>127</ele>
        <time>2017-03-02T11:42:21Z</time>
      </trkpt>
      <trkpt lat="43.44024" lon="1.61222">
        <ele>128</ele>
        <time>2017-03-02T11:42:22Z</time>
      </trkpt>
      <trkpt lat="43.44017" lon="1.61229">
        <ele>128.4</ele>
        <time>2017-03-02T11:42:23Z</time>
      </trkpt>
      <trkpt lat="43.44008" lon="1.61238">
        <ele>128.4</ele>
        <time>2017-03-02T11:42:25Z</time>
      </trkpt>
      <trkpt lat="43.43996" lon="1.61244">
        <ele>128.3</ele>
        <time>2017-03-02T11:42:27Z</time>
      </trkpt>
      <trkpt lat="43.43984" lon="1.61247">
        <ele>128.6</ele>
        <time>2017-03-02T11:42:29Z</time>
      </trkpt>
      <trkpt lat="43.43975" lon="1.61249">
        <ele>128.6</ele>
        <time>2017-03-02T11:42:31Z</time>
      </trkpt>
      <trkpt lat="43.43967" lon="1.61252">
        <ele>128.8</ele>
        <time>2017-03-02T11:42:33Z</time>
      </trkpt>
      <trkpt lat="43.43958" lon="1.61255">
        <ele>129</ele>
        <time>2017-03-02T11:42:36Z</time>
      </trkpt>
      <trkpt lat="43.4395" lon="1.61256">
        <ele>130.2</ele>
        <time>2017-03-02T11:42:42Z</time>
      </trkpt>
      <trkpt lat="43.43943" lon="1.6126">
        <ele>132.6</ele>
        <time>2017-03-02T11:42:48Z</time>
      </trkpt>
      <trkpt lat="43.43938" lon="1.61261">
        <ele>134</ele>
        <time>2017-03-02T11:42:55Z</time>
      </trkpt>
      <trkpt lat="43.43939" lon="1.61255">
        <ele>137.6</ele>
        <time>2017-03-02T11:43:27Z</time>
      </trkpt>
      <trkpt lat="43.43939" lon="1.61256">
        <ele>137.6</ele>
        <time>2017-03-02T11:43:34Z</time>
      </trkpt>
      <trkpt lat="43.43934" lon="1.61265">
        <ele>138.9</ele>
        <time>2017-03-02T11:43:39Z</time>
      </trkpt>
      <trkpt lat="43.43926" lon="1.61271">
        <ele>139.9</ele>
        <time>2017-03-02T11:43:43Z</time>
      </trkpt>
      <trkpt lat="43.4392" lon="1.61276">
        <ele>140.4</ele>
        <time>2017-03-02T11:43:45Z</time>
      </trkpt>
      <trkpt lat="43.43913" lon="1.61281">
        <ele>140.7</ele>
        <time>2017-03-02T11:43:47Z</time>
      </trkpt>
      <trkpt lat="43.43907" lon="1.61287">
        <ele>140.6</ele>
        <time>2017-03-02T11:43:49Z</time>
      </trkpt>
      <trkpt lat="43.43901" lon="1.61292">
        <ele>140.9</ele>
        <time>2017-03-02T11:43:51Z</time>
      </trkpt>
      <trkpt lat="43.43894" lon="1.61299">
        <ele>141.3</ele>
        <time>2017-03-02T11:43:54Z</time>
      </trkpt>
      <trkpt lat="43.43887" lon="1.61304">
        <ele>142</ele>
        <time>2017-03-02T11:43:57Z</time>
      </trkpt>
      <trkpt lat="43.43891" lon="1.61303">
        <ele>143.5</ele>
        <time>2017-03-02T11:44:04Z</time>
      </trkpt>
      <trkpt lat="43.43882" lon="1.61307">
        <ele>143.1</ele>
        <time>2017-03-02T11:44:16Z</time>
      </trkpt>
      <trkpt lat="43.43876" lon="1.61314">
        <ele>143.5</ele>
        <time>2017-03-02T11:44:18Z</time>
      </trkpt>
      <trkpt lat="43.43869" lon="1.61321">
        <ele>144</ele>
        <time>2017-03-02T11:44:20Z</time>
      </trkpt>
      <trkpt lat="43.43861" lon="1.61327">
        <ele>144.2</ele>
        <time>2017-03-02T11:44:22Z</time>
      </trkpt>
      <trkpt lat="43.43854" lon="1.61335">
        <ele>144.2</ele>
        <time>2017-03-02T11:44:24Z</time>
      </trkpt>
      <trkpt lat="43.43848" lon="1.61341">
        <ele>144.1</ele>
        <time>2017-03-02T11:44:26Z</time>
      </trkpt>
      <trkpt lat="43.4384" lon="1.61351">
        <ele>143.5</ele>
        <time>2017-03-02T11:44:29Z</time>
      </trkpt>
      <trkpt lat="43.43832" lon="1.61361">
        <ele>142.7</ele>
        <time>2017-03-02T11:44:32Z</time>
      </trkpt>
      <trkpt lat="43.43827" lon="1.61368">
        <ele>142.1</ele>
        <time>2017-03-02T11:44:34Z</time>
      </trkpt>
      <trkpt lat="43.4382" lon="1.61375">
        <ele>141.6</ele>
        <time>2017-03-02T11:44:36Z</time>
      </trkpt>
      <trkpt lat="43.43812" lon="1.61385">
        <ele>140.7</ele>
        <time>2017-03-02T11:44:38Z</time>
      </trkpt>
      <trkpt lat="43.43803" lon="1.61395">
        <ele>140.2</ele>
        <time>2017-03-02T11:44:40Z</time>
      </trkpt>
      <trkpt lat="43.43796" lon="1.61402">
        <ele>139.6</ele>
        <time>2017-03-02T11:44:42Z</time>
      </trkpt>
      <trkpt lat="43.4379" lon="1.61409">
        <ele>139.1</ele>
        <time>2017-03-02T11:44:44Z</time>
      </trkpt>
      <trkpt lat="43.43784" lon="1.61417">
        <ele>138.5</ele>
        <time>2017-03-02T11:44:46Z</time>
      </trkpt>
      <trkpt lat="43.43778" lon="1.61426">
        <ele>137.9</ele>
        <time>2017-03-02T11:44:49Z</time>
      </trkpt>
      <trkpt lat="43.43774" lon="1.61435">
        <ele>138</ele>
        <time>2017-03-02T11:44:53Z</time>
      </trkpt>
      <trkpt lat="43.43769" lon="1.61446">
        <ele>140.1</ele>
        <time>2017-03-02T11:45:01Z</time>
      </trkpt>
      <trkpt lat="43.43763" lon="1.61454">
        <ele>142.4</ele>
        <time>2017-03-02T11:45:14Z</time>
      </trkpt>
      <trkpt lat="43.43756" lon="1.61462">
        <ele>142.5</ele>
        <time>2017-03-02T11:45:19Z</time>
      </trkpt>
      <trkpt lat="43.43749" lon="1.61471">
        <ele>142.5</ele>
        <time>2017-03-02T11:45:22Z</time>
      </trkpt>
      <trkpt lat="43.43743" lon="1.61477">
        <ele>141.9</ele>
        <time>2017-03-02T11:45:24Z</time>
      </trkpt>
      <trkpt lat="43.43737" lon="1.61484">
        <ele>141.5</ele>
        <time>2017-03-02T11:45:26Z</time>
      </trkpt>
      <trkpt lat="43.4373" lon="1.61492">
        <ele>140.9</ele>
        <time>2017-03-02T11:45:28Z</time>
      </trkpt>
      <trkpt lat="43.43721" lon="1.61502">
        <ele>140.4</ele>
        <time>2017-03-02T11:45:30Z</time>
      </trkpt>
      <trkpt lat="43.43711" lon="1.61513">
        <ele>139.7</ele>
        <time>2017-03-02T11:45:32Z</time>
      </trkpt>
      <trkpt lat="43.43702" lon="1.61524">
        <ele>139.1</ele>
        <time>2017-03-02T11:45:34Z</time>
      </trkpt>
      <trkpt lat="43.43694" lon="1.61533">
        <ele>138.9</ele>
        <time>2017-03-02T11:45:36Z</time>
      </trkpt>
      <trkpt lat="43.43687" lon="1.61538">
        <ele>138.3</ele>
        <time>2017-03-02T11:45:38Z</time>
      </trkpt>
      <trkpt lat="43.43681" lon="1.61545">
        <ele>137.8</ele>
        <time>2017-03-02T11:45:40Z</time>
      </trkpt>
      <trkpt lat="43.43671" lon="1.61553">
        <ele>137.2</ele>
        <time>2017-03-02T11:45:42Z</time>
      </trkpt>
      <trkpt lat="43.43663" lon="1.61561">
        <ele>136.5</ele>
        <time>2017-03-02T11:45:44Z</time>
      </trkpt>
      <trkpt lat="43.43656" lon="1.61569">
        <ele>136.2</ele>
        <time>2017-03-02T11:45:46Z</time>
      </trkpt>
      <trkpt lat="43.4365" lon="1.61576">
        <ele>135.7</ele>
        <time>2017-03-02T11:45:48Z</time>
      </trkpt>
      <trkpt lat="43.43645" lon="1.61583">
        <ele>135.1</ele>
        <time>2017-03-02T11:45:50Z</time>
      </trkpt>
      <trkpt lat="43.43635" lon="1.61592">
        <ele>133.8</ele>
        <time>2017-03-02T11:45:52Z</time>
      </trkpt>
      <trkpt lat="43.43625" lon="1.61603">
        <ele>132.5</ele>
        <time>2017-03-02T11:45:54Z</time>
      </trkpt>
      <trkpt lat="43.43618" lon="1.61611">
        <ele>132.2</ele>
        <time>2017-03-02T11:45:55Z</time>
      </trkpt>
      <trkpt lat="43.43612" lon="1.61618">
        <ele>131.9</ele>
        <time>2017-03-02T11:45:56Z</time>
      </trkpt>
      <trkpt lat="43.43602" lon="1.61629">
        <ele>131</ele>
        <time>2017-03-02T11:45:58Z</time>
      </trkpt>
      <trkpt lat="43.43592" lon="1.6164">
        <ele>130.3</ele>
        <time>2017-03-02T11:46:00Z</time>
      </trkpt>
      <trkpt lat="43.43583" lon="1.61649">
        <ele>129.4</ele>
        <time>2017-03-02T11:46:02Z</time>
      </trkpt>
      <trkpt lat="43.43573" lon="1.61659">
        <ele>128.4</ele>
        <time>2017-03-02T11:46:04Z</time>
      </trkpt>
      <trkpt lat="43.43564" lon="1.6167">
        <ele>127.7</ele>
        <time>2017-03-02T11:46:06Z</time>
      </trkpt>
      <trkpt lat="43.43557" lon="1.6168">
        <ele>127.1</ele>
        <time>2017-03-02T11:46:08Z</time>
      </trkpt>
      <trkpt lat="43.4355" lon="1.61692">
        <ele>126.5</ele>
        <time>2017-03-02T11:46:10Z</time>
      </trkpt>
      <trkpt lat="43.43541" lon="1.61704">
        <ele>125.6</ele>
        <time>2017-03-02T11:46:12Z</time>
      </trkpt>
      <trkpt lat="43.43533" lon="1.61716">
        <ele>124.8</ele>
        <time>2017-03-02T11:46:14Z</time>
      </trkpt>
      <trkpt lat="43.43524" lon="1.61728">
        <ele>124</ele>
        <time>2017-03-02T11:46:16Z</time>
      </trkpt>
      <trkpt lat="43.43519" lon="1.61735">
        <ele>123.7</ele>
        <time>2017-03-02T11:46:17Z</time>
      </trkpt>
      <trkpt lat="43.4351" lon="1.61747">
        <ele>123.1</ele>
        <time>2017-03-02T11:46:19Z</time>
      </trkpt>
      <trkpt lat="43.43502" lon="1.61757">
        <ele>122.9</ele>
        <time>2017-03-02T11:46:21Z</time>
      </trkpt>
      <trkpt lat="43.43495" lon="1.61769">
        <ele>122.5</ele>
        <time>2017-03-02T11:46:23Z</time>
      </trkpt>
      <trkpt lat="43.43486" lon="1.61781">
        <ele>122.4</ele>
        <time>2017-03-02T11:46:25Z</time>
      </trkpt>
      <trkpt lat="43.43477" lon="1.61794">
        <ele>122.2</ele>
        <time>2017-03-02T11:46:27Z</time>
      </trkpt>
      <trkpt lat="43.4347" lon="1.61806">
        <ele>121.8</ele>
        <time>2017-03-02T11:46:29Z</time>
      </trkpt>
      <trkpt lat="43.43462" lon="1.61816">
        <ele>121.9</ele>
        <time>2017-03-02T11:46:31Z</time>
      </trkpt>
      <trkpt lat="43.43454" lon="1.61828">
        <ele>123.1</ele>
        <time>2017-03-02T11:46:33Z</time>
      </trkpt>
      <trkpt lat="43.43448" lon="1.61838">
        <ele>123.4</ele>
        <time>2017-03-02T11:46:35Z</time>
      </trkpt>
      <trkpt lat="43.43438" lon="1.61851">
        <ele>123.9</ele>
        <time>2017-03-02T11:46:37Z</time>
      </trkpt>
      <trkpt lat="43.43426" lon="1.61867">
        <ele>124.8</ele>
        <time>2017-03-02T11:46:39Z</time>
      </trkpt>
      <trkpt lat="43.43416" lon="1.61879">
        <ele>125.3</ele>
        <time>2017-03-02T11:46:41Z</time>
      </trkpt>
      <trkpt lat="43.43406" lon="1.61889">
        <ele>126</ele>
        <time>2017-03-02T11:46:43Z</time>
      </trkpt>
      <trkpt lat="43.43399" lon="1.61897">
        <ele>126.3</ele>
        <time>2017-03-02T11:46:45Z</time>
      </trkpt>
      <trkpt lat="43.43389" lon="1.61907">
        <ele>126.5</ele>
        <time>2017-03-02T11:46:47Z</time>
      </trkpt>
      <trkpt lat="43.43379" lon="1.61915">
        <ele>126.7</ele>
        <time>2017-03-02T11:46:49Z</time>
      </trkpt>
      <trkpt lat="43.4337" lon="1.61924">
        <ele>127</ele>
        <time>2017-03-02T11:46:51Z</time>
      </trkpt>
      <trkpt lat="43.4336" lon="1.61934">
        <ele>127</ele>
        <time>2017-03-02T11:46:53Z</time>
      </trkpt>
      <trkpt lat="43.43354" lon="1.6194">
        <ele>127.3</ele>
        <time>2017-03-02T11:46:54Z</time>
      </trkpt>
      <trkpt lat="43.43348" lon="1.61946">
        <ele>127.5</ele>
        <time>2017-03-02T11:46:55Z</time>
      </trkpt>
      <trkpt lat="43.43337" lon="1.61957">
        <ele>128</ele>
        <time>2017-03-02T11:46:57Z</time>
      </trkpt>
      <trkpt lat="43.43328" lon="1.61969">
        <ele>128</ele>
        <time>2017-03-02T11:46:59Z</time>
      </trkpt>
      <trkpt lat="43.43322" lon="1.61977">
        <ele>128.3</ele>
        <time>2017-03-02T11:47:00Z</time>
      </trkpt>
      <trkpt lat="43.43312" lon="1.61988">
        <ele>128.4</ele>
        <time>2017-03-02T11:47:02Z</time>
      </trkpt>
      <trkpt lat="43.43303" lon="1.61999">
        <ele>128.8</ele>
        <time>2017-03-02T11:47:04Z</time>
      </trkpt>
      <trkpt lat="43.43293" lon="1.62009">
        <ele>129.2</ele>
        <time>2017-03-02T11:47:06Z</time>
      </trkpt>
      <trkpt lat="43.43284" lon="1.62018">
        <ele>129.6</ele>
        <time>2017-03-02T11:47:08Z</time>
      </trkpt>
      <trkpt lat="43.43274" lon="1.62028">
        <ele>130.1</ele>
        <time>2017-03-02T11:47:10Z</time>
      </trkpt>
      <trkpt lat="43.43264" lon="1.62037">
        <ele>130.5</ele>
        <time>2017-03-02T11:47:12Z</time>
      </trkpt>
      <trkpt lat="43.43253" lon="1.62045">
        <ele>130.6</ele>
        <time>2017-03-02T11:47:14Z</time>
      </trkpt>
      <trkpt lat="43.43243" lon="1.62054">
        <ele>131.1</ele>
        <time>2017-03-02T11:47:16Z</time>
      </trkpt>
      <trkpt lat="43.43232" lon="1.62063">
        <ele>131.7</ele>
        <time>2017-03-02T11:47:18Z</time>
      </trkpt>
      <trkpt lat="43.43222" lon="1.62071">
        <ele>132.4</ele>
        <time>2017-03-02T11:47:20Z</time>
      </trkpt>
      <trkpt lat="43.4321" lon="1.62077">
        <ele>132.5</ele>
        <time>2017-03-02T11:47:22Z</time>
      </trkpt>
      <trkpt lat="43.43202" lon="1.62081">
        <ele>132.5</ele>
        <time>2017-03-02T11:47:23Z</time>
      </trkpt>
      <trkpt lat="43.43189" lon="1.62085">
        <ele>132.9</ele>
        <time>2017-03-02T11:47:25Z</time>
      </trkpt>
      <trkpt lat="43.43177" lon="1.62087">
        <ele>133.4</ele>
        <time>2017-03-02T11:47:27Z</time>
      </trkpt>
      <trkpt lat="43.43164" lon="1.62088">
        <ele>133.9</ele>
        <time>2017-03-02T11:47:29Z</time>
      </trkpt>
      <trkpt lat="43.43151" lon="1.62088">
        <ele>134.5</ele>
        <time>2017-03-02T11:47:31Z</time>
      </trkpt>
      <trkpt lat="43.4314" lon="1.62086">
        <ele>135</ele>
        <time>2017-03-02T11:47:33Z</time>
      </trkpt>
      <trkpt lat="43.43129" lon="1.62084">
        <ele>135.5</ele>
        <time>2017-03-02T11:47:35Z</time>
      </trkpt>
      <trkpt lat="43.43117" lon="1.62081">
        <ele>136</ele>
        <time>2017-03-02T11:47:37Z</time>
      </trkpt>
      <trkpt lat="43.43106" lon="1.62079">
        <ele>136.2</ele>
        <time>2017-03-02T11:47:39Z</time>
      </trkpt>
      <trkpt lat="43.43094" lon="1.62078">
        <ele>136.5</ele>
        <time>2017-03-02T11:47:41Z</time>
      </trkpt>
      <trkpt lat="43.43082" lon="1.62077">
        <ele>136.8</ele>
        <time>2017-03-02T11:47:43Z</time>
      </trkpt>
      <trkpt lat="43.43071" lon="1.62077">
        <ele>137</ele>
        <time>2017-03-02T11:47:45Z</time>
      </trkpt>
      <trkpt lat="43.43059" lon="1.62077">
        <ele>137.3</ele>
        <time>2017-03-02T11:47:47Z</time>
      </trkpt>
      <trkpt lat="43.43047" lon="1.62078">
        <ele>137.6</ele>
        <time>2017-03-02T11:47:49Z</time>
      </trkpt>
      <trkpt lat="43.43037" lon="1.6208">
        <ele>137.9</ele>
        <time>2017-03-02T11:47:51Z</time>
      </trkpt>
      <trkpt lat="43.43025" lon="1.62082">
        <ele>138.3</ele>
        <time>2017-03-02T11:47:53Z</time>
      </trkpt>
      <trkpt lat="43.43013" lon="1.62085">
        <ele>139</ele>
        <time>2017-03-02T11:47:55Z</time>
      </trkpt>
      <trkpt lat="43.43002" lon="1.6209">
        <ele>139.4</ele>
        <time>2017-03-02T11:47:57Z</time>
      </trkpt>
      <trkpt lat="43.42992" lon="1.62095">
        <ele>139.7</ele>
        <time>2017-03-02T11:47:59Z</time>
      </trkpt>
      <trkpt lat="43.42983" lon="1.62099">
        <ele>140</ele>
        <time>2017-03-02T11:48:01Z</time>
      </trkpt>
      <trkpt lat="43.42975" lon="1.62104">
        <ele>140.5</ele>
        <time>2017-03-02T11:48:04Z</time>
      </trkpt>
      <trkpt lat="43.42968" lon="1.62115">
        <ele>140.2</ele>
        <time>2017-03-02T11:48:05Z</time>
      </trkpt>
      <trkpt lat="43.42961" lon="1.62125">
        <ele>139.8</ele>
        <time>2017-03-02T11:48:07Z</time>
      </trkpt>
      <trkpt lat="43.42954" lon="1.62135">
        <ele>139.4</ele>
        <time>2017-03-02T11:48:09Z</time>
      </trkpt>
      <trkpt lat="43.42946" lon="1.62145">
        <ele>138.9</ele>
        <time>2017-03-02T11:48:11Z</time>
      </trkpt>
      <trkpt lat="43.42939" lon="1.62154">
        <ele>138.7</ele>
        <time>2017-03-02T11:48:13Z</time>
      </trkpt>
      <trkpt lat="43.42933" lon="1.62163">
        <ele>138.2</ele>
        <time>2017-03-02T11:48:15Z</time>
      </trkpt>
      <trkpt lat="43.42927" lon="1.62172">
        <ele>138.2</ele>
        <time>2017-03-02T11:48:17Z</time>
      </trkpt>
      <trkpt lat="43.42921" lon="1.6218">
        <ele>138.1</ele>
        <time>2017-03-02T11:48:19Z</time>
      </trkpt>
      <trkpt lat="43.42914" lon="1.62192">
        <ele>138.1</ele>
        <time>2017-03-02T11:48:21Z</time>
      </trkpt>
      <trkpt lat="43.42906" lon="1.62202">
        <ele>137.7</ele>
        <time>2017-03-02T11:48:23Z</time>
      </trkpt>
      <trkpt lat="43.42898" lon="1.62213">
        <ele>137.3</ele>
        <time>2017-03-02T11:48:25Z</time>
      </trkpt>
      <trkpt lat="43.4289" lon="1.62224">
        <ele>136.9</ele>
        <time>2017-03-02T11:48:27Z</time>
      </trkpt>
      <trkpt lat="43.42883" lon="1.62236">
        <ele>136.7</ele>
        <time>2017-03-02T11:48:29Z</time>
      </trkpt>
      <trkpt lat="43.42875" lon="1.62246">
        <ele>136.4</ele>
        <time>2017-03-02T11:48:31Z</time>
      </trkpt>
      <trkpt lat="43.42867" lon="1.62256">
        <ele>136.3</ele>
        <time>2017-03-02T11:48:33Z</time>
      </trkpt>
      <trkpt lat="43.42859" lon="1.62266">
        <ele>136</ele>
        <time>2017-03-02T11:48:35Z</time>
      </trkpt>
      <trkpt lat="43.42852" lon="1.62275">
        <ele>135.7</ele>
        <time>2017-03-02T11:48:37Z</time>
      </trkpt>
      <trkpt lat="43.42847" lon="1.62283">
        <ele>135.4</ele>
        <time>2017-03-02T11:48:39Z</time>
      </trkpt>
      <trkpt lat="43.42841" lon="1.62294">
        <ele>134.9</ele>
        <time>2017-03-02T11:48:41Z</time>
      </trkpt>
      <trkpt lat="43.42833" lon="1.62305">
        <ele>134.4</ele>
        <time>2017-03-02T11:48:43Z</time>
      </trkpt>
      <trkpt lat="43.42827" lon="1.62316">
        <ele>134.2</ele>
        <time>2017-03-02T11:48:45Z</time>
      </trkpt>
      <trkpt lat="43.42821" lon="1.62323">
        <ele>133.7</ele>
        <time>2017-03-02T11:48:46Z</time>
      </trkpt>
      <trkpt lat="43.42812" lon="1.62335">
        <ele>132.9</ele>
        <time>2017-03-02T11:48:48Z</time>
      </trkpt>
      <trkpt lat="43.42805" lon="1.62345">
        <ele>132.2</ele>
        <time>2017-03-02T11:48:50Z</time>
      </trkpt>
      <trkpt lat="43.42798" lon="1.62356">
        <ele>131.7</ele>
        <time>2017-03-02T11:48:52Z</time>
      </trkpt>
      <trkpt lat="43.42787" lon="1.62368">
        <ele>130.8</ele>
        <time>2017-03-02T11:48:54Z</time>
      </trkpt>
      <trkpt lat="43.42779" lon="1.62382">
        <ele>130</ele>
        <time>2017-03-02T11:48:56Z</time>
      </trkpt>
      <trkpt lat="43.42773" lon="1.62394">
        <ele>129</ele>
        <time>2017-03-02T11:48:58Z</time>
      </trkpt>
      <trkpt lat="43.42767" lon="1.62403">
        <ele>127.9</ele>
        <time>2017-03-02T11:49:00Z</time>
      </trkpt>
      <trkpt lat="43.42759" lon="1.62415">
        <ele>126.8</ele>
        <time>2017-03-02T11:49:02Z</time>
      </trkpt>
      <trkpt lat="43.42754" lon="1.62425">
        <ele>125.8</ele>
        <time>2017-03-02T11:49:04Z</time>
      </trkpt>
      <trkpt lat="43.42746" lon="1.62438">
        <ele>124.9</ele>
        <time>2017-03-02T11:49:06Z</time>
      </trkpt>
      <trkpt lat="43.42742" lon="1.62452">
        <ele>124.6</ele>
        <time>2017-03-02T11:49:08Z</time>
      </trkpt>
      <trkpt lat="43.4274" lon="1.62463">
        <ele>124.7</ele>
        <time>2017-03-02T11:49:09Z</time>
      </trkpt>
      <trkpt lat="43.42736" lon="1.62476">
        <ele>124</ele>
        <time>2017-03-02T11:49:11Z</time>
      </trkpt>
      <trkpt lat="43.42731" lon="1.6249">
        <ele>124.2</ele>
        <time>2017-03-02T11:49:13Z</time>
      </trkpt>
      <trkpt lat="43.42725" lon="1.62505">
        <ele>124.9</ele>
        <time>2017-03-02T11:49:15Z</time>
      </trkpt>
      <trkpt lat="43.42722" lon="1.62516">
        <ele>125.2</ele>
        <time>2017-03-02T11:49:17Z</time>
      </trkpt>
      <trkpt lat="43.42716" lon="1.62528">
        <ele>125</ele>
        <time>2017-03-02T11:49:19Z</time>
      </trkpt>
      <trkpt lat="43.42712" lon="1.62541">
        <ele>125</ele>
        <time>2017-03-02T11:49:21Z</time>
      </trkpt>
      <trkpt lat="43.42706" lon="1.62551">
        <ele>125.1</ele>
        <time>2017-03-02T11:49:22Z</time>
      </trkpt>
      <trkpt lat="43.427" lon="1.62565">
        <ele>124.9</ele>
        <time>2017-03-02T11:49:24Z</time>
      </trkpt>
      <trkpt lat="43.42696" lon="1.6258">
        <ele>125.2</ele>
        <time>2017-03-02T11:49:26Z</time>
      </trkpt>
      <trkpt lat="43.42692" lon="1.62593">
        <ele>125.4</ele>
        <time>2017-03-02T11:49:28Z</time>
      </trkpt>
      <trkpt lat="43.42688" lon="1.62605">
        <ele>125</ele>
        <time>2017-03-02T11:49:30Z</time>
      </trkpt>
      <trkpt lat="43.42684" lon="1.62619">
        <ele>124.8</ele>
        <time>2017-03-02T11:49:32Z</time>
      </trkpt>
      <trkpt lat="43.4268" lon="1.62634">
        <ele>124.5</ele>
        <time>2017-03-02T11:49:34Z</time>
      </trkpt>
      <trkpt lat="43.42674" lon="1.62651">
        <ele>124.3</ele>
        <time>2017-03-02T11:49:36Z</time>
      </trkpt>
      <trkpt lat="43.4267" lon="1.62666">
        <ele>124.2</ele>
        <time>2017-03-02T11:49:38Z</time>
      </trkpt>
      <trkpt lat="43.42665" lon="1.62681">
        <ele>124.5</ele>
        <time>2017-03-02T11:49:40Z</time>
      </trkpt>
      <trkpt lat="43.4266" lon="1.62694">
        <ele>125.3</ele>
        <time>2017-03-02T11:49:42Z</time>
      </trkpt>
      <trkpt lat="43.42657" lon="1.62706">
        <ele>125.7</ele>
        <time>2017-03-02T11:49:44Z</time>
      </trkpt>
      <trkpt lat="43.42655" lon="1.62717">
        <ele>128.5</ele>
        <time>2017-03-02T11:49:47Z</time>
      </trkpt>
      <trkpt lat="43.42653" lon="1.62729">
        <ele>130.5</ele>
        <time>2017-03-02T11:49:50Z</time>
      </trkpt>
      <trkpt lat="43.42651" lon="1.62743">
        <ele>131.6</ele>
        <time>2017-03-02T11:49:53Z</time>
      </trkpt>
      <trkpt lat="43.42649" lon="1.62754">
        <ele>132.3</ele>
        <time>2017-03-02T11:49:55Z</time>
      </trkpt>
      <trkpt lat="43.42643" lon="1.62766">
        <ele>132.6</ele>
        <time>2017-03-02T11:49:57Z</time>
      </trkpt>
      <trkpt lat="43.4264" lon="1.62776">
        <ele>132.9</ele>
        <time>2017-03-02T11:49:59Z</time>
      </trkpt>
      <trkpt lat="43.42636" lon="1.62788">
        <ele>133.2</ele>
        <time>2017-03-02T11:50:01Z</time>
      </trkpt>
      <trkpt lat="43.42634" lon="1.62798">
        <ele>133.3</ele>
        <time>2017-03-02T11:50:03Z</time>
      </trkpt>
      <trkpt lat="43.42629" lon="1.6281">
        <ele>133.3</ele>
        <time>2017-03-02T11:50:05Z</time>
      </trkpt>
      <trkpt lat="43.42626" lon="1.62822">
        <ele>133.2</ele>
        <time>2017-03-02T11:50:07Z</time>
      </trkpt>
      <trkpt lat="43.42622" lon="1.62835">
        <ele>133.3</ele>
        <time>2017-03-02T11:50:09Z</time>
      </trkpt>
      <trkpt lat="43.42619" lon="1.62845">
        <ele>133.3</ele>
        <time>2017-03-02T11:50:10Z</time>
      </trkpt>
      <trkpt lat="43.42613" lon="1.62865">
        <ele>133.9</ele>
        <time>2017-03-02T11:50:12Z</time>
      </trkpt>
      <trkpt lat="43.42608" lon="1.62883">
        <ele>134.5</ele>
        <time>2017-03-02T11:50:14Z</time>
      </trkpt>
      <trkpt lat="43.42605" lon="1.62892">
        <ele>134.9</ele>
        <time>2017-03-02T11:50:15Z</time>
      </trkpt>
      <trkpt lat="43.42603" lon="1.62908">
        <ele>135.3</ele>
        <time>2017-03-02T11:50:17Z</time>
      </trkpt>
      <trkpt lat="43.42602" lon="1.62924">
        <ele>135.9</ele>
        <time>2017-03-02T11:50:19Z</time>
      </trkpt>
      <trkpt lat="43.42603" lon="1.62941">
        <ele>136.2</ele>
        <time>2017-03-02T11:50:21Z</time>
      </trkpt>
      <trkpt lat="43.42602" lon="1.62958">
        <ele>136.3</ele>
        <time>2017-03-02T11:50:23Z</time>
      </trkpt>
      <trkpt lat="43.42605" lon="1.62974">
        <ele>136.6</ele>
        <time>2017-03-02T11:50:25Z</time>
      </trkpt>
      <trkpt lat="43.42608" lon="1.62989">
        <ele>136.7</ele>
        <time>2017-03-02T11:50:27Z</time>
      </trkpt>
      <trkpt lat="43.42609" lon="1.63003">
        <ele>136.8</ele>
        <time>2017-03-02T11:50:29Z</time>
      </trkpt>
      <trkpt lat="43.42612" lon="1.63016">
        <ele>137.1</ele>
        <time>2017-03-02T11:50:31Z</time>
      </trkpt>
      <trkpt lat="43.42614" lon="1.6303">
        <ele>137.2</ele>
        <time>2017-03-02T11:50:33Z</time>
      </trkpt>
      <trkpt lat="43.42617" lon="1.63041">
        <ele>137.4</ele>
        <time>2017-03-02T11:50:35Z</time>
      </trkpt>
      <trkpt lat="43.4262" lon="1.63054">
        <ele>137.5</ele>
        <time>2017-03-02T11:50:37Z</time>
      </trkpt>
      <trkpt lat="43.42625" lon="1.63066">
        <ele>137.5</ele>
        <time>2017-03-02T11:50:39Z</time>
      </trkpt>
      <trkpt lat="43.42629" lon="1.63076">
        <ele>137.5</ele>
        <time>2017-03-02T11:50:41Z</time>
      </trkpt>
      <trkpt lat="43.42633" lon="1.63088">
        <ele>137.5</ele>
        <time>2017-03-02T11:50:43Z</time>
      </trkpt>
      <trkpt lat="43.42639" lon="1.63101">
        <ele>137.4</ele>
        <time>2017-03-02T11:50:45Z</time>
      </trkpt>
      <trkpt lat="43.42645" lon="1.63116">
        <ele>137.3</ele>
        <time>2017-03-02T11:50:47Z</time>
      </trkpt>
      <trkpt lat="43.42652" lon="1.6313">
        <ele>137.3</ele>
        <time>2017-03-02T11:50:49Z</time>
      </trkpt>
      <trkpt lat="43.42659" lon="1.63137">
        <ele>137.4</ele>
        <time>2017-03-02T11:50:50Z</time>
      </trkpt>
      <trkpt lat="43.42665" lon="1.6315">
        <ele>137.3</ele>
        <time>2017-03-02T11:50:52Z</time>
      </trkpt>
      <trkpt lat="43.42671" lon="1.63163">
        <ele>137.3</ele>
        <time>2017-03-02T11:50:54Z</time>
      </trkpt>
      <trkpt lat="43.42678" lon="1.63174">
        <ele>137.1</ele>
        <time>2017-03-02T11:50:56Z</time>
      </trkpt>
      <trkpt lat="43.42687" lon="1.63188">
        <ele>137</ele>
        <time>2017-03-02T11:50:58Z</time>
      </trkpt>
      <trkpt lat="43.42692" lon="1.63203">
        <ele>137</ele>
        <time>2017-03-02T11:51:00Z</time>
      </trkpt>
      <trkpt lat="43.42698" lon="1.6322">
        <ele>137.1</ele>
        <time>2017-03-02T11:51:02Z</time>
      </trkpt>
      <trkpt lat="43.42703" lon="1.63238">
        <ele>137.5</ele>
        <time>2017-03-02T11:51:04Z</time>
      </trkpt>
      <trkpt lat="43.42705" lon="1.63256">
        <ele>137.3</ele>
        <time>2017-03-02T11:51:06Z</time>
      </trkpt>
      <trkpt lat="43.42707" lon="1.63272">
        <ele>137.1</ele>
        <time>2017-03-02T11:51:08Z</time>
      </trkpt>
      <trkpt lat="43.42706" lon="1.63289">
        <ele>136.7</ele>
        <time>2017-03-02T11:51:10Z</time>
      </trkpt>
      <trkpt lat="43.42705" lon="1.63301">
        <ele>136.9</ele>
        <time>2017-03-02T11:51:12Z</time>
      </trkpt>
      <trkpt lat="43.42703" lon="1.63316">
        <ele>136.8</ele>
        <time>2017-03-02T11:51:14Z</time>
      </trkpt>
      <trkpt lat="43.42699" lon="1.63327">
        <ele>136.8</ele>
        <time>2017-03-02T11:51:16Z</time>
      </trkpt>
      <trkpt lat="43.42695" lon="1.63338">
        <ele>136.4</ele>
        <time>2017-03-02T11:51:18Z</time>
      </trkpt>
      <trkpt lat="43.42689" lon="1.6335">
        <ele>136</ele>
        <time>2017-03-02T11:51:20Z</time>
      </trkpt>
      <trkpt lat="43.42682" lon="1.63362">
        <ele>135.9</ele>
        <time>2017-03-02T11:51:22Z</time>
      </trkpt>
      <trkpt lat="43.42673" lon="1.63373">
        <ele>135.9</ele>
        <time>2017-03-02T11:51:24Z</time>
      </trkpt>
      <trkpt lat="43.42667" lon="1.63379">
        <ele>135.9</ele>
        <time>2017-03-02T11:51:25Z</time>
      </trkpt>
      <trkpt lat="43.42656" lon="1.63389">
        <ele>136.5</ele>
        <time>2017-03-02T11:51:27Z</time>
      </trkpt>
      <trkpt lat="43.42644" lon="1.63398">
        <ele>136.8</ele>
        <time>2017-03-02T11:51:29Z</time>
      </trkpt>
      <trkpt lat="43.42637" lon="1.63402">
        <ele>137</ele>
        <time>2017-03-02T11:51:30Z</time>
      </trkpt>
      <trkpt lat="43.4263" lon="1.63406">
        <ele>137</ele>
        <time>2017-03-02T11:51:31Z</time>
      </trkpt>
      <trkpt lat="43.42617" lon="1.63408">
        <ele>137.2</ele>
        <time>2017-03-02T11:51:33Z</time>
      </trkpt>
      <trkpt lat="43.42605" lon="1.63408">
        <ele>137.7</ele>
        <time>2017-03-02T11:51:35Z</time>
      </trkpt>
      <trkpt lat="43.42594" lon="1.63406">
        <ele>138</ele>
        <time>2017-03-02T11:51:37Z</time>
      </trkpt>
      <trkpt lat="43.42584" lon="1.63402">
        <ele>138.3</ele>
        <time>2017-03-02T11:51:39Z</time>
      </trkpt>
      <trkpt lat="43.42572" lon="1.634">
        <ele>138.8</ele>
        <time>2017-03-02T11:51:41Z</time>
      </trkpt>
      <trkpt lat="43.42558" lon="1.63399">
        <ele>139.2</ele>
        <time>2017-03-02T11:51:43Z</time>
      </trkpt>
      <trkpt lat="43.42545" lon="1.634">
        <ele>139.7</ele>
        <time>2017-03-02T11:51:45Z</time>
      </trkpt>
      <trkpt lat="43.42537" lon="1.63405">
        <ele>140.1</ele>
        <time>2017-03-02T11:51:47Z</time>
      </trkpt>
      <trkpt lat="43.42529" lon="1.63413">
        <ele>140.3</ele>
        <time>2017-03-02T11:51:49Z</time>
      </trkpt>
      <trkpt lat="43.42524" lon="1.63422">
        <ele>140.7</ele>
        <time>2017-03-02T11:51:51Z</time>
      </trkpt>
      <trkpt lat="43.42517" lon="1.63433">
        <ele>140.8</ele>
        <time>2017-03-02T11:51:53Z</time>
      </trkpt>
      <trkpt lat="43.42508" lon="1.63444">
        <ele>140.6</ele>
        <time>2017-03-02T11:51:55Z</time>
      </trkpt>
      <trkpt lat="43.42501" lon="1.63454">
        <ele>140.5</ele>
        <time>2017-03-02T11:51:57Z</time>
      </trkpt>
      <trkpt lat="43.42493" lon="1.63466">
        <ele>140.4</ele>
        <time>2017-03-02T11:51:59Z</time>
      </trkpt>
      <trkpt lat="43.42485" lon="1.63479">
        <ele>140.4</ele>
        <time>2017-03-02T11:52:01Z</time>
      </trkpt>
      <trkpt lat="43.42478" lon="1.63489">
        <ele>140.2</ele>
        <time>2017-03-02T11:52:03Z</time>
      </trkpt>
      <trkpt lat="43.42472" lon="1.635">
        <ele>140</ele>
        <time>2017-03-02T11:52:05Z</time>
      </trkpt>
      <trkpt lat="43.42465" lon="1.63511">
        <ele>139.8</ele>
        <time>2017-03-02T11:52:07Z</time>
      </trkpt>
      <trkpt lat="43.42459" lon="1.63522">
        <ele>139.7</ele>
        <time>2017-03-02T11:52:09Z</time>
      </trkpt>
      <trkpt lat="43.4245" lon="1.63534">
        <ele>139.4</ele>
        <time>2017-03-02T11:52:11Z</time>
      </trkpt>
      <trkpt lat="43.42442" lon="1.63546">
        <ele>139.1</ele>
        <time>2017-03-02T11:52:13Z</time>
      </trkpt>
      <trkpt lat="43.42434" lon="1.63558">
        <ele>138.9</ele>
        <time>2017-03-02T11:52:15Z</time>
      </trkpt>
      <trkpt lat="43.42427" lon="1.63569">
        <ele>138.9</ele>
        <time>2017-03-02T11:52:17Z</time>
      </trkpt>
      <trkpt lat="43.42421" lon="1.63579">
        <ele>138.9</ele>
        <time>2017-03-02T11:52:19Z</time>
      </trkpt>
      <trkpt lat="43.42414" lon="1.63592">
        <ele>139.1</ele>
        <time>2017-03-02T11:52:21Z</time>
      </trkpt>
      <trkpt lat="43.42407" lon="1.63602">
        <ele>138.7</ele>
        <time>2017-03-02T11:52:23Z</time>
      </trkpt>
      <trkpt lat="43.42399" lon="1.63614">
        <ele>138.9</ele>
        <time>2017-03-02T11:52:25Z</time>
      </trkpt>
      <trkpt lat="43.42392" lon="1.63625">
        <ele>138.8</ele>
        <time>2017-03-02T11:52:27Z</time>
      </trkpt>
      <trkpt lat="43.42385" lon="1.63635">
        <ele>138.6</ele>
        <time>2017-03-02T11:52:29Z</time>
      </trkpt>
      <trkpt lat="43.42377" lon="1.63645">
        <ele>138.8</ele>
        <time>2017-03-02T11:52:31Z</time>
      </trkpt>
      <trkpt lat="43.42366" lon="1.63657">
        <ele>138.9</ele>
        <time>2017-03-02T11:52:33Z</time>
      </trkpt>
      <trkpt lat="43.42356" lon="1.63666">
        <ele>139</ele>
        <time>2017-03-02T11:52:35Z</time>
      </trkpt>
      <trkpt lat="43.42349" lon="1.63673">
        <ele>139.4</ele>
        <time>2017-03-02T11:52:37Z</time>
      </trkpt>
      <trkpt lat="43.42342" lon="1.6368">
        <ele>139.5</ele>
        <time>2017-03-02T11:52:39Z</time>
      </trkpt>
      <trkpt lat="43.42334" lon="1.63689">
        <ele>139.8</ele>
        <time>2017-03-02T11:52:41Z</time>
      </trkpt>
      <trkpt lat="43.42326" lon="1.63699">
        <ele>140.1</ele>
        <time>2017-03-02T11:52:43Z</time>
      </trkpt>
      <trkpt lat="43.42315" lon="1.63712">
        <ele>140.8</ele>
        <time>2017-03-02T11:52:45Z</time>
      </trkpt>
      <trkpt lat="43.42307" lon="1.63722">
        <ele>141.3</ele>
        <time>2017-03-02T11:52:47Z</time>
      </trkpt>
      <trkpt lat="43.42297" lon="1.63732">
        <ele>141.6</ele>
        <time>2017-03-02T11:52:49Z</time>
      </trkpt>
      <trkpt lat="43.42288" lon="1.63741">
        <ele>141.9</ele>
        <time>2017-03-02T11:52:51Z</time>
      </trkpt>
      <trkpt lat="43.42279" lon="1.63749">
        <ele>142</ele>
        <time>2017-03-02T11:52:53Z</time>
      </trkpt>
      <trkpt lat="43.42272" lon="1.63756">
        <ele>142</ele>
        <time>2017-03-02T11:52:54Z</time>
      </trkpt>
      <trkpt lat="43.42262" lon="1.63766">
        <ele>142.1</ele>
        <time>2017-03-02T11:52:56Z</time>
      </trkpt>
      <trkpt lat="43.42254" lon="1.63774">
        <ele>142.4</ele>
        <time>2017-03-02T11:52:58Z</time>
      </trkpt>
      <trkpt lat="43.42247" lon="1.63781">
        <ele>142.6</ele>
        <time>2017-03-02T11:53:00Z</time>
      </trkpt>
      <trkpt lat="43.42239" lon="1.63789">
        <ele>142.9</ele>
        <time>2017-03-02T11:53:02Z</time>
      </trkpt>
      <trkpt lat="43.42231" lon="1.63796">
        <ele>143.2</ele>
        <time>2017-03-02T11:53:04Z</time>
      </trkpt>
      <trkpt lat="43.42223" lon="1.63803">
        <ele>143.4</ele>
        <time>2017-03-02T11:53:06Z</time>
      </trkpt>
      <trkpt lat="43.42215" lon="1.63812">
        <ele>143.3</ele>
        <time>2017-03-02T11:53:08Z</time>
      </trkpt>
      <trkpt lat="43.42205" lon="1.63821">
        <ele>143.3</ele>
        <time>2017-03-02T11:53:10Z</time>
      </trkpt>
      <trkpt lat="43.42197" lon="1.6383">
        <ele>143.5</ele>
        <time>2017-03-02T11:53:12Z</time>
      </trkpt>
      <trkpt lat="43.42191" lon="1.63837">
        <ele>143.6</ele>
        <time>2017-03-02T11:53:13Z</time>
      </trkpt>
      <trkpt lat="43.42181" lon="1.63848">
        <ele>143.5</ele>
        <time>2017-03-02T11:53:15Z</time>
      </trkpt>
      <trkpt lat="43.42173" lon="1.63857">
        <ele>143.2</ele>
        <time>2017-03-02T11:53:17Z</time>
      </trkpt>
      <trkpt lat="43.42167" lon="1.63864">
        <ele>143</ele>
        <time>2017-03-02T11:53:19Z</time>
      </trkpt>
      <trkpt lat="43.42161" lon="1.63872">
        <ele>143.1</ele>
        <time>2017-03-02T11:53:21Z</time>
      </trkpt>
      <trkpt lat="43.42152" lon="1.63884">
        <ele>143.1</ele>
        <time>2017-03-02T11:53:23Z</time>
      </trkpt>
      <trkpt lat="43.42144" lon="1.63894">
        <ele>143.3</ele>
        <time>2017-03-02T11:53:25Z</time>
      </trkpt>
      <trkpt lat="43.42137" lon="1.63902">
        <ele>143.5</ele>
        <time>2017-03-02T11:53:27Z</time>
      </trkpt>
      <trkpt lat="43.42128" lon="1.63911">
        <ele>144</ele>
        <time>2017-03-02T11:53:29Z</time>
      </trkpt>
      <trkpt lat="43.42119" lon="1.63921">
        <ele>144.1</ele>
        <time>2017-03-02T11:53:31Z</time>
      </trkpt>
      <trkpt lat="43.42109" lon="1.63931">
        <ele>144.1</ele>
        <time>2017-03-02T11:53:33Z</time>
      </trkpt>
      <trkpt lat="43.42102" lon="1.63939">
        <ele>144.3</ele>
        <time>2017-03-02T11:53:35Z</time>
      </trkpt>
      <trkpt lat="43.42094" lon="1.63949">
        <ele>144.6</ele>
        <time>2017-03-02T11:53:37Z</time>
      </trkpt>
      <trkpt lat="43.42084" lon="1.63957">
        <ele>145.1</ele>
        <time>2017-03-02T11:53:39Z</time>
      </trkpt>
      <trkpt lat="43.42073" lon="1.63966">
        <ele>145.5</ele>
        <time>2017-03-02T11:53:41Z</time>
      </trkpt>
      <trkpt lat="43.42063" lon="1.63976">
        <ele>145.7</ele>
        <time>2017-03-02T11:53:43Z</time>
      </trkpt>
      <trkpt lat="43.42052" lon="1.63985">
        <ele>146.1</ele>
        <time>2017-03-02T11:53:45Z</time>
      </trkpt>
      <trkpt lat="43.42043" lon="1.63991">
        <ele>146.5</ele>
        <time>2017-03-02T11:53:47Z</time>
      </trkpt>
      <trkpt lat="43.42031" lon="1.63999">
        <ele>146.7</ele>
        <time>2017-03-02T11:53:49Z</time>
      </trkpt>
      <trkpt lat="43.42025" lon="1.64005">
        <ele>146.7</ele>
        <time>2017-03-02T11:53:50Z</time>
      </trkpt>
      <trkpt lat="43.42014" lon="1.64012">
        <ele>147</ele>
        <time>2017-03-02T11:53:52Z</time>
      </trkpt>
      <trkpt lat="43.42004" lon="1.64017">
        <ele>147.2</ele>
        <time>2017-03-02T11:53:54Z</time>
      </trkpt>
      <trkpt lat="43.41996" lon="1.64026">
        <ele>147.2</ele>
        <time>2017-03-02T11:53:56Z</time>
      </trkpt>
      <trkpt lat="43.41985" lon="1.64034">
        <ele>147.6</ele>
        <time>2017-03-02T11:53:58Z</time>
      </trkpt>
      <trkpt lat="43.41976" lon="1.64039">
        <ele>147.9</ele>
        <time>2017-03-02T11:54:00Z</time>
      </trkpt>
      <trkpt lat="43.41968" lon="1.64045">
        <ele>148.1</ele>
        <time>2017-03-02T11:54:02Z</time>
      </trkpt>
      <trkpt lat="43.41958" lon="1.6405">
        <ele>148.5</ele>
        <time>2017-03-02T11:54:04Z</time>
      </trkpt>
      <trkpt lat="43.41949" lon="1.64056">
        <ele>149.1</ele>
        <time>2017-03-02T11:54:06Z</time>
      </trkpt>
      <trkpt lat="43.41941" lon="1.64061">
        <ele>149.5</ele>
        <time>2017-03-02T11:54:08Z</time>
      </trkpt>
      <trkpt lat="43.41934" lon="1.64067">
        <ele>149.4</ele>
        <time>2017-03-02T11:54:10Z</time>
      </trkpt>
      <trkpt lat="43.41923" lon="1.64073">
        <ele>149.4</ele>
        <time>2017-03-02T11:54:12Z</time>
      </trkpt>
      <trkpt lat="43.41908" lon="1.6408">
        <ele>149</ele>
        <time>2017-03-02T11:54:14Z</time>
      </trkpt>
      <trkpt lat="43.419" lon="1.64084">
        <ele>148.9</ele>
        <time>2017-03-02T11:54:15Z</time>
      </trkpt>
      <trkpt lat="43.4189" lon="1.64092">
        <ele>148.9</ele>
        <time>2017-03-02T11:54:17Z</time>
      </trkpt>
      <trkpt lat="43.41881" lon="1.64096">
        <ele>148.8</ele>
        <time>2017-03-02T11:54:19Z</time>
      </trkpt>
      <trkpt lat="43.4187" lon="1.64097">
        <ele>148.4</ele>
        <time>2017-03-02T11:54:22Z</time>
      </trkpt>
      <trkpt lat="43.41863" lon="1.641">
        <ele>148.2</ele>
        <time>2017-03-02T11:54:25Z</time>
      </trkpt>
      <trkpt lat="43.41858" lon="1.64108">
        <ele>149.2</ele>
        <time>2017-03-02T11:54:29Z</time>
      </trkpt>
      <trkpt lat="43.41855" lon="1.64123">
        <ele>150.2</ele>
        <time>2017-03-02T11:54:34Z</time>
      </trkpt>
      <trkpt lat="43.4185" lon="1.6413">
        <ele>150.3</ele>
        <time>2017-03-02T11:54:35Z</time>
      </trkpt>
      <trkpt lat="43.41842" lon="1.64134">
        <ele>150.3</ele>
        <time>2017-03-02T11:54:38Z</time>
      </trkpt>
      <trkpt lat="43.41833" lon="1.64135">
        <ele>150.3</ele>
        <time>2017-03-02T11:54:41Z</time>
      </trkpt>
      <trkpt lat="43.41824" lon="1.64139">
        <ele>150.1</ele>
        <time>2017-03-02T11:54:44Z</time>
      </trkpt>
      <trkpt lat="43.41816" lon="1.64145">
        <ele>150</ele>
        <time>2017-03-02T11:54:47Z</time>
      </trkpt>
      <trkpt lat="43.41807" lon="1.6415">
        <ele>149.8</ele>
        <time>2017-03-02T11:54:51Z</time>
      </trkpt>
      <trkpt lat="43.41799" lon="1.64155">
        <ele>149.6</ele>
        <time>2017-03-02T11:54:54Z</time>
      </trkpt>
      <trkpt lat="43.41791" lon="1.64156">
        <ele>149.5</ele>
        <time>2017-03-02T11:54:57Z</time>
      </trkpt>
      <trkpt lat="43.41782" lon="1.64158">
        <ele>149.1</ele>
        <time>2017-03-02T11:55:01Z</time>
      </trkpt>
      <trkpt lat="43.41773" lon="1.64161">
        <ele>149.4</ele>
        <time>2017-03-02T11:55:05Z</time>
      </trkpt>
      <trkpt lat="43.41771" lon="1.64172">
        <ele>150</ele>
        <time>2017-03-02T11:55:11Z</time>
      </trkpt>
      <trkpt lat="43.41778" lon="1.64178">
        <ele>151.7</ele>
        <time>2017-03-02T11:55:16Z</time>
      </trkpt>
      <trkpt lat="43.41785" lon="1.64168">
        <ele>153</ele>
        <time>2017-03-02T11:55:20Z</time>
      </trkpt>
      <trkpt lat="43.41792" lon="1.64161">
        <ele>153.4</ele>
        <time>2017-03-02T11:55:23Z</time>
      </trkpt>
      <trkpt lat="43.418" lon="1.64155">
        <ele>154</ele>
        <time>2017-03-02T11:55:26Z</time>
      </trkpt>
      <trkpt lat="43.4181" lon="1.64149">
        <ele>154.4</ele>
        <time>2017-03-02T11:55:29Z</time>
      </trkpt>
      <trkpt lat="43.41816" lon="1.64143">
        <ele>154.7</ele>
        <time>2017-03-02T11:55:31Z</time>
      </trkpt>
      <trkpt lat="43.41823" lon="1.64138">
        <ele>155</ele>
        <time>2017-03-02T11:55:33Z</time>
      </trkpt>
      <trkpt lat="43.41832" lon="1.64135">
        <ele>155.4</ele>
        <time>2017-03-02T11:55:35Z</time>
      </trkpt>
      <trkpt lat="43.4184" lon="1.64134">
        <ele>155.8</ele>
        <time>2017-03-02T11:55:37Z</time>
      </trkpt>
      <trkpt lat="43.41847" lon="1.64131">
        <ele>156.3</ele>
        <time>2017-03-02T11:55:39Z</time>
      </trkpt>
      <trkpt lat="43.41855" lon="1.64127">
        <ele>156.8</ele>
        <time>2017-03-02T11:55:41Z</time>
      </trkpt>
      <trkpt lat="43.4186" lon="1.6412">
        <ele>157.8</ele>
        <time>2017-03-02T11:55:43Z</time>
      </trkpt>
      <trkpt lat="43.41863" lon="1.64111">
        <ele>158.2</ele>
        <time>2017-03-02T11:55:45Z</time>
      </trkpt>
      <trkpt lat="43.41867" lon="1.64099">
        <ele>159.2</ele>
        <time>2017-03-02T11:55:48Z</time>
      </trkpt>
      <trkpt lat="43.41869" lon="1.64087">
        <ele>160.1</ele>
        <time>2017-03-02T11:55:51Z</time>
      </trkpt>
      <trkpt lat="43.41865" lon="1.64076">
        <ele>161.3</ele>
        <time>2017-03-02T11:55:55Z</time>
      </trkpt>
      <trkpt lat="43.41859" lon="1.64069">
        <ele>162.2</ele>
        <time>2017-03-02T11:55:58Z</time>
      </trkpt>
      <trkpt lat="43.41853" lon="1.64063">
        <ele>162.8</ele>
        <time>2017-03-02T11:56:01Z</time>
      </trkpt>
      <trkpt lat="43.41845" lon="1.64059">
        <ele>163.2</ele>
        <time>2017-03-02T11:56:05Z</time>
      </trkpt>
      <trkpt lat="43.41837" lon="1.64066">
        <ele>163.7</ele>
        <time>2017-03-02T11:56:08Z</time>
      </trkpt>
      <trkpt lat="43.41829" lon="1.64071">
        <ele>164.3</ele>
        <time>2017-03-02T11:56:12Z</time>
      </trkpt>
      <trkpt lat="43.41822" lon="1.64077">
        <ele>165</ele>
        <time>2017-03-02T11:56:16Z</time>
      </trkpt>
      <trkpt lat="43.41815" lon="1.64074">
        <ele>165.7</ele>
        <time>2017-03-02T11:56:22Z</time>
      </trkpt>
      <trkpt lat="43.41807" lon="1.64073">
        <ele>165.8</ele>
        <time>2017-03-02T11:56:25Z</time>
      </trkpt>
      <trkpt lat="43.41798" lon="1.64071">
        <ele>164.4</ele>
        <time>2017-03-02T11:56:29Z</time>
      </trkpt>
      <trkpt lat="43.41806" lon="1.64075">
        <ele>164.5</ele>
        <time>2017-03-02T11:56:35Z</time>
      </trkpt>
      <trkpt lat="43.41815" lon="1.64075">
        <ele>164.5</ele>
        <time>2017-03-02T11:56:38Z</time>
      </trkpt>
      <trkpt lat="43.41825" lon="1.64072">
        <ele>164.6</ele>
        <time>2017-03-02T11:56:41Z</time>
      </trkpt>
      <trkpt lat="43.41833" lon="1.64068">
        <ele>164.4</ele>
        <time>2017-03-02T11:56:43Z</time>
      </trkpt>
      <trkpt lat="43.41841" lon="1.64064">
        <ele>164.2</ele>
        <time>2017-03-02T11:56:45Z</time>
      </trkpt>
      <trkpt lat="43.41849" lon="1.64064">
        <ele>164.5</ele>
        <time>2017-03-02T11:56:47Z</time>
      </trkpt>
      <trkpt lat="43.41859" lon="1.6407">
        <ele>166.4</ele>
        <time>2017-03-02T11:56:50Z</time>
      </trkpt>
      <trkpt lat="43.41863" lon="1.64081">
        <ele>167.8</ele>
        <time>2017-03-02T11:56:53Z</time>
      </trkpt>
      <trkpt lat="43.41864" lon="1.64093">
        <ele>169.2</ele>
        <time>2017-03-02T11:56:57Z</time>
      </trkpt>
      <trkpt lat="43.41862" lon="1.64103">
        <ele>170.9</ele>
        <time>2017-03-02T11:57:02Z</time>
      </trkpt>
      <trkpt lat="43.4186" lon="1.64114">
        <ele>174.4</ele>
        <time>2017-03-02T11:57:06Z</time>
      </trkpt>
      <trkpt lat="43.41855" lon="1.64123">
        <ele>174.8</ele>
        <time>2017-03-02T11:57:08Z</time>
      </trkpt>
      <trkpt lat="43.4185" lon="1.64129">
        <ele>175.4</ele>
        <time>2017-03-02T11:57:10Z</time>
      </trkpt>
      <trkpt lat="43.41841" lon="1.64133">
        <ele>175.8</ele>
        <time>2017-03-02T11:57:13Z</time>
      </trkpt>
      <trkpt lat="43.41835" lon="1.6413">
        <ele>177.2</ele>
        <time>2017-03-02T11:57:20Z</time>
      </trkpt>
      <trkpt lat="43.41834" lon="1.64124">
        <ele>177.1</ele>
        <time>2017-03-02T11:57:27Z</time>
      </trkpt>
      <trkpt lat="43.41836" lon="1.6412">
        <ele>177.3</ele>
        <time>2017-03-02T11:57:34Z</time>
      </trkpt>
    </trkseg>
  </trk>
</gpx>